GFSSE_sfc_thetae_000.txt.gz
Theta_e
336 347 358 356 355 352 350 346 344 341 339 340 340 341 341 338 336 337 338 336 338 336 334 337 338 341 343 343 341 339 338 334 333 333 333 334 334 335 336 340 337 333 337
341 349 357 356 354 352 350 346 344 341 339 338 337 337 337 335 335 336 337 336 335 334 332 333 336 336 336 338 337 337 337 334 332 332 333 333 335 335 336 337 334 332 338
346 350 352 355 353 353 350 346 343 342 338 337 337 336 337 336 338 338 338 336 335 334 331 331 331 330 332 333 335 335 335 333 332 332 333 328 327 334 337 336 335 335 336
347 350 350 356 354 353 349 346 344 341 340 337 336 336 336 338 338 337 337 334 334 333 331 330 330 328 329 332 334 334 334 334 334 335 328 328 327 333 337 337 337 336 336
346 348 351 356 356 354 349 346 344 342 339 336 336 335 337 339 341 339 339 336 336 335 332 331 331 332 332 331 331 331 334 334 336 334 326 325 324 330 337 338 336 336 336
342 345 353 356 356 354 351 346 345 343 340 338 336 337 337 341 342 343 340 341 339 336 334 332 332 333 335 336 336 335 334 333 337 328 325 323 326 330 333 336 336 336 335
340 345 352 355 356 353 350 348 345 343 342 338 338 338 339 341 342 344 342 341 338 336 334 333 334 334 334 335 337 339 337 338 329 324 322 320 320 332 335 335 335 336 337
343 348 351 354 354 352 351 350 348 345 343 340 339 339 339 338 340 342 341 340 337 336 334 336 336 336 336 335 335 337 339 338 331 325 323 321 326 334 335 335 337 336 335
347 348 348 350 350 351 351 350 349 348 346 343 341 339 340 339 336 338 343 340 338 336 336 337 337 336 336 337 336 337 339 338 331 327 327 324 330 335 336 336 337 337 338
345 346 345 345 347 345 346 348 347 347 346 345 343 341 340 338 338 339 342 340 338 338 338 337 336 336 337 337 337 339 337 336 330 328 328 327 334 338 339 339 338 338 338
340 341 344 343 343 343 342 343 345 345 344 343 340 338 335 328 327 331 335 337 340 338 337 338 338 339 340 338 338 337 335 329 326 326 327 331 336 339 339 339 339 339 338
330 334 339 341 340 341 343 338 338 338 337 335 334 331 330 327 326 328 331 335 338 339 339 340 340 341 338 331 329 331 327 326 324 326 325 332 337 340 340 341 343 343 341
330 332 336 338 338 339 337 336 334 333 333 332 331 330 329 326 324 325 325 326 326 328 328 330 328 327 327 328 326 325 325 323 323 325 327 333 337 339 341 341 342 342 341
327 331 333 336 337 334 335 334 332 331 330 329 330 330 326 324 325 324 325 325 326 327 328 330 328 325 321 319 319 319 317 319 322 323 324 331 334 334 337 336 340 341 342
325 330 331 333 334 332 332 331 329 328 329 327 326 326 326 326 326 326 326 326 326 327 323 315 311 311 309 310 310 310 311 314 314 317 319 325 329 331 333 333 336 337 339
323 329 331 333 333 333 331 330 329 327 329 326 326 327 328 327 326 324 313 313 315 310 308 307 305 305 304 305 305 306 306 307 307 308 310 313 325 327 325 325 327 331 335
320 326 329 332 334 333 331 331 328 330 329 327 326 322 323 321 314 311 309 306 307 306 304 303 302 301 301 302 300 302 302 301 303 303 307 307 309 318 321 321 326 320 322
317 320 325 334 333 332 330 329 326 325 320 312 310 311 310 310 308 306 303 302 303 302 300 300 299 297 298 297 296 297 298 299 300 303 303 301 304 306 310 317 314 314 315
316 317 319 330 331 329 323 319 313 310 309 308 305 305 305 305 304 302 300 300 301 299 297 297 295 295 295 295 296 297 296 296 299 299 296 299 302 302 302 310 311 311 312
316 316 318 328 321 312 312 311 309 306 303 302 301 302 301 300 300 299 297 298 298 296 295 294 293 294 294 294 298 296 293 297 295 293 294 298 297 296 298 297 296 299 309
317 317 321 319 310 310 310 308 306 301 300 298 298 298 298 297 297 296 296 295 296 294 292 293 293 293 293 293 292 291 294 294 292 293 294 293 295 294 296 295 297 297 297
317 318 318 314 310 311 309 305 304 301 299 298 296 295 295 295 296 296 294 294 293 293 291 291 291 291 292 292 289 289 287 290 292 293 292 293 291 293 294 295 295 295 295
313 314 315 312 311 310 308 306 303 302 300 297 295 293 293 294 294 294 293 292 292 291 290 289 289 289 288 290 290 289 286 284 288 290 290 290 291 291 292 293 294 294 292
309 310 311 311 310 308 307 304 302 299 297 297 296 293 292 293 293 293 292 291 290 290 288 288 290 288 288 286 289 292 289 288 284 283 287 289 288 290 290 291 292 292 291
307 307 308 308 308 306 304 302 300 299 298 297 294 291 290 290 291 291 290 289 289 289 287 287 287 286 287 286 287 287 286 286 286 284 282 284 288 289 291 290 289 290 290
303 303 304 305 303 303 302 300 300 297 295 293 291 290 290 289 289 289 289 288 287 287 287 287 286 285 285 285 285 285 286 284 284 283 282 283 283 286 287 289 288 289 289

GFSSE_sfc_thetae_003.txt.gz
Theta_e
334 341 357 355 353 351 348 345 343 341 340 339 339 342 341 341 340 339 339 337 337 336 333 335 338 339 342 342 341 339 337 334 332 333 333 333 334 337 336 336 339 333 336
338 346 358 356 353 351 348 345 343 340 340 338 337 339 337 335 335 336 338 337 334 335 332 333 334 333 335 337 337 337 337 336 333 333 333 333 334 335 336 339 334 331 338
342 349 353 357 354 351 349 345 343 340 338 338 335 335 336 335 337 337 338 337 336 334 331 330 331 331 332 333 334 335 336 335 334 333 334 327 326 333 336 338 334 334 336
346 349 349 356 353 352 349 345 343 341 338 337 337 337 337 338 339 336 336 333 333 334 331 330 330 330 329 331 333 334 335 334 334 336 327 326 327 333 337 336 336 336 336
345 348 349 355 354 353 349 346 344 342 339 336 336 335 337 338 339 340 335 336 336 335 332 331 331 332 333 333 332 331 331 332 337 334 325 324 324 329 336 336 337 336 337
343 345 351 355 355 353 350 346 344 342 339 336 336 336 336 340 342 341 341 342 340 337 333 332 332 333 334 335 337 338 337 335 336 327 325 325 325 331 335 335 335 336 335
340 344 351 356 356 354 350 347 344 342 340 337 335 337 337 339 340 343 343 340 338 336 333 333 334 335 335 334 336 337 338 339 331 325 323 322 320 332 334 335 336 336 335
340 345 351 354 354 353 351 349 347 343 341 337 338 338 339 337 339 341 341 340 338 336 335 335 336 337 337 336 336 336 338 338 332 326 324 323 327 335 336 335 336 336 337
342 346 348 350 351 350 349 348 347 346 344 341 341 339 339 339 336 338 342 340 339 337 337 337 338 337 336 337 337 338 339 337 331 327 327 325 331 337 339 338 338 337 338
343 346 346 347 346 345 345 348 347 346 345 344 342 340 340 338 339 337 342 339 339 339 339 338 337 338 339 339 338 339 338 336 329 326 326 327 335 339 340 340 340 340 339
343 344 345 345 344 343 343 344 345 345 344 343 340 338 335 327 326 330 335 337 338 339 338 339 339 340 340 339 338 337 335 327 324 324 325 331 336 339 340 341 341 341 341
338 339 343 341 340 339 343 339 337 339 338 336 333 330 328 325 324 327 330 335 338 339 339 338 339 338 332 328 327 328 324 322 321 323 325 332 337 339 338 339 341 341 341
335 336 339 339 338 338 337 334 334 333 333 331 330 328 327 325 322 324 323 324 324 328 328 329 327 324 319 318 317 315 315 316 317 320 324 331 332 332 332 335 338 340 341
326 332 336 336 336 336 334 333 332 330 330 328 329 328 325 322 322 323 324 326 327 326 326 320 312 309 307 307 306 306 307 309 310 314 317 324 327 329 331 332 332 335 340
323 329 332 334 335 335 332 331 330 329 329 328 328 327 324 324 323 324 325 320 314 313 309 305 304 302 302 302 302 302 302 304 304 307 310 319 324 323 324 326 330 331 329
315 327 330 332 334 332 330 329 327 326 327 325 324 324 327 326 320 308 309 311 309 305 304 301 299 298 298 298 298 298 298 297 300 302 306 305 317 316 320 325 321 321 321
318 326 330 332 333 331 329 329 327 326 328 326 324 323 321 313 310 309 308 306 303 301 299 297 296 297 296 296 294 296 297 295 298 299 300 300 304 311 315 315 315 316 318
318 326 329 335 332 331 330 329 324 322 314 311 311 311 310 309 308 304 302 301 298 297 297 295 294 294 294 293 292 295 295 294 297 294 295 297 300 299 305 309 311 311 315
316 322 327 332 331 329 322 315 312 310 309 308 308 307 305 305 303 299 299 298 296 295 294 294 293 292 292 292 294 295 293 293 295 293 292 294 297 294 297 302 305 306 309
315 316 325 330 325 314 310 309 307 306 304 304 303 302 300 299 298 296 296 296 295 294 293 292 291 291 292 291 294 294 291 294 292 290 291 293 292 291 295 293 294 296 305
314 314 323 319 311 311 309 307 305 302 301 299 299 297 296 296 296 295 294 294 293 292 290 290 290 290 290 291 289 290 291 292 291 290 291 290 290 292 292 293 294 294 294
314 315 315 310 310 311 310 304 304 302 299 295 294 294 294 295 295 294 293 292 291 290 289 288 289 288 288 290 288 287 286 288 290 291 289 291 289 291 291 292 293 293 292
313 314 309 308 308 308 305 304 302 300 297 293 292 292 292 293 293 293 291 291 290 289 288 287 287 286 285 287 288 286 282 282 285 287 288 288 289 288 289 290 292 292 291
312 312 309 309 308 306 306 304 301 296 294 294 292 291 291 292 291 291 290 289 288 288 286 286 288 286 285 284 286 289 287 286 282 281 285 287 286 288 286 287 290 290 290
309 310 309 309 307 304 302 302 299 297 296 294 290 289 289 289 290 290 289 288 287 287 286 285 284 284 285 284 284 284 284 284 284 282 279 282 286 286 287 287 288 289 288
306 308 308 307 304 303 301 299 299 297 294 291 289 288 288 288 288 288 288 286 286 285 285 285 284 283 283 283 283 283 283 282 281 280 280 281 280 283 284 286 287 287 287

GFSSE_sfc_thetae_006.txt.gz
Theta_e
332 339 357 354 353 350 349 345 343 341 340 339 339 341 342 344 342 341 338 337 337 335 334 336 339 340 343 343 342 340 338 335 334 334 334 333 333 335 337 337 336 334 334
334 340 357 356 354 351 348 345 343 341 341 338 338 339 339 337 337 337 338 337 335 334 332 332 334 334 335 337 338 337 337 337 335 334 334 333 331 333 335 336 338 331 334
336 343 352 356 354 351 348 345 343 340 341 337 337 338 336 336 337 336 337 336 335 333 332 331 331 330 332 334 334 335 335 335 335 335 335 326 325 332 335 336 335 333 335
342 348 350 356 353 351 348 346 343 340 338 337 336 336 337 335 338 335 338 333 332 333 332 330 331 331 330 329 330 332 333 333 335 336 327 326 326 333 335 336 336 335 335
344 348 349 356 354 352 348 346 344 341 338 337 337 335 337 338 340 339 335 335 335 334 332 331 331 332 334 334 334 334 333 332 336 332 325 323 323 330 335 335 336 337 335
343 344 351 354 354 353 350 346 344 342 339 337 337 336 336 339 340 341 342 342 341 336 333 332 332 332 333 334 336 337 339 337 338 324 324 324 325 330 333 335 335 334 336
340 343 349 355 354 353 350 347 344 342 340 337 336 336 337 339 340 343 342 340 338 336 333 333 334 335 335 336 335 336 337 339 330 325 324 323 322 333 335 334 335 335 335
340 344 348 353 354 353 351 348 346 343 340 337 336 337 337 337 340 343 343 340 338 335 336 335 337 337 337 336 337 337 338 338 332 326 325 324 328 337 338 338 337 337 337
340 344 347 349 351 351 349 348 347 345 342 339 340 339 340 339 336 339 342 340 338 337 337 338 338 337 337 338 338 339 340 338 331 327 327 326 331 337 339 339 340 339 339
339 343 344 345 346 344 343 347 346 345 344 343 342 340 339 339 338 337 341 339 338 337 338 338 338 339 339 339 339 339 338 335 326 325 325 325 334 339 341 341 342 342 341
341 342 346 346 345 341 342 343 345 344 343 342 339 337 334 326 325 327 334 336 337 338 338 339 340 340 335 333 333 332 329 323 320 321 322 329 336 339 339 339 340 341 341
337 340 344 342 342 339 344 340 338 339 337 336 333 329 326 323 322 326 328 333 336 335 334 336 335 329 322 319 317 317 313 314 314 316 321 330 332 333 333 333 336 338 337
335 339 341 341 341 337 338 335 334 334 333 332 330 327 326 323 321 323 322 323 323 327 329 324 312 309 306 306 306 305 305 307 307 310 315 324 327 329 330 331 332 334 337
328 334 338 340 338 336 334 333 332 331 330 328 328 326 325 321 321 321 324 325 323 325 308 306 304 302 301 300 299 299 300 300 300 304 309 320 323 324 327 329 331 331 329
322 327 333 336 336 335 332 331 330 329 329 328 327 327 325 322 322 322 318 313 310 306 303 300 298 298 296 297 296 297 297 295 297 301 303 315 317 321 326 323 323 323 324
313 322 330 334 335 334 332 329 329 328 328 325 325 325 326 328 316 311 310 307 305 302 298 296 295 295 294 293 293 294 295 293 297 295 298 300 310 315 316 317 318 318 321
308 312 327 332 334 333 332 330 329 329 327 327 327 329 326 313 310 309 306 302 298 297 295 294 293 294 292 293 290 293 294 292 293 293 294 297 299 306 309 312 313 314 316
312 319 326 333 332 331 329 328 328 327 321 316 315 314 311 309 307 304 300 297 295 294 294 293 292 292 291 290 289 291 292 293 291 290 292 295 294 295 300 306 307 309 311
313 321 326 329 330 329 324 319 317 312 313 310 309 308 306 302 302 300 296 294 294 293 292 292 291 290 290 290 291 292 291 291 290 291 290 292 291 292 293 299 302 303 305
314 321 327 329 327 316 313 311 309 307 305 305 304 302 301 298 297 296 294 293 293 292 290 289 289 289 290 289 292 292 290 293 290 288 290 291 289 291 291 291 291 293 302
313 320 326 323 315 312 312 309 307 304 301 300 299 299 298 295 295 294 293 292 291 290 288 288 288 287 287 289 287 288 290 290 290 290 288 289 288 289 290 289 291 291 292
311 317 320 317 312 313 314 309 305 302 298 297 297 296 294 294 294 293 292 290 289 288 287 286 286 286 286 287 285 285 283 286 287 289 287 288 286 289 289 290 290 290 290
310 313 313 311 312 311 305 301 299 298 296 295 294 292 292 292 292 291 290 289 288 287 286 285 285 285 284 285 286 284 280 279 283 286 286 286 286 286 287 287 288 289 290
310 310 308 308 310 307 306 303 299 296 295 294 290 290 290 291 290 290 289 288 287 287 285 285 286 284 284 282 284 287 284 284 280 280 283 285 284 286 284 284 286 287 289
310 306 307 308 308 306 307 304 301 297 295 291 289 288 288 288 289 289 288 287 286 286 284 284 283 282 283 283 282 282 282 282 282 280 277 280 283 284 284 283 284 285 286
308 306 307 308 306 305 304 302 300 297 292 289 287 287 287 287 287 287 287 285 285 284 284 283 283 282 282 282 282 282 282 280 280 279 277 279 279 281 283 284 283 284 286

GFSSE_sfc_thetae_009.txt.gz
Theta_e
338 345 357 354 352 350 348 346 343 342 341 339 340 342 344 346 344 341 339 336 336 335 334 337 338 339 343 344 343 342 339 337 337 336 335 334 332 333 336 337 337 335 337
340 346 357 355 353 351 348 346 343 342 340 338 339 342 342 342 340 340 339 337 335 334 333 332 335 335 336 338 339 339 338 337 335 335 335 333 331 332 334 336 338 333 334
341 348 353 356 354 351 347 346 343 342 339 337 340 338 336 336 336 336 337 335 335 333 333 332 332 331 332 334 334 334 335 334 334 334 334 332 331 333 335 335 336 333 333
343 348 353 356 354 351 348 346 343 341 341 337 337 337 336 336 338 336 338 336 333 334 333 331 332 333 331 330 330 330 331 331 332 335 333 332 331 332 334 337 335 337 335
343 348 352 355 354 352 348 346 343 341 338 337 338 337 337 337 339 337 337 335 333 335 333 332 332 333 334 335 335 336 336 335 334 333 332 332 332 330 334 335 336 338 335
345 350 353 354 354 352 350 346 345 341 338 337 337 336 336 338 340 340 341 342 340 336 333 332 333 334 334 335 335 336 337 338 338 335 335 334 334 332 334 332 335 336 335
344 350 352 354 354 353 350 347 345 342 340 337 337 336 336 339 341 343 341 340 338 336 333 334 336 337 337 337 337 336 336 339 336 335 335 335 334 335 338 337 335 336 337
345 349 351 352 353 353 351 349 346 343 340 337 336 336 336 338 340 343 342 340 339 336 337 336 338 338 337 337 338 338 338 339 335 335 335 334 333 337 339 339 339 338 338
346 348 350 350 351 350 349 348 347 344 342 339 339 339 340 339 338 342 342 340 338 338 337 338 339 339 339 340 340 339 338 337 336 335 333 334 332 337 340 341 341 342 341
344 347 349 351 351 350 348 347 346 344 344 342 342 340 339 338 337 338 340 340 338 338 338 338 340 341 339 337 336 334 331 329 327 328 329 331 334 339 340 340 340 341 342
341 345 345 348 349 349 347 344 344 343 342 341 339 337 335 334 332 333 334 336 337 338 338 339 337 332 328 324 323 322 322 321 319 321 324 329 334 337 337 336 335 338 339
338 341 345 346 347 347 345 345 344 342 342 341 338 337 334 331 329 330 330 333 334 333 335 331 323 318 316 314 314 314 313 314 314 314 318 325 328 330 332 332 333 334 336
338 340 342 343 343 344 345 344 342 343 342 340 337 335 333 331 332 332 333 333 333 331 320 316 313 311 309 308 308 308 309 307 308 313 316 324 326 327 328 329 332 333 331
335 340 341 342 341 342 344 343 341 340 340 338 337 334 333 330 331 332 333 330 325 313 313 310 308 306 304 303 304 305 304 305 309 312 313 319 321 326 329 327 326 325 327
328 337 341 342 340 341 342 341 340 338 338 338 335 334 333 330 332 328 314 312 310 310 307 305 305 303 301 301 301 303 302 305 304 308 309 315 319 320 321 321 320 322 324
325 329 337 341 339 340 340 338 339 336 336 336 334 334 332 330 322 314 310 308 308 305 303 303 302 301 299 299 299 301 301 302 302 302 305 305 311 313 315 316 316 318 318
315 317 328 337 341 341 340 338 337 335 334 333 332 331 330 318 313 310 307 304 303 302 301 301 300 301 298 298 298 299 300 301 300 301 302 302 303 305 309 310 310 311 313
314 315 319 331 337 339 338 337 335 333 330 328 327 323 314 311 310 305 302 301 301 300 300 299 298 299 298 297 297 298 299 302 298 299 300 300 301 300 301 304 305 306 308
314 317 324 332 335 336 334 332 328 323 321 318 315 311 309 307 306 302 301 300 299 298 298 297 296 297 296 296 296 298 298 301 298 298 298 299 298 298 298 299 300 300 302
315 319 328 332 334 330 325 316 313 311 308 309 307 305 303 303 302 300 299 298 298 297 296 296 295 295 295 294 294 295 299 302 299 298 296 298 296 297 297 296 296 296 298
318 322 329 329 325 321 318 312 310 306 304 302 302 301 300 299 300 299 298 297 296 295 294 294 295 293 293 294 293 295 296 297 299 300 296 297 294 295 295 295 294 294 295
317 323 327 327 320 321 319 318 312 305 301 300 299 298 298 299 299 298 297 295 295 294 293 293 293 293 292 293 290 291 289 293 295 294 295 295 293 294 293 293 293 293 293
316 321 324 320 319 319 313 308 301 299 298 297 296 296 296 298 297 296 295 294 294 294 292 292 292 291 290 291 291 290 287 286 288 292 293 294 292 291 291 292 291 292 292
316 320 319 316 318 312 311 307 304 304 300 298 296 295 295 296 295 294 294 293 293 292 291 291 291 291 291 288 291 290 290 289 285 284 290 290 291 289 290 290 290 290 291
315 316 315 314 313 309 309 309 304 300 299 295 294 294 293 293 294 293 293 292 291 291 290 290 290 290 290 289 288 288 288 288 289 286 282 286 288 289 289 289 289 290 290
314 312 312 312 311 309 308 306 303 297 295 293 293 292 292 292 292 291 291 291 290 290 290 290 289 289 289 288 288 288 287 286 285 284 283 284 284 286 287 288 289 289 290

GFSSE_sfc_thetae_012.txt.gz
Theta_e
340 352 358 353 352 350 348 346 344 343 341 340 342 344 346 346 344 342 339 339 337 335 334 335 338 340 344 344 344 341 339 338 337 336 336 334 331 333 335 336 339 338 335
344 351 357 354 352 350 348 345 344 342 340 339 341 343 345 345 343 341 340 338 336 335 333 332 335 336 338 339 339 339 338 337 336 335 335 331 330 333 334 336 337 336 331
344 350 354 355 354 351 348 345 344 342 339 339 340 338 336 338 337 339 338 336 334 334 333 333 333 333 333 334 335 335 334 334 334 334 334 332 330 332 335 335 336 334 332
345 351 350 356 354 350 348 346 343 343 338 340 340 337 336 337 338 336 337 337 334 334 333 332 333 335 333 333 333 332 332 332 332 333 330 327 329 330 334 335 336 337 335
346 351 351 356 354 351 348 346 343 342 339 338 338 337 337 338 336 339 337 335 335 335 333 333 333 334 334 335 336 337 337 336 334 334 333 333 333 328 332 334 337 337 338
345 350 354 354 354 352 349 346 343 341 339 338 338 336 336 338 339 337 336 339 338 335 333 334 334 335 336 336 336 336 337 338 337 335 335 335 335 334 336 336 334 335 337
344 349 353 355 354 352 349 346 345 341 339 338 337 336 337 340 342 342 340 339 338 335 334 335 337 337 337 337 337 337 337 337 335 336 337 337 337 335 338 339 339 337 337
344 348 350 353 353 352 350 348 346 343 340 337 338 336 336 339 341 343 341 339 338 336 337 337 338 338 338 339 339 340 339 338 336 337 338 338 336 337 339 341 341 342 340
345 347 348 351 350 350 349 348 347 343 342 339 337 337 339 339 339 343 343 340 338 338 338 339 339 340 341 340 340 338 335 334 335 335 334 335 334 338 340 340 342 342 343
344 346 346 347 346 349 348 347 346 345 343 342 342 340 339 338 337 341 341 340 338 338 338 340 341 337 336 333 330 325 325 328 327 327 328 331 334 339 339 339 338 338 340
342 345 346 346 347 349 347 344 344 343 341 340 339 337 334 336 334 333 334 336 337 338 338 337 330 325 322 322 320 318 322 323 322 322 322 326 329 332 334 333 333 334 336
339 342 346 347 348 348 345 345 342 339 341 339 338 338 336 333 330 333 333 334 334 334 331 325 320 316 323 321 320 317 317 315 315 315 318 324 327 329 330 330 331 334 333
339 342 345 346 348 347 346 344 342 340 341 341 339 339 334 332 333 334 335 335 338 332 328 325 322 318 315 313 312 312 311 310 311 314 318 322 325 326 328 331 328 328 330
337 341 344 346 346 347 346 344 342 340 341 340 339 338 334 332 334 334 336 337 332 324 322 320 318 313 310 308 307 308 308 309 311 314 316 321 325 326 327 325 324 326 325
334 339 343 344 344 345 345 344 342 340 340 340 339 338 335 334 335 335 325 321 319 319 317 315 312 308 307 306 305 306 306 307 308 312 314 317 318 320 320 320 323 321 321
331 334 341 344 345 345 345 344 343 341 340 340 340 336 336 336 335 324 314 313 315 313 310 308 307 306 305 304 303 304 304 306 308 309 310 310 311 313 313 314 314 315 316
324 328 333 341 345 341 344 345 343 341 340 339 338 337 337 334 324 316 309 309 310 308 306 306 306 306 304 303 303 303 304 305 306 307 307 307 306 306 308 308 309 309 310
322 322 323 329 340 343 346 344 343 341 340 338 338 337 329 320 314 309 309 308 307 306 306 304 303 303 302 302 302 303 303 305 304 304 304 304 304 303 302 303 304 305 306
322 322 322 325 330 338 342 342 342 340 338 333 331 324 318 314 308 306 307 306 305 304 303 302 301 301 300 301 300 301 303 304 303 302 303 303 302 302 301 300 300 299 300
322 322 323 327 331 336 339 339 339 333 327 324 321 316 311 309 309 308 306 304 304 302 301 301 299 300 299 299 298 300 305 306 303 304 303 302 301 300 300 299 299 299 299
321 322 324 329 334 336 334 330 323 319 315 312 309 307 305 304 305 307 305 303 303 301 299 299 299 298 297 298 298 301 302 302 304 304 300 301 299 298 298 298 298 297 297
320 323 326 331 334 335 333 332 328 321 315 311 303 302 301 302 304 305 304 302 301 300 299 298 298 298 297 297 294 296 295 298 300 300 300 298 297 297 297 296 296 296 296
320 323 327 331 332 332 332 329 321 311 306 300 298 298 299 301 302 303 302 301 300 300 298 297 297 296 295 296 295 294 292 292 292 298 297 297 296 295 295 296 295 295 295
319 324 329 331 330 331 329 319 314 314 310 302 299 297 298 300 302 301 300 300 299 298 297 296 295 295 296 293 296 293 294 292 289 289 295 295 295 293 294 294 294 294 294
319 323 329 329 328 327 321 320 321 317 311 301 297 296 297 300 300 299 299 298 297 297 296 295 295 295 295 294 293 292 293 292 292 289 287 291 293 294 294 293 293 293 293
319 323 327 326 326 321 319 322 320 313 301 295 296 295 297 299 298 297 297 297 296 296 295 295 295 294 294 294 293 292 291 290 289 289 288 289 289 291 293 293 292 292 293

GFSSE_sfc_thetae_015.txt.gz
Theta_e
342 352 357 353 351 349 348 346 345 343 342 342 344 347 347 346 344 341 340 339 337 336 335 335 340 341 344 346 344 342 340 340 338 338 336 332 331 335 336 338 339 339 339
346 354 356 354 351 349 347 345 344 342 340 340 341 343 346 345 343 342 340 338 337 336 334 335 336 337 339 340 339 339 339 338 336 336 336 334 331 335 336 335 338 337 333
347 352 352 355 353 350 347 345 343 341 339 342 341 340 342 340 340 340 338 337 336 335 334 334 335 334 334 334 334 334 334 334 334 335 335 332 330 332 335 335 337 337 334
347 351 350 355 353 350 347 345 344 339 340 341 340 337 337 338 337 338 338 336 337 335 334 334 335 336 336 336 337 337 336 335 333 334 332 327 327 333 332 336 338 335 337
346 350 352 355 354 351 348 345 344 340 338 340 338 337 336 338 336 338 337 336 337 334 334 335 336 336 336 336 336 337 339 339 337 337 334 335 334 335 334 333 334 336 338
346 349 352 354 353 352 348 345 343 341 338 338 338 338 338 337 337 338 337 338 338 335 335 336 337 337 337 337 337 337 337 338 336 335 335 336 335 337 338 338 337 336 335
344 351 351 354 353 352 349 345 343 341 339 339 338 337 340 341 341 342 339 339 338 336 336 336 338 338 338 337 338 339 338 338 337 337 336 337 338 338 339 339 340 341 339
343 348 350 352 352 352 349 347 344 341 340 339 338 337 339 339 343 343 341 340 338 338 337 338 339 339 339 341 341 340 339 338 335 335 336 336 337 337 339 340 341 343 342
343 345 350 350 350 349 349 348 346 343 341 340 339 337 341 339 343 344 342 340 339 338 338 339 341 342 340 339 336 333 331 332 330 330 330 331 335 338 339 338 341 340 340
342 344 345 348 350 347 347 347 345 345 343 341 341 341 340 339 341 343 343 341 339 338 339 340 337 336 332 328 325 323 325 329 326 325 325 326 330 334 337 336 335 335 336
340 343 344 344 344 346 346 344 344 343 341 341 339 337 334 334 334 334 335 338 338 338 338 332 327 322 323 323 319 319 322 321 319 319 320 326 327 330 332 332 332 333 336
337 340 343 343 343 346 345 344 342 339 337 334 335 335 334 332 331 333 333 336 336 336 330 325 319 319 324 322 319 320 315 313 313 315 319 324 327 328 328 333 332 331 334
337 340 342 344 345 344 342 344 340 339 339 338 337 337 332 329 329 332 333 332 334 332 329 324 323 319 316 313 313 311 312 311 311 314 318 324 327 328 331 328 328 329 328
335 339 342 345 346 347 345 343 341 338 339 338 337 337 332 330 333 331 332 335 333 329 325 322 320 316 312 309 308 308 308 308 310 312 316 321 325 326 326 326 325 324 324
331 337 341 344 345 346 345 344 341 338 338 339 338 337 333 331 332 332 332 328 325 322 319 317 313 310 308 307 307 306 306 306 308 310 313 317 318 319 319 319 319 319 319
330 334 339 342 345 344 344 344 342 340 339 339 338 338 334 334 334 329 325 322 320 317 313 310 308 308 307 306 305 305 305 306 306 308 310 309 312 312 313 313 312 312 313
325 330 334 339 343 344 343 344 342 341 339 338 338 337 334 335 332 325 318 316 315 311 309 308 307 307 306 305 304 304 304 305 305 307 307 309 307 307 307 308 308 308 309
324 324 329 334 340 342 341 344 343 341 339 338 337 335 335 333 327 320 316 314 311 309 308 306 304 304 304 303 303 303 304 304 304 304 305 305 305 304 305 303 303 304 305
324 324 324 326 332 339 342 345 343 341 338 338 338 337 333 324 317 311 311 310 309 307 305 303 303 302 301 302 301 302 304 304 304 302 303 303 303 303 303 304 302 302 301
323 324 324 325 325 333 341 342 341 338 338 337 336 329 322 315 310 312 311 308 307 305 304 303 302 302 300 299 299 301 305 305 305 304 303 302 301 301 301 301 300 300 302
322 322 323 323 327 329 335 339 336 333 333 331 324 319 315 311 311 311 309 307 306 304 302 302 301 300 299 299 301 301 303 302 304 304 304 301 301 300 299 299 298 298 298
320 322 322 324 327 331 338 338 334 331 326 322 315 309 306 306 307 308 308 306 304 303 301 301 301 300 299 298 295 299 297 299 300 300 301 300 298 299 298 297 297 297 297
320 322 322 325 329 334 337 334 328 322 312 310 307 304 302 303 305 306 306 304 304 304 301 300 300 298 297 298 296 294 293 293 293 299 299 298 298 297 297 297 296 296 296
320 324 324 327 330 334 336 331 325 316 311 311 305 301 300 302 302 304 304 303 302 301 300 298 298 297 298 295 297 294 294 293 289 289 297 297 297 294 296 296 295 295 295
318 323 326 327 330 332 332 333 325 319 320 310 302 299 299 299 301 302 302 302 300 300 299 298 297 296 296 295 294 293 293 294 293 290 288 292 294 295 296 295 294 294 294
317 323 326 327 329 332 332 328 321 323 311 303 299 296 297 298 299 301 301 300 299 298 297 297 297 296 295 294 294 293 292 290 290 290 288 289 289 292 294 294 293 293 293

GFSSE_sfc_thetae_018.txt.gz
Theta_e
344 351 356 352 351 349 348 347 346 344 344 345 348 349 348 346 344 343 342 340 338 337 335 339 341 342 346 346 345 343 341 340 339 337 334 331 333 336 337 339 339 337 338
347 350 355 353 351 349 347 346 344 342 342 342 344 346 348 346 344 343 339 338 337 335 336 337 338 338 339 340 339 338 337 336 336 335 336 336 336 336 337 337 337 336 335
347 350 350 353 352 349 347 345 343 340 343 344 345 346 345 344 343 339 338 337 336 335 336 336 337 337 337 337 337 335 334 333 332 333 337 330 329 334 335 336 338 335 336
349 348 348 354 353 349 346 345 342 340 343 341 339 340 339 339 339 339 339 338 335 335 335 336 336 336 336 337 337 338 339 337 336 338 332 329 330 334 331 333 335 336 336
346 346 349 354 353 350 347 345 341 341 342 343 340 340 340 339 339 339 339 339 336 335 336 337 337 337 338 337 337 336 339 339 340 338 332 328 328 337 338 337 335 335 336
345 347 351 353 352 351 348 345 344 339 341 340 341 341 339 339 339 339 339 339 337 336 337 338 339 338 338 338 337 338 338 338 339 329 329 333 333 339 339 337 337 338 336
344 347 350 354 352 351 348 345 344 340 339 340 340 342 343 342 341 339 341 340 338 338 338 339 340 340 339 339 340 340 339 339 334 333 332 333 336 340 339 338 341 342 342
345 346 348 351 352 351 349 347 345 342 340 340 339 339 341 340 342 343 341 340 339 339 338 340 340 340 342 341 340 338 337 337 331 329 327 330 337 338 339 337 341 341 341
344 346 346 346 348 349 348 347 345 344 343 342 342 341 341 342 347 344 342 341 341 339 340 342 341 340 339 336 332 328 329 330 324 321 324 323 334 335 338 337 337 336 336
338 345 345 346 346 344 344 346 345 344 343 342 342 343 339 340 344 344 343 342 339 339 340 338 337 334 331 327 323 322 325 326 318 316 319 322 328 330 332 334 334 334 337
336 338 344 345 344 344 342 343 343 343 341 340 340 338 336 331 336 338 337 338 340 339 337 332 327 324 326 327 325 323 323 309 307 310 317 326 327 328 329 332 334 335 336
331 335 337 343 343 342 344 340 337 337 334 332 333 332 330 328 328 332 332 337 338 337 333 327 323 326 324 313 312 316 306 304 305 309 317 326 325 324 334 331 333 332 331
332 334 336 337 340 342 342 339 337 335 331 329 330 330 328 326 326 328 328 330 330 329 323 322 317 312 308 306 304 303 303 303 302 312 321 328 331 332 328 330 328 327 328
331 334 336 338 340 341 342 339 336 335 335 332 332 331 323 323 322 324 328 329 330 326 318 314 312 307 304 302 300 300 300 300 301 310 317 324 325 325 327 325 323 322 322
328 332 336 338 339 341 340 340 335 335 334 333 331 332 326 325 325 325 325 322 318 314 311 308 304 302 301 301 299 298 299 299 299 308 308 319 319 319 319 318 317 317 316
322 329 335 338 341 340 340 340 337 334 333 333 333 333 328 327 326 322 318 317 312 308 304 302 300 300 299 298 298 297 297 298 299 302 305 309 313 312 312 312 312 312 313
318 327 331 337 341 340 340 341 339 336 336 333 335 334 328 330 325 318 313 312 307 303 303 301 299 299 298 299 297 298 297 297 298 300 302 302 305 310 308 307 308 308 309
317 320 329 336 338 340 340 341 340 337 335 334 334 332 331 327 320 313 310 307 304 303 301 298 297 297 296 296 295 294 296 297 297 298 298 298 298 300 304 304 304 305 305
317 317 321 332 335 338 338 340 340 338 336 334 334 332 330 323 317 312 308 304 303 301 299 298 296 295 294 294 295 294 297 297 296 299 296 297 297 296 296 302 303 304 303
314 316 317 320 329 335 338 338 338 337 335 335 334 331 320 314 308 306 307 303 302 299 297 296 295 295 294 293 296 296 297 298 296 296 296 298 295 295 294 294 293 294 302
312 313 316 317 318 326 336 335 336 332 332 331 324 320 313 309 307 306 305 301 300 297 295 296 295 294 293 292 293 293 294 296 297 297 297 294 294 293 293 292 292 292 292
312 311 314 316 318 320 331 337 335 332 330 322 317 312 308 307 307 306 304 300 298 296 296 295 294 294 293 292 289 290 289 292 293 294 293 294 291 292 292 292 291 291 290
312 312 315 316 318 322 325 333 326 317 314 310 306 302 302 302 303 305 303 300 298 297 295 294 293 292 291 291 290 289 286 286 286 291 291 291 291 290 290 291 292 291 290
312 314 314 316 318 323 333 328 321 319 311 309 306 305 299 300 301 303 302 300 297 296 294 293 294 292 292 289 291 292 288 287 284 283 289 289 290 290 289 289 290 290 290
305 312 315 316 320 327 332 327 321 313 314 306 302 301 298 301 301 301 301 299 295 295 292 292 292 290 290 289 289 288 287 287 287 284 282 285 288 289 289 289 288 289 289
304 307 315 316 320 326 331 327 321 314 311 300 299 298 299 299 299 298 300 298 294 293 292 292 291 290 290 289 289 288 287 286 285 284 282 282 283 286 287 288 288 288 288

GFSSE_sfc_thetae_021.txt.gz
Theta_e
343 349 356 352 351 349 349 347 346 346 349 350 351 350 348 346 345 343 341 340 338 337 339 341 343 347 347 346 345 342 341 339 337 335 334 332 335 337 337 339 339 337 337
347 350 355 353 351 349 348 346 344 344 347 347 349 349 347 345 345 342 339 338 336 336 337 339 340 340 341 340 339 338 337 334 333 333 335 333 338 336 338 338 337 334 334
347 349 349 353 352 349 346 344 343 342 343 344 346 349 347 345 342 340 338 336 335 336 337 338 338 339 339 338 337 336 335 333 332 333 336 328 328 334 335 337 336 334 335
348 348 347 353 352 348 346 344 342 345 342 344 345 345 343 343 341 339 338 336 336 336 336 336 336 336 336 337 338 339 339 337 337 339 332 328 329 335 332 331 334 336 337
346 347 348 353 351 348 346 343 343 344 341 343 343 343 341 340 341 340 340 337 336 337 337 338 338 338 337 337 337 337 337 337 339 335 329 326 330 337 338 337 335 334 334
344 345 350 352 351 350 348 344 343 343 341 341 342 343 342 341 341 340 340 338 337 338 339 339 339 338 338 338 339 338 338 338 339 331 329 336 332 340 339 337 338 339 339
343 347 349 353 352 350 349 347 343 344 341 342 343 342 341 341 342 341 341 339 338 338 339 340 340 340 340 341 340 340 339 339 332 327 334 333 334 340 338 335 340 342 342
343 346 348 351 351 350 348 348 345 344 344 341 342 343 342 343 342 342 341 340 340 338 340 341 341 342 342 341 338 336 335 334 327 322 326 327 337 337 337 333 339 338 337
345 345 347 347 348 348 347 346 345 344 344 344 343 343 341 345 346 343 342 341 340 339 342 342 342 340 338 335 329 325 328 329 319 320 322 321 333 331 333 334 334 334 338
343 344 343 344 345 344 343 345 343 343 343 343 343 342 339 343 344 344 343 343 339 340 341 339 338 336 332 327 323 325 326 321 310 317 318 322 329 328 329 330 332 337 337
342 342 343 343 342 342 341 342 343 342 341 341 341 338 335 335 338 339 338 339 341 340 338 335 332 328 328 328 326 325 317 303 306 314 317 328 324 326 335 335 336 335 334
337 341 342 342 341 341 343 339 336 338 334 333 334 332 330 328 332 335 333 337 340 339 335 331 327 326 320 311 307 310 303 301 307 314 321 332 327 334 333 332 331 331 331
330 340 342 342 342 341 340 338 334 332 329 329 330 329 327 325 328 328 329 331 330 330 325 322 316 309 305 302 300 299 300 300 309 314 325 332 331 329 330 328 327 326 326
329 333 337 342 341 340 339 337 335 332 329 326 327 328 322 321 324 324 325 326 326 325 318 313 307 301 300 299 298 297 298 298 307 311 320 326 326 327 325 324 322 320 320
329 332 334 338 339 340 339 337 335 332 332 329 329 329 322 321 319 322 324 325 320 312 308 302 300 299 298 297 296 296 296 296 305 308 311 321 320 319 318 317 316 316 316
328 331 334 336 340 339 339 336 335 333 333 332 330 328 324 324 323 320 317 313 308 304 301 299 298 298 296 296 296 295 295 297 301 304 306 310 315 312 312 312 312 312 312
316 330 334 336 339 338 337 337 337 333 335 333 332 331 325 325 321 316 312 307 303 301 300 298 297 296 296 296 294 294 295 295 296 302 301 302 304 312 309 308 308 309 309
313 322 334 338 339 339 337 338 338 337 333 334 334 333 328 324 318 313 309 303 302 301 298 296 295 295 293 293 292 292 294 295 295 296 298 299 298 300 303 304 305 306 307
312 313 327 337 338 338 338 337 339 336 333 334 333 331 326 321 316 311 306 302 300 298 297 296 294 293 292 292 293 292 296 295 294 297 294 295 296 295 294 303 304 303 304
312 312 318 332 338 338 338 338 336 336 332 332 332 329 322 318 313 308 303 301 299 297 295 295 294 293 291 291 294 295 295 296 295 294 294 296 294 293 292 292 292 293 301
307 308 312 324 334 337 335 333 333 333 331 331 330 322 313 310 308 305 302 299 298 296 294 294 293 292 291 290 290 292 293 294 295 295 295 292 292 292 291 290 290 290 291
308 308 308 315 329 335 335 335 335 332 327 327 320 315 311 309 306 303 301 299 297 295 294 293 294 292 291 290 288 289 287 290 291 292 291 292 289 290 291 291 290 289 289
306 308 310 311 316 333 335 333 322 317 313 310 312 309 308 307 305 302 300 298 298 295 293 292 292 292 290 290 288 289 285 285 285 289 289 289 289 288 288 289 290 290 289
302 307 309 312 314 317 333 331 326 324 319 311 307 304 305 305 303 301 299 298 299 295 292 292 292 290 291 288 290 290 287 286 283 283 287 287 288 288 287 288 288 288 289
301 304 309 310 313 317 331 329 328 324 311 306 303 302 303 302 302 300 299 297 297 296 291 291 290 289 289 289 288 287 287 286 285 283 281 284 286 287 287 287 287 287 288
301 300 306 309 312 324 329 326 326 317 304 302 302 300 302 301 301 301 299 297 296 294 292 291 290 289 289 288 288 288 287 285 284 283 281 281 282 284 286 287 286 286 286

GFSSE_sfc_thetae_024.txt.gz
Theta_e
342 348 355 352 350 350 349 349 351 352 352 352 351 349 347 346 344 342 340 338 337 339 341 344 348 348 346 346 344 342 340 338 335 334 334 335 336 337 338 338 338 337 336
345 349 354 352 350 350 348 347 347 350 351 351 350 348 347 345 343 340 338 337 336 337 339 342 343 345 343 342 339 337 334 333 333 333 334 334 337 336 338 337 337 333 333
346 349 349 353 352 349 346 344 344 346 348 349 349 348 346 344 342 339 336 335 336 337 339 340 341 341 340 338 337 336 335 334 334 334 334 326 326 334 334 336 335 335 334
347 347 346 352 350 347 345 343 344 344 345 346 349 348 346 342 340 337 336 335 336 336 336 337 337 337 337 337 338 339 338 337 338 339 329 328 328 334 331 331 334 336 337
346 346 347 352 350 346 345 343 346 344 346 347 346 345 344 341 340 339 336 336 336 337 337 337 337 336 336 337 337 336 337 337 339 332 327 325 327 337 338 336 334 334 334
343 344 349 351 350 349 346 346 345 341 342 342 343 343 342 341 341 340 337 337 337 338 338 338 338 338 338 338 339 338 338 339 335 328 327 329 331 340 337 335 338 340 340
342 344 347 351 349 347 346 347 346 343 342 342 342 341 341 341 341 341 339 338 338 338 339 340 340 340 340 340 340 339 338 335 325 329 330 333 333 338 337 335 341 340 340
342 345 347 350 350 349 347 345 347 345 343 342 343 342 342 342 342 342 340 339 339 338 341 341 341 342 341 339 337 333 330 331 322 324 323 325 336 335 336 335 336 336 339
344 344 345 346 347 347 347 344 344 345 345 346 346 345 345 345 344 343 340 341 338 340 341 342 342 340 338 334 328 325 328 327 317 320 320 320 333 329 332 333 333 338 338
342 343 344 345 344 342 342 344 343 343 344 343 344 342 340 343 344 344 342 342 339 341 341 340 339 336 331 326 324 327 321 319 314 316 318 320 329 327 329 331 336 338 337
340 342 342 342 342 340 340 340 342 342 342 341 341 337 337 337 338 339 338 340 341 341 339 337 334 329 328 326 324 322 311 304 311 314 316 329 323 335 336 336 335 335 333
336 339 341 341 341 340 342 338 335 336 334 334 334 332 329 333 334 336 334 337 340 340 337 332 327 326 316 307 302 307 299 305 312 317 321 333 334 335 333 332 332 330 329
338 339 340 340 340 339 340 337 334 333 330 331 331 330 327 327 330 330 329 331 331 331 326 320 313 306 301 299 298 297 298 307 311 316 327 333 331 332 330 327 326 326 324
337 338 340 340 339 339 339 337 335 333 329 327 329 328 325 322 325 325 326 326 326 323 317 314 305 299 298 297 295 296 296 305 309 313 322 328 328 327 325 322 320 319 318
330 338 340 340 339 339 337 336 334 332 329 327 326 327 323 322 325 323 323 324 323 321 309 301 299 298 296 295 295 295 295 303 306 309 312 323 322 320 319 317 316 315 315
326 331 339 340 340 339 337 335 333 332 330 326 326 327 322 323 322 322 321 322 312 306 300 298 297 296 295 295 294 294 294 300 304 306 307 311 317 314 313 312 311 311 312
315 330 332 340 340 338 337 335 333 332 332 329 328 327 323 322 321 319 316 310 303 299 298 297 296 295 294 295 292 293 293 294 302 302 302 301 305 314 309 309 309 309 310
311 321 331 337 338 338 337 335 334 333 332 331 330 329 324 324 319 314 309 303 300 299 297 296 295 293 292 291 291 291 293 294 298 298 299 298 299 299 304 305 305 305 306
309 312 327 332 336 337 336 336 334 333 331 331 332 330 325 322 317 312 307 301 300 297 296 296 293 292 291 290 292 292 294 293 293 297 296 294 296 294 293 304 303 303 303
309 309 321 332 335 336 336 335 331 332 331 332 333 332 326 321 315 311 303 300 298 296 295 294 292 291 290 290 294 294 293 294 292 292 292 295 292 292 291 291 290 293 301
305 306 309 327 334 335 333 332 331 331 330 328 332 328 322 318 315 308 302 299 297 296 294 293 292 291 290 289 290 291 292 292 293 293 292 291 291 290 290 290 289 289 290
306 305 305 315 331 335 335 335 332 332 328 329 323 322 319 316 311 306 303 298 297 295 293 293 293 291 290 288 288 289 287 290 290 290 290 290 288 289 289 290 289 289 288
302 304 306 307 324 335 335 332 322 318 316 314 315 316 313 313 308 306 302 299 295 295 294 292 292 292 289 288 287 289 285 286 285 287 288 288 287 287 287 288 288 288 288
300 302 305 307 311 331 333 331 326 325 322 316 318 311 311 309 306 304 301 298 296 296 295 292 293 291 291 288 288 289 286 286 283 283 286 286 287 287 286 286 287 287 287
299 299 302 306 309 320 331 332 327 326 326 311 307 308 307 306 304 302 300 299 297 295 295 294 290 290 289 289 288 287 286 285 284 283 282 284 286 286 286 286 286 285 286
300 300 299 302 306 311 329 330 328 326 310 306 305 304 304 303 302 301 300 299 298 295 294 293 291 289 288 288 288 287 287 285 284 283 281 281 281 284 285 285 285 284 284

GFSSE_sfc_thetae_027.txt.gz
Theta_e
339 346 355 352 352 351 352 353 353 354 354 352 350 349 348 345 343 342 340 338 340 340 343 346 345 346 345 344 344 341 339 335 334 336 336 337 337 338 340 338 338 336 334
344 348 354 351 351 350 351 352 353 354 354 352 350 348 346 344 342 340 338 337 338 339 342 346 347 348 345 342 339 335 332 333 334 334 333 336 337 337 337 336 337 332 334
345 347 347 350 350 349 349 349 350 351 352 351 349 348 346 343 340 338 336 336 337 338 340 341 342 341 340 338 336 335 334 335 335 335 334 325 325 334 334 335 334 334 333
346 346 346 351 349 348 346 346 347 349 350 350 348 347 345 342 338 336 335 336 337 338 339 339 339 338 338 338 338 339 339 338 337 336 327 326 327 334 332 331 334 336 336
345 345 346 352 350 346 345 344 343 344 345 349 348 347 343 341 338 336 336 336 336 336 336 336 336 336 336 337 337 337 338 338 337 331 325 324 325 336 338 336 335 335 334
342 343 349 351 349 348 344 345 346 346 347 348 348 345 343 341 339 337 336 336 337 337 337 337 336 337 337 338 338 338 339 336 330 325 325 326 329 339 337 335 339 341 340
340 342 347 351 348 346 345 348 344 343 344 344 343 343 343 341 341 338 337 337 338 338 339 339 338 339 340 340 339 338 334 330 327 328 329 330 332 337 336 336 340 339 340
341 344 345 348 349 347 346 347 346 344 342 343 344 342 342 341 341 340 338 338 338 338 340 340 340 341 340 338 334 330 329 327 325 322 322 322 333 334 336 336 336 339 341
342 343 343 344 345 346 345 346 345 345 344 344 344 345 344 344 343 341 340 339 338 340 340 340 342 340 337 330 325 325 326 326 318 317 319 318 332 329 331 333 333 338 338
341 342 341 342 343 342 340 343 344 344 344 345 345 343 342 342 343 343 342 342 338 340 342 341 339 336 330 324 324 321 324 322 313 315 316 317 328 327 330 332 338 337 335
339 340 342 342 341 339 339 339 342 343 342 342 342 338 336 336 338 338 337 340 340 341 339 339 335 330 326 325 321 316 311 310 310 313 314 324 329 337 337 336 336 333 332
336 339 342 342 340 338 340 336 334 336 336 334 335 331 332 333 334 336 334 337 340 341 339 334 329 324 311 302 300 305 301 308 313 316 320 331 334 335 334 333 331 329 329
337 338 340 341 340 338 338 335 332 331 330 331 331 329 327 331 331 331 330 331 330 332 326 318 309 304 299 298 297 296 304 309 312 317 326 334 333 331 328 327 325 324 323
335 337 339 340 340 338 338 336 334 332 328 327 329 328 324 324 327 326 326 327 326 323 317 311 302 297 296 295 295 295 301 307 310 313 321 329 328 326 324 321 320 319 318
335 337 338 339 339 338 336 336 334 332 330 328 327 327 325 321 324 324 324 323 323 320 312 304 297 297 295 294 294 294 300 305 308 310 313 323 324 321 320 317 316 316 316
330 337 338 339 339 338 336 335 333 333 331 327 325 326 325 322 322 324 321 321 321 317 302 298 297 295 294 294 293 293 296 304 306 307 307 311 319 316 314 313 313 313 313
320 329 337 337 339 337 336 335 333 332 331 327 326 325 325 321 321 323 320 319 313 304 298 296 295 294 294 293 291 292 293 300 303 304 302 302 306 314 311 310 310 310 310
310 318 331 340 339 338 337 335 334 332 330 328 326 326 325 321 321 319 317 314 302 298 297 296 295 293 292 291 290 290 292 295 299 299 299 297 298 298 305 307 306 305 307
308 310 324 333 338 337 336 335 333 331 330 329 327 326 324 322 319 315 312 305 299 297 296 296 293 292 290 290 291 292 293 291 297 299 296 295 296 293 294 304 304 303 303
306 308 318 330 335 337 336 335 332 331 331 330 329 328 323 322 317 313 305 301 299 296 295 294 292 290 289 290 294 293 291 292 291 293 293 294 293 291 290 290 289 291 301
304 304 307 324 331 334 333 332 330 328 329 328 329 329 324 323 318 312 306 302 300 299 295 293 292 290 289 289 290 291 291 291 291 291 291 291 290 289 289 289 288 288 289
304 304 303 311 328 333 334 333 332 331 330 329 328 327 324 320 317 311 306 302 300 297 294 293 293 290 289 287 288 289 287 289 289 289 289 289 287 288 289 289 288 288 287
301 302 304 304 315 331 334 330 321 320 317 317 318 319 320 319 316 312 307 303 300 298 295 293 293 292 289 287 287 289 285 285 285 287 287 287 286 287 287 288 288 287 286
299 300 302 304 306 321 333 330 325 326 323 325 319 320 315 316 314 311 306 302 299 298 295 294 294 292 291 288 287 288 286 286 284 283 285 286 286 286 285 286 286 286 286
299 298 299 301 305 309 328 332 328 325 327 325 313 314 313 311 311 308 306 302 299 298 297 294 292 291 290 289 288 286 285 285 284 283 282 283 285 285 285 285 285 284 285
296 298 297 298 301 306 320 329 328 326 316 312 309 312 309 307 304 303 304 302 299 298 297 296 293 292 291 289 288 287 286 285 284 283 281 281 281 283 284 284 284 283 283

GFSSE_sfc_thetae_030.txt.gz
Theta_e
334 344 356 353 354 352 354 354 355 356 355 353 352 350 348 346 344 342 340 341 341 343 345 344 346 346 344 344 342 339 337 335 337 337 338 338 338 340 339 338 339 334 335
341 347 355 355 353 352 352 354 355 355 354 352 350 348 346 344 342 340 338 338 339 341 347 347 348 346 345 341 337 333 334 336 336 335 335 335 339 338 338 337 336 332 336
343 347 347 354 353 352 354 353 353 353 354 352 349 347 345 343 340 337 336 337 337 339 344 345 344 342 340 338 335 334 336 337 337 335 333 325 327 335 334 335 335 334 334
345 345 343 351 351 350 351 351 351 352 352 350 349 347 345 342 337 336 337 337 338 340 342 341 340 340 339 338 338 338 339 338 337 335 326 325 327 336 334 333 335 335 336
343 344 343 350 350 348 348 348 349 350 351 350 349 347 344 340 337 337 337 337 337 337 338 338 337 337 337 338 338 339 339 339 335 330 324 323 326 336 338 338 336 337 335
340 341 347 351 350 348 346 345 345 345 347 350 348 345 343 340 337 337 337 337 337 337 337 337 337 337 338 339 339 340 337 334 331 325 323 326 329 339 338 338 342 341 342
338 341 346 350 348 346 345 347 348 346 346 349 348 344 342 340 338 337 337 337 338 338 338 338 339 340 341 340 338 336 333 334 326 326 327 329 330 338 336 339 338 341 342
340 343 344 347 348 347 347 347 346 346 346 345 346 345 343 341 340 338 337 338 338 339 340 340 341 341 340 335 331 329 330 330 323 321 321 320 332 335 336 336 337 340 340
341 342 341 342 344 345 346 346 344 345 345 345 345 345 344 344 342 339 338 338 338 340 340 341 342 339 333 327 327 327 329 326 315 316 318 318 332 330 332 332 339 338 337
340 341 339 339 341 339 340 345 344 344 343 344 344 343 341 341 342 341 341 341 338 340 340 342 340 334 327 325 323 325 325 321 312 313 313 315 329 329 332 339 337 335 334
339 340 339 338 338 337 336 339 342 343 342 342 341 339 337 334 337 337 337 339 340 341 340 339 336 329 325 322 319 317 316 309 310 311 313 326 336 338 338 336 334 332 331
335 338 341 341 338 337 340 337 335 336 335 335 335 332 330 331 333 335 334 337 340 341 339 336 329 321 310 299 300 307 306 309 313 317 321 332 336 336 333 331 330 329 328
335 336 338 339 340 337 337 334 333 331 332 331 332 329 328 331 331 331 330 331 330 331 325 315 306 301 297 297 296 299 307 310 313 316 326 335 332 331 328 327 324 323 322
335 336 338 338 339 338 336 335 332 331 330 330 330 328 325 327 328 327 327 327 326 323 316 309 300 296 295 294 294 298 306 309 311 313 322 330 328 326 324 322 320 319 319
334 336 337 338 338 337 335 336 332 331 330 331 329 328 325 324 326 325 325 324 323 319 313 304 297 295 294 294 293 296 304 307 308 310 313 324 326 322 321 318 317 316 317
334 336 338 338 338 338 337 336 332 331 330 327 326 328 326 323 324 325 323 322 321 318 307 300 296 294 294 293 292 294 302 305 306 306 307 312 321 318 315 315 314 314 314
327 336 336 337 339 337 336 336 333 332 331 328 326 325 326 323 321 323 322 320 319 313 299 296 294 294 293 293 291 292 298 302 304 303 301 302 305 315 313 313 311 311 312
311 324 335 339 339 338 337 336 335 333 331 329 326 325 326 323 322 320 321 320 312 302 297 296 294 293 291 291 289 291 292 299 301 300 298 297 297 298 306 308 307 307 307
307 308 321 336 337 337 337 336 334 332 330 329 326 325 324 323 322 321 320 316 303 298 296 296 293 292 290 289 290 292 291 293 297 299 295 295 296 293 295 305 305 304 304
305 306 309 325 336 337 337 336 334 331 330 328 327 324 324 323 320 319 316 309 300 297 295 294 292 290 290 290 294 292 291 291 293 294 294 293 293 290 290 289 289 291 302
303 303 305 314 327 335 336 333 332 329 329 327 329 327 324 322 319 316 312 307 300 298 297 296 292 290 289 289 291 290 290 290 290 290 290 290 290 289 288 288 288 288 289
303 303 303 306 319 330 334 334 332 332 331 330 329 328 326 322 320 317 312 308 303 300 297 295 292 290 288 288 289 289 287 289 288 288 288 289 287 288 288 288 287 287 286
299 301 303 303 311 326 332 332 323 321 320 322 322 325 324 323 320 316 311 308 304 302 299 296 293 292 288 287 287 290 285 286 286 286 286 286 286 286 286 287 287 286 285
298 299 301 302 304 313 329 330 328 327 325 325 326 327 320 321 319 315 312 310 305 302 300 297 296 293 290 287 287 288 285 287 285 283 285 285 285 286 284 285 285 285 285
296 296 297 300 301 305 319 330 327 326 327 323 325 324 321 318 318 316 312 310 305 304 301 299 296 295 292 289 288 286 285 284 283 283 282 283 285 285 285 285 284 284 284
296 299 297 296 298 301 307 325 328 326 325 316 314 319 317 314 314 313 310 306 305 303 301 299 297 296 294 292 289 288 288 286 284 283 282 281 282 283 284 284 283 283 283

GFSSE_sfc_thetae_033.txt.gz
Theta_e
340 352 356 356 357 356 356 356 357 357 357 355 354 351 348 347 345 343 342 342 343 344 344 344 347 345 344 342 340 338 337 338 338 339 340 341 340 340 340 340 336 334 337
343 351 355 355 354 354 355 358 357 357 356 354 352 349 347 345 342 341 340 340 340 345 347 347 347 346 344 339 335 336 337 337 336 336 336 338 341 339 339 337 336 336 337
344 350 349 354 354 354 355 355 356 355 355 352 351 348 345 343 340 338 338 339 340 347 348 348 345 342 340 337 335 337 338 338 337 335 333 335 335 335 335 335 336 335 337
347 349 347 353 354 355 355 356 355 354 353 352 350 347 345 341 338 337 338 338 339 345 344 343 341 341 339 338 339 340 340 339 337 333 333 335 337 339 335 334 335 335 337
347 346 345 352 352 351 352 352 353 353 352 351 349 347 344 339 337 338 338 339 339 341 341 339 339 339 339 339 339 340 339 338 335 333 333 336 340 339 338 340 339 338 337
346 345 347 351 351 350 350 349 350 351 352 351 349 346 342 339 338 338 338 338 337 337 337 337 337 338 339 339 340 339 336 336 333 334 333 336 340 339 338 341 341 342 343
344 345 345 351 350 348 348 348 349 348 349 351 348 345 342 339 338 338 338 338 338 338 338 338 340 341 341 339 338 335 337 334 334 335 336 338 337 338 339 338 342 342 342
344 345 345 348 348 348 347 348 348 347 346 350 349 345 343 340 338 338 338 339 339 340 340 341 341 341 337 333 331 332 334 331 333 334 332 330 334 334 335 335 340 340 338
345 345 346 345 345 346 347 347 347 348 349 348 348 347 344 343 341 338 338 339 340 341 341 341 341 336 329 329 329 330 330 325 327 326 324 328 334 331 331 337 338 337 335
345 345 344 345 344 342 344 344 344 345 345 345 345 343 341 341 342 341 340 340 339 341 340 342 338 330 327 326 328 329 325 321 322 321 322 326 329 331 338 338 337 335 333
341 344 344 344 344 342 343 342 342 343 342 342 341 339 338 340 340 339 337 339 340 341 341 339 334 328 324 323 320 321 318 319 320 321 323 329 339 339 337 335 333 332 330
337 338 342 343 343 341 340 342 341 340 340 340 341 341 340 341 341 339 336 337 340 341 340 336 329 321 311 309 310 315 317 320 325 329 331 335 337 336 333 331 329 328 327
336 336 339 340 342 342 340 340 340 340 339 340 341 340 338 338 340 340 339 339 339 334 330 322 314 309 308 307 308 314 317 323 326 330 333 336 333 331 329 326 325 324 323
335 336 338 338 339 340 342 339 337 337 338 337 338 339 335 337 338 339 338 338 337 335 327 319 311 306 305 304 306 312 317 322 324 327 329 330 329 326 325 323 321 321 321
335 337 338 338 338 339 339 340 338 336 337 337 337 337 334 336 337 338 337 336 335 332 326 315 308 305 304 303 304 310 316 320 321 323 326 326 327 324 322 320 319 318 318
338 338 339 338 339 339 338 338 338 337 336 336 336 336 334 334 337 336 335 334 333 331 324 313 307 305 304 303 302 308 314 317 318 318 319 321 323 321 318 316 316 316 317
333 339 339 339 340 339 338 337 338 338 336 335 334 335 334 332 334 335 334 332 332 328 317 308 304 303 302 301 301 305 312 315 315 313 313 314 315 317 316 314 312 314 312
314 329 339 340 340 339 339 338 337 338 337 335 334 333 334 333 331 333 333 331 330 323 312 306 304 302 302 301 300 301 307 311 312 310 309 309 308 308 312 310 309 308 309
311 312 323 338 340 340 339 338 337 336 337 337 334 332 332 332 331 329 329 331 327 319 309 305 302 303 300 300 299 300 301 307 309 306 305 305 305 305 306 307 306 305 305
310 310 312 323 337 341 340 337 336 335 335 337 334 332 331 330 329 329 328 327 322 315 308 303 302 299 300 299 298 299 301 301 306 306 303 302 301 302 301 299 299 300 303
308 308 309 311 322 337 337 334 333 332 332 332 334 332 330 330 328 327 327 324 318 313 309 304 301 298 297 299 299 299 299 299 301 302 302 300 300 298 297 298 298 298 298
305 307 308 308 312 326 336 336 335 334 334 333 333 332 330 329 327 326 324 321 315 312 306 302 299 295 298 299 299 299 297 297 297 297 299 298 298 297 296 296 296 296 296
302 303 305 307 309 317 331 336 332 330 328 330 329 330 330 329 326 325 323 322 317 313 306 301 299 297 297 296 297 301 294 296 296 295 295 296 296 295 295 295 294 294 294
301 302 303 305 307 311 328 333 331 327 326 329 330 331 332 329 326 325 323 320 317 314 310 305 302 300 300 296 293 293 294 297 296 292 293 294 293 293 294 294 294 292 293
302 303 302 302 303 307 314 331 332 329 330 332 331 330 330 327 327 325 322 319 316 314 312 308 302 301 299 297 297 292 292 292 293 295 292 292 291 293 293 293 293 292 291
304 304 305 305 303 303 305 312 329 330 329 329 327 327 327 324 324 323 320 318 317 313 309 307 305 303 300 299 295 294 293 294 292 292 291 290 292 291 292 292 292 291 291

GFSSE_sfc_thetae_036.txt.gz
Theta_e
346 353 357 359 357 356 357 357 357 358 357 356 355 353 350 348 345 344 344 343 344 344 343 346 345 345 343 341 339 338 339 339 340 341 341 341 341 341 341 337 334 336 338
348 351 355 357 358 358 358 359 358 358 357 355 353 350 348 345 343 342 341 339 342 345 346 347 347 345 341 337 337 338 338 337 337 337 339 340 341 339 338 336 337 337 337
348 349 348 356 356 358 358 358 358 357 356 353 351 349 346 343 341 339 339 340 347 349 348 347 344 342 338 337 337 338 338 337 335 335 334 335 335 335 336 337 336 335 339
348 348 347 353 353 355 357 357 357 356 355 352 350 347 344 341 338 338 338 340 346 347 345 344 342 340 338 339 340 340 339 338 335 332 335 337 337 339 337 336 334 334 336
348 349 348 352 353 355 355 356 356 355 354 352 350 346 343 338 338 338 339 340 343 343 342 341 340 340 339 340 340 340 339 337 334 334 338 340 340 339 339 343 340 338 338
347 348 348 352 352 354 352 354 355 354 352 350 349 346 341 338 338 338 339 339 339 340 339 338 338 338 339 340 340 337 337 335 335 336 337 339 340 338 341 340 342 343 343
345 346 347 351 351 351 350 350 351 352 352 350 348 345 341 339 339 338 338 338 338 338 338 338 340 341 340 339 337 335 337 333 336 336 338 337 338 339 338 342 342 342 341
345 345 345 348 350 349 348 349 349 349 351 351 349 345 341 339 339 338 339 339 339 339 339 341 342 340 336 333 333 334 334 335 336 337 335 334 334 334 333 340 339 338 338
346 345 344 345 345 346 347 347 348 347 348 351 348 347 344 342 339 339 340 340 341 341 341 342 340 332 330 329 330 332 329 326 333 332 328 330 333 331 331 339 338 337 335
346 345 344 344 344 343 344 346 346 347 349 349 346 345 342 341 341 340 341 341 341 342 342 341 334 328 328 329 331 329 325 325 326 325 325 325 333 332 339 337 336 334 332
344 345 344 342 342 341 342 342 343 343 343 343 343 340 338 339 339 338 337 339 341 341 342 338 331 327 324 323 324 321 319 323 322 322 324 337 339 339 337 334 333 331 329
339 342 344 343 341 341 340 342 339 339 341 341 341 340 339 339 338 337 335 337 341 342 341 336 330 321 317 318 317 317 320 321 323 324 328 337 336 335 333 331 329 327 326
338 339 341 342 342 342 340 341 340 338 339 340 339 338 338 338 340 340 338 338 338 336 337 332 323 322 318 317 316 317 319 321 324 326 333 337 334 332 329 327 326 324 324
337 339 339 341 342 342 342 341 341 339 338 338 338 338 339 339 340 339 339 337 336 336 335 331 324 318 314 312 313 315 317 320 323 327 330 331 330 327 325 324 323 322 322
336 338 339 341 341 340 341 343 341 340 338 337 339 339 338 338 339 339 338 338 337 336 333 329 323 316 313 311 312 313 315 318 320 325 327 327 328 325 322 321 320 320 319
340 340 341 341 341 341 339 340 343 342 340 339 338 338 339 338 338 338 337 337 337 337 333 329 322 316 314 312 310 312 315 318 319 321 324 324 325 323 320 318 318 317 317
333 340 342 343 343 341 341 341 341 344 342 339 338 338 338 337 337 338 337 337 337 337 333 327 320 315 312 310 309 311 314 316 317 317 319 319 318 319 319 316 315 316 313
319 323 333 340 343 342 341 342 341 341 343 342 340 339 337 336 336 336 337 337 338 336 331 324 318 314 312 310 309 308 312 315 315 315 315 315 315 313 315 312 312 310 311
318 319 320 331 338 342 342 341 341 341 340 344 342 340 338 337 335 334 335 336 336 334 328 323 317 315 311 309 307 307 309 312 313 312 312 311 311 311 311 308 308 307 306
317 318 319 320 328 337 342 340 340 339 339 340 342 341 340 338 336 334 332 334 334 332 327 321 317 313 312 310 303 304 306 308 311 311 309 308 308 308 309 307 305 304 304
313 315 317 317 319 324 334 337 335 333 336 336 338 342 341 339 337 335 333 332 333 330 327 321 317 310 307 307 305 304 304 305 306 309 309 307 306 305 306 303 303 302 301
309 312 313 314 316 318 324 334 338 337 336 337 336 336 340 339 338 335 333 332 331 328 327 322 315 308 307 305 306 306 301 301 303 306 307 306 305 304 303 302 301 301 301
309 309 309 311 313 316 318 328 335 338 338 336 334 334 334 339 337 336 334 333 331 328 326 322 315 311 305 303 307 307 302 301 301 302 303 304 303 302 302 301 300 300 299
311 311 311 310 310 312 315 319 326 330 329 331 332 335 334 335 336 336 334 332 330 326 324 321 317 312 311 303 303 303 302 305 301 297 299 301 302 300 301 300 299 298 298
312 313 312 312 310 310 312 317 324 328 328 329 331 333 333 333 333 334 333 332 329 325 325 321 316 313 312 309 304 299 299 297 298 301 298 296 298 299 300 300 299 298 297
313 314 314 312 312 312 310 312 317 325 328 327 330 332 332 332 330 330 330 331 329 326 324 323 319 315 311 311 306 300 298 298 296 297 298 299 297 297 298 298 297 297 296

GFSSE_sfc_thetae_039.txt.gz
Theta_e
348 352 360 358 356 358 357 358 357 357 357 356 355 353 351 348 346 345 344 344 345 343 345 346 346 345 343 340 340 340 340 340 341 342 342 343 341 341 338 337 342 337 339
350 351 358 358 357 357 358 359 358 357 357 356 353 351 349 345 343 342 341 340 345 345 347 347 346 342 339 339 339 339 338 338 338 338 342 341 341 338 337 337 339 336 339
349 349 349 358 358 359 359 358 358 358 356 354 351 349 347 343 341 340 339 346 348 348 348 346 343 339 338 338 338 338 337 336 336 335 339 334 333 337 338 338 337 339 340
348 347 348 355 356 358 358 359 357 356 355 352 350 347 345 341 339 339 340 347 348 348 346 344 341 339 339 340 340 340 339 336 333 334 335 335 336 340 342 341 335 335 337
346 346 349 354 355 357 358 357 356 356 354 351 349 346 342 339 339 339 341 345 345 344 343 342 341 340 340 340 341 340 339 335 334 335 337 339 338 339 343 344 341 341 340
346 347 348 351 352 353 355 356 355 354 352 349 348 344 340 339 339 340 341 341 341 341 340 339 339 339 340 341 339 338 338 335 337 336 337 339 338 341 340 343 344 344 343
344 347 347 352 353 352 352 354 355 354 352 349 347 343 340 339 339 339 339 339 339 339 338 339 340 340 340 339 336 338 336 335 336 335 335 336 337 338 340 343 342 341 341
343 346 346 348 349 350 349 349 352 352 352 350 348 343 340 340 339 338 338 338 338 338 339 341 341 339 335 334 334 336 334 335 334 334 333 333 336 335 335 340 338 338 337
345 343 344 345 345 347 348 348 349 348 351 351 348 346 343 342 340 339 339 339 340 340 341 342 337 333 332 331 333 332 330 331 331 329 326 328 334 331 337 339 338 336 335
345 343 343 344 344 343 343 346 346 346 347 349 346 344 341 340 341 340 341 341 342 342 342 339 332 330 329 332 332 329 326 328 325 324 322 326 334 333 339 337 336 334 332
343 343 343 342 342 341 340 342 343 345 346 345 343 340 338 336 336 337 338 340 341 342 343 336 330 329 327 328 326 323 324 321 320 320 325 340 339 340 337 334 333 331 330
340 342 342 341 340 340 340 342 340 341 342 343 343 341 338 337 336 334 335 338 341 343 341 335 329 326 324 319 317 318 318 319 320 321 332 339 337 336 333 331 329 328 327
339 341 343 342 341 339 339 341 338 337 338 339 340 340 338 336 337 336 336 334 338 337 337 333 328 323 323 320 319 317 317 319 321 323 333 337 335 333 330 328 326 325 324
338 339 341 343 342 341 340 339 340 337 337 337 338 337 335 337 338 336 335 335 333 337 336 333 328 323 320 318 316 316 316 319 321 327 330 333 332 330 326 325 324 323 322
339 339 339 341 342 342 341 340 340 340 337 337 337 338 337 338 339 338 336 335 335 334 333 331 327 321 318 315 315 315 316 317 319 324 328 328 329 326 324 323 323 321 320
338 340 341 340 342 343 340 342 343 342 341 338 337 337 336 337 338 339 337 336 335 336 334 331 327 322 318 315 314 314 315 317 318 321 326 324 326 326 322 321 320 320 319
337 340 342 342 344 343 342 340 342 344 342 340 339 338 337 337 336 336 336 336 336 335 334 331 327 322 318 315 313 314 315 316 317 318 321 322 319 321 322 319 318 318 317
324 326 337 341 343 343 343 343 340 343 344 343 341 340 337 336 336 335 335 336 336 335 335 331 326 319 317 315 313 312 313 315 315 315 317 318 317 315 318 317 317 314 314
320 321 322 327 336 341 343 343 341 341 341 344 343 342 340 338 336 335 335 336 336 335 333 331 325 319 317 315 314 312 312 313 314 314 313 315 315 314 313 313 314 313 311
318 319 320 322 323 330 338 341 342 340 340 340 344 343 342 340 338 336 335 334 336 335 331 330 325 321 319 316 311 308 309 311 313 313 311 311 311 311 311 309 307 306 308
315 316 317 318 320 321 327 332 339 337 337 337 338 343 343 341 339 338 336 334 334 333 332 329 324 319 316 316 308 307 308 307 308 311 311 309 308 308 308 308 305 305 304
311 313 315 316 318 319 321 325 335 339 336 336 338 338 340 342 341 339 337 334 333 332 331 329 324 318 314 312 308 309 303 303 304 306 309 307 306 306 305 305 303 303 304
312 312 311 312 314 317 319 321 324 335 339 337 335 335 337 339 341 338 338 336 334 332 330 329 324 318 312 310 312 311 307 304 301 303 305 306 305 304 303 303 302 302 302
313 316 314 314 313 312 315 316 318 323 328 333 334 337 337 337 338 338 336 335 334 333 330 329 326 319 315 308 307 308 310 309 302 297 301 302 304 303 302 302 300 300 300
315 316 316 315 314 314 312 313 315 317 324 331 331 331 332 336 335 335 335 335 332 332 331 328 325 317 317 314 309 306 305 303 303 302 296 296 300 301 302 301 300 299 299
315 315 315 314 314 314 314 313 313 315 321 325 328 328 329 332 335 332 331 332 332 330 329 327 325 320 317 317 310 306 303 300 297 298 299 297 295 297 299 300 299 298 298

GFSSE_sfc_thetae_042.txt.gz
Theta_e
343 350 359 359 362 361 360 359 359 359 358 356 355 353 351 349 347 345 344 344 345 346 348 348 346 344 342 343 342 341 341 341 342 344 344 343 341 338 339 342 343 338 340
345 351 359 359 360 360 360 360 359 357 357 356 354 351 349 346 344 343 341 345 345 347 348 347 343 341 341 340 340 339 339 338 339 342 342 340 341 339 339 339 342 338 339
345 349 352 358 359 359 360 359 358 357 357 355 352 349 347 344 342 340 345 348 348 349 348 344 341 340 339 339 339 338 337 336 336 339 341 330 333 340 339 338 339 340 337
345 346 349 358 359 360 359 358 358 357 356 353 350 347 344 341 340 339 348 349 350 348 345 343 340 340 340 341 340 339 337 333 335 338 335 335 335 344 345 341 339 338 339
342 344 349 355 358 359 359 358 358 356 354 351 348 345 342 340 339 342 348 347 346 345 343 342 340 341 341 341 341 340 337 335 338 336 335 334 335 340 345 345 344 345 344
340 345 350 353 356 357 356 356 357 355 352 350 346 343 340 340 340 344 344 343 343 342 341 340 340 341 342 340 339 340 338 337 339 331 336 339 335 340 344 345 344 344 344
342 343 344 353 354 353 354 355 354 352 352 349 346 342 340 340 340 341 341 341 341 340 340 340 341 341 340 338 338 338 336 337 332 331 330 332 331 338 343 342 342 342 341
342 343 343 349 351 351 351 352 354 353 352 350 346 342 340 340 339 339 340 340 339 339 341 342 341 338 336 336 336 336 335 335 329 327 326 326 337 334 340 339 338 336 336
341 341 341 342 344 348 348 349 350 353 352 350 347 345 343 342 340 339 339 339 339 341 342 341 336 334 332 333 334 331 332 331 322 321 325 324 336 333 340 339 337 336 334
337 340 338 339 340 339 341 345 345 345 350 348 346 343 341 340 340 341 341 342 343 342 343 337 333 332 333 333 331 328 329 328 317 317 322 327 335 339 340 337 335 334 332
338 337 338 339 338 337 338 341 343 343 344 344 343 339 336 332 334 336 337 339 343 344 342 334 332 329 331 330 328 328 326 316 312 315 333 340 340 340 337 334 333 331 330
335 336 337 337 335 334 337 338 336 340 340 341 340 336 333 331 330 333 334 338 341 343 340 335 330 328 326 314 313 319 310 311 313 317 333 340 339 337 335 332 330 328 327
334 336 336 335 334 333 334 336 333 336 335 338 338 336 334 332 330 332 331 332 334 335 333 330 324 317 313 313 310 310 310 312 313 322 334 338 336 334 332 329 327 326 326
335 336 338 338 334 333 333 334 332 331 333 333 334 337 334 329 330 329 331 327 330 333 332 328 323 320 316 312 310 308 310 311 312 328 329 334 334 331 329 327 326 325 324
333 336 338 338 337 335 333 333 332 331 331 332 332 332 331 329 330 330 329 329 327 332 330 328 323 316 312 310 308 309 308 310 310 324 323 329 331 329 327 326 325 324 323
334 336 338 339 337 337 335 335 334 335 333 332 331 332 331 331 333 331 329 331 328 329 327 325 322 315 311 308 307 308 308 309 310 320 320 321 328 328 325 324 324 323 323
332 337 337 337 339 337 336 335 336 338 338 333 332 332 331 330 331 332 331 330 330 331 329 325 321 316 311 308 306 307 308 309 310 313 319 316 319 323 325 322 322 322 321
318 325 338 341 340 338 337 336 336 336 338 337 334 332 332 331 330 329 329 330 331 331 331 326 320 314 310 307 305 305 307 308 309 309 313 315 312 312 320 323 321 320 318
314 315 316 323 337 338 338 338 338 338 338 338 340 337 333 332 331 330 328 330 332 330 330 330 321 312 309 307 307 304 305 306 307 310 308 310 311 310 308 316 320 318 317
310 311 313 316 318 321 335 338 337 337 338 339 338 338 336 334 332 330 328 328 332 330 329 330 321 314 311 309 308 305 303 304 306 306 306 308 306 307 305 304 304 305 315
307 308 309 311 313 314 316 325 334 333 333 335 337 337 337 338 334 331 330 328 328 330 330 328 320 314 311 308 302 300 300 301 301 305 305 303 304 304 303 303 302 300 303
305 306 307 308 310 312 313 314 322 334 334 335 334 336 337 336 335 333 331 329 328 326 326 326 321 313 310 307 300 299 296 298 299 300 303 303 301 302 302 303 300 299 300
306 307 307 307 308 308 310 312 313 315 331 329 329 332 335 336 334 334 334 330 328 326 325 325 322 317 310 306 305 303 299 297 295 297 299 302 300 299 300 300 299 298 298
308 310 311 311 309 309 308 307 307 309 311 325 331 332 333 333 334 335 334 333 332 327 325 324 324 319 311 306 303 308 304 302 296 292 298 300 301 300 299 299 298 297 297
310 310 311 311 310 309 308 306 305 306 309 312 322 326 329 332 333 333 333 333 332 331 328 323 322 319 314 309 307 303 303 299 298 296 291 294 298 299 298 298 298 297 296
309 309 309 308 308 309 308 308 306 305 306 308 314 320 322 323 327 329 330 331 330 330 329 328 324 321 316 312 308 306 304 301 297 296 295 292 293 295 297 297 297 297 295

GFSSE_sfc_thetae_045.txt.gz
Theta_e
342 352 359 360 360 360 360 360 360 359 357 355 354 353 351 349 347 345 345 345 347 349 347 345 344 344 344 343 342 341 341 342 343 343 342 341 338 342 343 341 341 337 341
347 352 359 361 361 361 361 360 359 358 357 357 354 351 349 347 345 342 344 345 348 349 346 344 343 342 341 340 340 339 339 341 341 341 341 341 342 340 339 340 340 335 337
348 354 355 360 361 361 360 359 358 358 357 356 352 349 346 344 342 343 348 348 349 348 344 343 341 340 340 339 338 337 338 339 338 340 339 331 336 343 337 338 339 339 339
348 350 352 358 360 360 359 358 357 357 356 354 349 347 344 342 340 349 350 350 349 346 343 341 339 340 341 340 339 337 336 335 335 338 333 334 338 345 343 342 342 340 340
345 347 352 358 359 360 358 357 358 356 354 351 347 344 342 340 343 350 349 349 346 344 342 340 340 341 341 341 339 338 337 337 340 336 333 333 332 343 346 346 345 346 342
341 345 353 357 358 358 357 357 356 354 352 348 345 342 340 340 345 347 346 345 344 343 341 340 341 342 340 340 340 338 338 338 337 332 334 335 331 344 345 344 344 344 344
342 344 346 355 357 356 356 356 354 354 351 347 343 342 341 341 343 343 343 342 342 341 340 340 341 341 339 338 338 338 338 337 329 329 328 328 330 343 343 342 341 341 340
340 341 346 351 352 353 353 353 352 353 352 348 344 342 341 341 341 341 341 341 340 340 341 341 340 338 337 337 336 336 335 333 327 325 325 327 336 340 339 338 337 336 336
340 340 341 343 347 348 348 350 351 351 351 348 346 344 343 341 340 341 341 340 340 341 343 340 337 335 334 335 333 331 331 331 317 321 324 324 337 339 340 337 336 335 334
338 339 336 337 340 341 342 346 347 349 349 347 344 343 340 339 340 340 341 341 342 343 342 336 335 333 333 333 331 331 329 326 314 318 320 326 338 341 339 337 335 333 332
337 337 337 336 336 336 339 341 343 344 345 344 341 338 336 333 335 337 336 340 343 344 340 335 333 333 334 332 330 329 326 313 310 328 330 339 341 340 337 334 333 331 330
331 334 337 337 336 335 340 337 335 338 339 339 336 333 331 330 331 334 333 337 343 343 340 335 333 331 326 315 313 321 308 309 312 329 333 341 340 338 336 333 330 329 327
331 332 333 336 335 333 335 334 332 335 335 337 335 331 330 330 327 329 330 333 333 335 332 330 326 319 313 311 309 306 308 309 313 328 334 339 337 336 333 330 328 327 326
331 334 336 334 330 330 335 332 332 334 333 335 336 334 331 327 326 329 329 328 330 331 328 325 321 316 312 312 309 308 307 309 318 326 331 335 336 333 331 329 327 326 325
331 333 334 336 334 330 332 330 329 331 333 333 334 336 333 328 327 329 328 326 328 330 330 325 323 319 315 309 308 306 306 308 322 324 325 330 334 332 329 328 327 326 325
332 333 335 336 336 335 330 329 329 329 332 330 330 331 332 329 329 328 327 326 324 328 329 329 325 317 311 308 306 305 306 307 314 320 321 325 330 331 329 327 326 325 325
333 334 335 336 336 335 334 332 333 335 333 329 329 330 329 328 330 330 328 326 326 327 327 323 321 315 309 307 304 304 305 306 312 318 318 319 323 326 328 327 326 325 325
328 334 335 338 337 336 335 334 334 334 335 336 332 330 330 330 328 329 329 327 328 327 326 325 320 314 310 305 304 303 304 306 307 316 316 315 314 316 324 327 325 324 324
312 324 335 337 336 336 335 335 335 335 334 335 337 333 330 330 329 328 328 328 329 329 327 327 322 316 308 305 304 304 303 304 306 309 313 312 311 311 311 322 324 324 322
306 308 309 315 330 337 337 335 335 334 334 335 334 335 336 331 330 329 327 326 330 329 328 325 322 314 312 307 307 305 302 303 305 305 306 313 310 309 307 307 311 312 320
305 305 305 307 308 311 316 328 331 332 331 329 333 335 333 334 332 328 329 326 330 329 329 328 324 316 309 307 303 299 299 299 300 303 304 304 306 308 305 304 303 302 309
305 305 305 306 306 306 309 311 322 331 331 334 334 334 335 333 333 332 331 327 325 329 327 326 323 313 312 307 303 297 295 297 299 299 302 303 303 304 305 303 301 300 301
306 307 308 307 307 307 306 307 307 311 325 327 327 328 331 332 333 332 330 327 325 323 326 327 324 319 314 309 305 302 296 296 295 297 298 301 301 301 302 303 302 300 299
307 308 309 310 309 308 306 304 303 303 305 317 326 329 330 331 332 332 332 330 328 327 325 323 324 322 315 310 306 306 305 301 296 294 297 298 301 300 301 300 301 299 299
308 308 308 308 308 307 307 306 303 302 304 306 309 316 326 330 331 331 331 330 326 327 327 325 322 318 316 314 310 305 302 301 297 295 294 296 301 301 301 301 299 297 297
307 307 307 306 307 307 306 305 305 304 302 303 304 305 310 319 324 329 331 331 328 326 327 326 324 321 319 315 309 307 305 303 303 297 297 297 299 300 299 297 296 297 295

GFSSE_sfc_thetae_048.txt.gz
Theta_e
345 353 361 360 359 358 359 358 359 358 357 355 353 352 350 348 346 345 344 348 350 347 345 345 345 345 345 344 343 342 343 342 341 341 340 341 342 343 341 341 339 336 341
348 353 360 361 359 359 360 359 358 357 356 355 353 351 349 346 343 342 345 348 348 345 344 343 342 342 341 340 340 341 342 340 338 339 341 341 341 339 339 339 338 333 340
348 353 357 360 360 360 359 358 358 357 356 354 350 348 346 343 341 348 347 349 347 345 343 341 340 339 338 338 338 340 340 339 339 338 338 334 338 338 339 339 340 338 338
349 352 355 360 360 359 359 358 358 357 355 351 348 346 343 340 347 350 349 350 347 344 341 339 339 339 339 338 338 339 338 336 335 338 332 334 339 343 342 341 340 340 342
347 350 355 359 360 359 358 357 358 356 352 349 346 343 341 342 351 351 350 348 344 342 340 340 341 340 340 339 339 339 339 339 339 335 331 330 334 344 346 346 345 343 345
342 346 354 357 358 358 357 357 356 354 350 347 344 342 340 346 349 348 347 345 343 342 340 340 341 340 340 340 339 339 339 338 337 332 331 334 335 345 344 344 344 344 343
342 347 353 358 358 357 356 356 354 354 349 346 343 341 341 345 347 345 344 343 342 341 340 340 341 340 338 339 338 338 337 335 329 327 327 327 335 343 343 341 341 341 339
342 343 347 353 355 355 355 354 353 353 350 346 344 341 341 343 343 344 343 342 341 341 341 341 340 338 337 337 337 336 334 333 327 325 325 325 340 339 337 337 336 336 336
340 341 343 344 348 350 351 351 351 352 349 347 345 344 342 341 341 342 342 341 341 341 341 340 338 337 336 335 334 333 331 328 320 322 325 324 338 339 339 336 335 334 333
337 339 338 339 341 343 345 347 347 349 347 346 344 343 340 339 340 341 342 342 342 343 341 338 336 334 334 334 332 331 328 324 316 318 321 323 338 341 339 336 333 332 331
335 336 335 335 335 337 339 342 345 346 345 343 341 338 336 332 335 336 336 339 342 344 340 336 334 334 335 334 332 329 323 311 313 321 321 334 342 341 338 335 332 331 329
331 333 334 333 334 335 340 337 336 340 340 338 335 333 331 330 331 335 333 337 341 343 340 336 334 334 330 317 314 321 308 308 320 326 329 340 342 340 336 334 331 329 327
332 333 334 334 334 333 335 334 332 333 336 335 332 330 329 329 328 328 328 332 334 335 332 331 327 320 314 309 308 305 306 307 314 327 334 341 340 337 335 332 329 328 326
329 331 332 334 333 331 332 332 330 332 331 334 333 330 327 325 325 326 327 328 329 331 328 325 321 317 311 310 309 307 306 307 315 325 330 336 338 336 334 329 328 328 325
331 332 332 331 328 330 331 329 329 331 331 335 334 333 330 326 325 326 327 326 328 329 327 324 322 320 315 312 308 306 305 305 317 324 325 331 335 335 331 330 328 328 325
330 332 333 334 333 329 330 328 329 330 332 330 334 335 333 330 326 327 327 326 326 329 330 327 324 322 318 312 307 305 305 305 318 322 323 326 332 334 332 330 328 327 326
331 332 332 334 335 333 329 328 327 328 330 328 331 332 334 332 327 327 327 326 325 326 328 326 325 322 316 311 307 306 305 304 309 319 320 321 325 328 331 330 329 327 327
332 332 333 336 335 334 333 331 331 333 333 330 327 328 330 331 329 327 327 326 327 324 326 324 322 318 312 307 306 304 303 304 305 316 317 317 318 320 326 330 329 327 327
324 327 332 334 334 334 333 334 332 332 332 334 334 330 328 329 328 329 329 328 326 325 324 325 322 316 312 307 305 303 302 303 304 311 315 314 314 314 315 323 327 326 327
305 308 314 328 333 334 334 333 332 332 332 332 334 335 335 329 328 326 327 328 327 326 326 323 322 316 312 310 307 304 302 302 303 304 311 315 312 311 311 311 316 318 324
304 304 305 306 306 317 327 329 329 331 331 330 331 333 333 335 332 327 326 324 326 327 328 326 324 319 313 308 306 304 301 301 300 302 303 310 311 310 308 308 309 309 314
305 306 305 305 306 306 307 309 323 329 330 332 332 331 332 332 331 331 327 325 324 327 325 324 323 318 316 309 306 300 301 300 299 300 301 303 306 309 308 306 305 304 305
305 306 308 308 307 306 305 306 306 308 320 325 326 327 330 331 331 329 330 327 324 325 326 325 324 320 320 310 308 306 295 298 296 297 297 300 302 301 306 308 305 304 303
306 307 308 308 307 307 305 304 302 302 303 309 320 325 327 328 329 330 330 328 328 325 323 324 326 324 317 312 307 308 306 301 297 298 296 296 299 300 299 302 304 305 304
306 305 305 305 306 306 305 304 303 302 302 303 305 306 310 318 325 328 330 329 326 326 325 323 320 320 320 321 308 306 304 302 299 298 297 297 302 301 302 301 303 304 301
305 304 304 304 304 305 305 304 303 302 302 303 303 303 304 307 313 319 325 327 327 324 323 323 321 319 320 318 316 312 308 305 305 299 295 297 297 302 303 302 303 301 299

GFSSE_sfc_thetae_051.txt.gz
Theta_e
343 352 360 359 358 357 357 357 357 357 356 354 352 350 349 348 346 344 349 350 347 345 344 345 345 346 345 344 344 344 342 340 339 340 341 343 342 340 340 339 338 335 343
349 354 359 359 358 358 359 358 358 357 356 354 352 350 348 345 343 344 349 347 345 344 342 342 342 342 342 341 343 342 340 339 339 339 340 340 342 339 339 337 336 336 344
349 354 355 358 359 360 360 357 357 357 355 353 350 348 346 343 344 345 349 347 345 343 341 340 339 339 339 340 342 341 340 340 340 340 339 335 333 338 339 338 338 338 339
350 353 355 359 360 359 358 356 357 355 352 350 348 346 343 341 349 347 349 347 344 341 339 338 338 337 337 339 340 339 338 336 334 337 330 334 338 341 340 339 340 343 343
348 353 355 359 359 358 357 357 356 353 350 348 346 343 340 349 351 350 350 346 343 340 339 339 340 339 339 339 339 339 339 338 339 335 330 331 336 343 346 345 342 344 346
345 349 356 358 358 357 357 357 356 352 349 346 344 341 343 350 351 350 348 345 342 340 339 340 340 340 339 339 339 340 338 340 336 330 329 337 336 344 345 344 344 343 342
343 349 353 358 358 357 356 356 354 352 348 345 342 340 345 348 347 347 346 343 342 340 339 341 340 339 339 339 339 338 335 339 328 325 326 331 335 342 342 341 341 340 339
343 348 351 355 356 355 355 355 354 352 348 345 342 340 342 346 346 344 344 343 341 340 339 340 339 337 336 337 337 335 337 335 327 324 324 326 341 339 336 336 336 336 335
342 343 345 349 351 351 352 352 352 351 348 347 345 344 344 343 343 343 342 342 341 340 340 339 338 336 335 335 334 332 334 331 322 323 325 323 340 336 336 333 333 333 333
338 340 339 341 346 346 346 348 348 348 346 346 344 342 340 339 341 342 342 342 341 341 340 338 335 334 333 333 332 330 328 326 319 319 321 322 335 340 337 334 331 331 330
336 336 337 337 337 338 340 343 345 345 344 343 341 338 336 331 334 336 336 338 341 343 340 336 334 333 336 333 332 330 319 310 312 315 317 328 337 341 337 333 330 329 328
330 333 334 333 334 335 341 338 339 341 339 337 335 333 330 329 330 333 332 337 341 342 340 337 335 334 329 315 312 314 307 306 316 322 323 332 341 341 336 332 331 328 326
330 331 333 332 333 334 335 334 333 336 336 334 332 330 328 328 327 329 327 331 331 334 332 332 327 321 314 309 307 306 304 305 308 324 330 338 342 338 335 333 330 327 325
328 330 332 332 332 331 332 332 331 331 333 332 331 330 326 325 324 325 325 327 328 331 329 325 322 318 312 309 308 308 305 305 309 323 327 337 341 338 335 333 329 327 326
328 330 331 332 331 330 330 330 329 329 330 334 331 330 327 324 323 324 324 325 326 328 327 324 322 320 316 311 310 309 308 304 308 321 325 330 336 338 335 332 329 329 326
330 331 332 331 330 329 329 328 327 328 330 331 333 332 329 327 325 324 324 325 325 326 327 326 323 322 320 316 312 308 306 305 307 318 323 324 332 336 335 332 330 330 328
329 332 332 333 332 328 330 329 326 328 331 329 332 333 333 330 327 325 325 324 325 325 326 326 324 323 320 317 311 308 305 304 305 318 321 321 325 330 333 333 331 330 329
329 330 332 336 333 329 329 329 328 327 327 329 329 329 332 333 329 326 326 325 325 323 324 324 324 322 319 316 312 308 304 303 303 309 318 319 320 322 327 333 333 331 329
328 330 330 332 332 333 332 330 329 329 330 330 329 328 328 330 330 328 327 326 325 324 323 323 322 320 317 315 310 307 304 302 303 306 313 316 317 318 317 324 329 329 330
311 319 327 330 332 332 332 332 330 330 330 331 332 332 328 328 327 326 327 326 325 325 323 321 322 317 315 314 314 309 305 303 302 302 307 315 315 315 314 314 316 320 326
302 303 304 309 306 325 328 328 327 329 329 329 331 333 334 333 329 325 326 325 325 325 325 324 322 320 318 308 306 304 303 303 301 302 303 308 313 313 312 312 312 313 316
303 304 304 304 304 304 308 312 325 327 329 330 330 331 332 332 332 330 326 325 324 324 323 323 322 318 316 310 309 303 305 305 300 301 300 303 306 312 311 311 309 309 310
304 305 306 306 305 305 304 304 305 306 314 323 325 326 329 330 330 329 330 327 324 323 323 323 322 320 321 309 309 314 302 300 298 299 297 299 302 303 308 308 308 309 308
304 306 306 305 305 305 304 303 302 301 302 304 309 314 313 322 326 327 328 327 326 324 322 323 324 323 318 317 306 309 308 304 303 302 300 297 297 300 300 305 307 306 307
305 303 303 304 305 305 304 303 302 302 302 303 304 304 305 308 311 319 323 325 325 324 324 322 319 319 320 321 314 305 308 305 302 302 307 305 300 302 302 301 305 306 306
303 302 302 303 302 303 304 303 302 302 302 303 303 303 305 306 311 313 315 319 324 323 322 322 319 318 319 319 319 314 310 307 306 302 301 306 302 303 302 301 301 303 305

GFSSE_sfc_thetae_054.txt.gz
Theta_e
337 349 359 358 358 357 357 357 356 356 355 353 351 350 349 347 346 350 350 348 345 344 345 345 345 345 346 347 345 342 340 340 340 342 342 343 340 339 339 338 338 336 344
344 353 358 358 357 357 358 358 358 356 355 351 351 349 347 344 346 350 347 345 344 342 343 344 344 344 344 345 343 341 340 340 341 341 339 339 341 339 338 337 339 340 345
349 353 355 358 358 359 359 357 357 356 354 352 350 348 345 343 346 350 347 346 344 341 340 340 341 341 342 343 342 342 341 341 341 339 339 334 331 339 339 339 339 339 341
350 352 352 358 359 359 358 356 356 354 352 349 348 346 343 344 347 350 348 346 343 339 338 338 338 338 340 341 340 339 338 336 336 337 331 335 336 342 340 341 344 346 341
348 351 353 357 359 358 357 357 355 352 350 348 345 342 343 349 348 350 348 345 341 339 339 339 339 339 340 339 340 340 339 339 338 332 330 334 337 345 346 344 344 345 347
348 349 355 358 358 357 357 357 354 351 349 346 343 340 349 351 350 350 347 343 341 339 340 340 340 339 340 340 340 339 340 339 334 328 329 337 336 346 346 345 344 343 343
347 350 354 358 358 357 357 356 354 350 347 344 341 341 349 350 350 348 346 343 341 339 340 340 340 339 339 339 339 336 340 337 327 324 327 331 335 343 343 341 340 340 339
346 349 352 354 356 355 356 354 353 351 347 344 342 342 347 348 348 347 344 342 341 339 339 340 339 338 338 338 337 334 339 334 326 323 325 328 339 338 337 336 337 336 336
344 345 347 349 351 352 353 352 351 350 348 346 344 344 346 346 346 344 343 342 340 339 339 339 338 337 336 336 335 333 336 331 321 322 324 323 335 335 336 333 333 333 333
339 341 342 344 346 346 347 349 349 348 347 346 344 343 341 340 342 344 342 342 341 340 340 338 335 334 335 334 333 329 327 325 318 319 320 320 334 338 336 332 331 331 330
336 336 337 339 340 341 342 345 346 345 344 343 341 338 335 331 332 333 336 338 341 342 340 337 335 333 333 330 330 327 318 310 312 314 316 325 334 341 338 332 330 329 327
331 333 335 335 335 336 341 339 342 341 337 336 334 332 329 327 329 333 331 336 340 342 340 336 334 334 325 314 312 314 307 306 309 317 320 328 335 343 337 332 331 328 325
329 332 333 332 333 334 335 335 335 336 334 333 331 329 328 327 326 328 326 330 330 332 331 331 326 320 314 309 307 305 304 304 305 318 326 334 337 342 336 333 330 327 325
329 330 332 332 331 331 333 333 332 333 333 331 330 329 326 324 323 324 324 325 327 328 328 325 322 319 314 309 307 307 306 307 307 314 324 333 340 340 336 333 330 328 326
327 329 330 331 330 330 330 330 329 329 332 332 330 329 326 324 322 322 322 323 324 326 327 325 322 320 317 313 309 308 308 305 304 309 321 328 336 340 337 335 331 330 328
328 329 330 331 331 330 329 328 329 328 329 331 330 329 327 325 323 322 322 323 323 325 326 325 323 321 320 318 317 313 308 305 303 308 319 323 331 336 338 335 333 331 330
327 330 330 331 331 328 328 328 327 328 329 328 331 331 329 327 325 324 323 322 323 324 325 324 323 322 320 320 316 314 309 305 303 305 316 320 324 329 334 335 334 332 331
328 329 331 334 331 328 328 329 327 326 327 328 328 330 331 331 328 325 324 323 324 323 323 323 322 321 320 319 317 316 311 306 304 303 312 318 319 322 328 334 335 334 332
327 328 329 331 331 329 328 328 327 327 325 327 327 327 329 331 330 328 326 326 324 322 321 322 321 321 318 318 318 317 312 307 304 304 305 313 317 320 320 325 330 331 332
319 324 327 329 330 331 330 329 327 326 327 328 328 327 327 328 329 328 328 326 324 323 322 320 321 318 320 319 318 316 309 308 307 303 303 309 314 317 317 317 318 323 328
303 309 316 324 322 328 327 326 325 326 327 327 329 331 331 328 326 325 325 324 324 324 324 323 320 320 317 311 311 309 306 305 304 304 302 305 309 313 313 315 316 315 318
302 302 303 304 304 310 319 321 326 325 326 327 328 329 330 330 331 328 324 324 323 324 322 322 320 316 316 311 313 305 310 310 302 303 301 302 302 309 311 312 312 311 312
302 303 305 305 304 304 304 304 304 305 309 319 323 324 326 328 330 329 329 328 324 322 322 321 320 320 320 310 309 317 306 305 303 303 299 298 299 301 306 308 309 309 309
303 305 305 304 304 304 304 303 301 301 301 303 305 307 307 311 316 323 326 326 326 324 322 322 322 321 318 320 309 311 311 307 307 306 305 301 297 298 300 304 307 308 309
303 302 302 304 304 304 304 303 302 301 302 303 303 304 304 306 309 314 315 317 322 324 325 321 319 318 318 320 316 309 309 306 304 304 307 309 304 303 302 301 304 307 308
301 301 301 302 302 303 303 302 302 302 302 303 303 303 305 306 310 310 311 312 318 321 322 324 322 319 318 320 320 314 310 308 306 303 302 304 306 305 304 303 301 303 305

GFSSE_sfc_thetae_057.txt.gz
Theta_e
343 354 360 360 358 359 358 357 356 355 353 353 351 350 347 348 351 351 350 346 345 346 346 345 345 347 348 346 344 342 341 341 342 343 341 342 340 339 339 340 341 344 343
346 355 359 360 358 358 359 359 357 356 354 352 351 349 346 349 351 348 346 344 343 344 344 345 344 347 346 344 343 342 344 344 344 341 339 340 343 339 339 339 342 345 343
349 354 354 358 359 359 359 358 357 355 354 352 350 347 344 348 351 347 347 345 341 342 342 343 343 345 345 344 343 342 342 342 340 340 340 339 341 341 341 342 345 340 345
350 353 353 358 358 359 359 357 357 354 352 349 347 345 344 347 351 349 347 344 340 340 339 339 340 342 343 342 341 340 339 338 338 338 342 342 342 343 342 345 347 345 340
351 353 354 357 359 359 358 357 355 352 350 347 345 342 345 347 350 349 346 343 340 340 339 339 340 341 341 341 342 341 341 339 337 340 344 345 345 345 346 346 344 346 345
351 353 354 357 358 358 357 357 354 351 348 346 342 344 350 348 351 349 345 342 340 341 340 341 340 341 341 341 340 341 341 338 336 339 342 343 345 346 345 343 343 343 343
349 352 354 358 358 357 357 355 353 350 347 344 342 345 351 350 351 348 344 342 340 341 341 340 340 340 340 341 338 339 340 334 334 337 340 343 342 342 340 339 339 339 338
348 352 353 355 356 356 356 354 352 350 346 343 344 349 351 352 349 346 344 342 341 340 341 340 339 339 339 339 335 338 338 333 331 332 337 340 340 337 336 336 336 336 336
349 352 353 353 353 352 353 352 351 350 348 345 345 348 349 348 347 346 344 342 341 340 340 340 338 338 338 337 333 338 334 330 331 330 329 335 336 336 335 333 334 334 332
349 350 351 352 351 352 352 349 348 348 346 346 344 343 341 341 344 345 342 343 341 340 340 338 337 336 336 335 331 329 328 326 329 329 330 329 333 338 336 333 332 331 329
344 347 348 349 350 350 351 348 346 345 344 342 341 338 337 340 340 341 338 339 342 341 340 337 335 334 333 331 330 325 321 322 325 326 326 324 331 340 337 333 332 329 327
340 341 344 345 346 347 347 349 345 343 344 342 340 339 338 337 338 338 335 336 340 342 341 336 334 333 326 325 325 319 322 318 319 324 327 329 332 338 337 333 332 328 326
338 339 340 342 343 344 344 345 344 341 342 340 339 337 335 334 336 338 338 338 340 336 341 338 335 331 324 321 319 318 317 316 317 319 328 332 336 340 337 334 331 328 325
336 338 339 340 340 340 342 342 343 342 341 339 338 336 334 333 333 334 334 335 337 338 338 338 335 332 328 320 318 317 317 316 317 318 324 329 336 341 338 334 333 329 327
334 336 337 338 338 338 339 340 340 342 341 341 338 336 335 333 332 332 332 332 334 336 336 336 335 332 330 328 323 318 317 318 317 316 319 326 332 340 340 336 335 331 329
334 334 336 336 337 337 337 338 338 338 340 341 340 337 335 334 332 331 330 330 330 333 335 336 335 333 332 330 329 329 326 320 317 315 317 323 329 336 338 338 336 333 332
333 335 335 336 336 336 336 337 337 337 336 337 339 339 337 335 333 332 331 330 330 331 332 333 333 333 331 331 329 329 327 324 318 315 315 320 325 328 334 337 337 335 333
332 333 335 336 336 336 336 336 336 335 336 336 336 337 338 337 335 333 332 331 332 332 331 331 331 330 330 330 329 329 329 327 325 320 315 317 322 326 330 334 336 336 335
332 333 333 336 336 335 335 335 335 335 333 334 334 334 334 336 336 335 334 334 333 332 331 331 330 329 329 329 328 328 328 327 327 323 320 316 317 323 326 328 331 332 334
329 332 334 334 336 336 334 333 333 333 334 334 333 334 334 335 335 336 335 334 334 332 331 330 329 329 328 328 325 324 327 326 325 323 322 318 316 317 322 326 329 330 328
311 320 330 331 333 334 333 332 332 331 333 333 334 335 334 333 333 333 333 333 333 331 332 331 329 326 326 324 322 325 323 322 322 322 321 317 317 316 318 320 323 326 328
307 310 313 325 325 330 332 332 333 333 334 335 335 335 335 336 336 334 332 331 330 330 329 329 328 326 325 322 324 318 317 320 317 316 315 313 313 312 314 316 318 321 323
306 306 307 308 309 310 314 312 312 313 316 325 330 331 329 326 333 334 335 334 332 329 328 329 328 326 325 322 322 323 312 312 312 315 311 309 309 309 312 314 315 316 318
306 309 308 308 308 308 308 308 308 309 309 308 309 311 311 312 314 319 327 330 331 330 327 328 328 327 325 323 316 316 318 313 311 309 313 311 305 306 305 309 311 313 313
307 307 307 307 307 308 308 308 307 307 307 308 308 309 311 312 316 317 318 320 322 322 323 324 324 324 324 324 320 317 317 312 309 309 309 315 312 312 310 308 309 308 310
306 305 306 306 305 306 307 307 307 307 307 308 308 309 310 311 315 313 314 315 317 320 321 322 323 324 323 322 324 321 316 312 313 306 305 306 308 312 312 311 310 308 309

GFSSE_sfc_thetae_060.txt.gz
Theta_e
348 354 360 359 358 357 357 357 356 354 354 352 351 348 349 350 351 350 346 345 345 348 345 348 350 348 346 344 343 342 341 342 341 341 342 341 339 340 342 343 347 342 341
348 354 359 360 359 359 358 357 356 355 354 352 350 347 351 352 349 346 345 343 344 346 346 346 348 347 346 344 345 344 345 345 343 340 339 342 343 340 341 343 344 344 343
347 353 356 360 360 359 358 356 356 355 353 351 349 345 350 350 348 347 344 342 342 344 344 345 347 345 345 344 343 342 341 340 341 341 340 343 343 342 346 347 343 345 346
348 351 353 359 359 359 358 356 356 353 351 349 347 344 348 351 349 348 343 341 341 341 342 343 344 344 343 342 342 340 340 339 340 342 343 343 342 344 347 346 347 342 342
349 350 352 357 359 359 357 356 354 351 349 348 345 343 347 351 350 347 343 340 340 340 340 341 342 342 343 342 342 342 340 338 339 344 345 345 346 345 346 345 345 345 345
349 350 353 356 358 358 357 356 353 350 348 346 343 345 347 350 350 347 342 341 341 341 341 341 342 342 342 341 341 342 340 336 339 340 342 343 341 343 343 342 342 341 342
348 350 353 358 358 358 357 355 353 349 347 343 344 349 351 350 350 346 343 341 342 341 341 341 341 341 341 340 338 341 337 334 334 335 337 339 340 340 339 338 338 338 338
347 349 353 355 356 356 355 353 352 349 345 342 347 354 351 352 349 346 344 341 340 341 341 340 339 340 340 337 338 341 335 333 332 332 333 335 339 338 336 336 336 336 335
349 348 350 353 353 353 352 351 351 349 347 344 348 350 351 350 349 346 344 342 340 341 341 339 338 338 338 335 337 338 334 330 332 331 327 331 337 337 335 334 334 333 331
349 349 348 352 350 350 352 349 348 348 346 345 345 344 342 344 345 346 343 342 340 340 340 338 337 336 336 334 330 330 328 330 330 330 329 328 332 338 335 333 332 331 329
347 349 349 347 347 349 351 347 345 345 344 342 341 339 338 341 342 341 338 340 341 340 339 337 335 334 332 332 328 323 321 329 328 327 327 326 329 336 337 334 332 329 327
342 346 348 348 347 348 349 349 345 344 345 343 342 339 335 334 337 338 337 337 340 341 340 336 334 333 328 330 329 324 330 328 325 325 326 329 333 335 341 334 332 329 326
341 344 346 348 347 347 347 348 345 343 345 345 343 341 338 335 334 335 336 336 339 336 339 337 336 334 328 326 326 324 324 323 323 323 326 329 333 337 338 335 332 329 326
341 343 345 345 346 346 346 347 345 343 344 344 343 342 340 338 337 335 332 334 336 336 336 338 337 336 334 330 324 323 323 323 323 322 325 328 331 338 341 338 334 331 328
338 340 343 345 344 346 346 345 346 344 344 344 344 343 341 340 338 338 334 331 332 334 335 335 336 335 334 333 332 329 328 326 325 324 323 324 327 335 342 341 337 334 331
339 341 344 344 344 346 345 346 344 344 344 344 344 344 342 341 340 338 337 334 331 333 334 336 337 337 336 336 333 333 333 333 330 326 324 325 327 331 338 341 339 337 334
339 340 341 342 344 344 344 344 343 343 343 343 343 344 343 341 340 338 337 336 336 335 335 336 336 337 336 336 335 335 334 334 333 329 327 326 326 326 331 338 339 338 335
339 338 340 339 341 342 342 342 341 341 341 341 342 342 343 341 340 339 337 337 338 338 337 336 336 335 335 335 335 335 335 335 334 334 333 329 328 327 328 333 337 338 337
339 339 338 339 339 340 341 341 342 342 341 341 341 341 341 340 340 340 339 339 340 339 338 337 337 336 335 335 335 335 335 334 335 334 333 333 330 326 327 328 330 333 335
336 339 339 339 339 341 342 341 341 341 341 341 340 340 340 340 340 340 340 340 340 338 338 338 336 337 336 335 333 331 333 334 334 334 333 332 332 329 326 326 327 327 329
317 334 337 338 339 339 339 338 337 338 339 341 341 341 340 340 340 339 339 339 340 338 338 337 337 335 334 335 331 330 332 333 331 331 331 331 329 327 326 325 325 325 326
314 319 331 335 338 339 341 341 340 340 340 340 341 340 340 340 340 340 340 339 339 338 337 337 336 333 333 334 329 327 322 324 326 327 328 326 325 324 322 322 322 322 323
311 313 317 323 332 336 339 337 334 333 334 336 338 339 339 335 338 337 338 338 338 337 334 336 335 332 328 332 330 327 320 315 321 324 324 321 320 320 320 319 320 320 321
311 313 314 314 316 318 324 328 330 331 331 326 323 320 319 316 317 319 327 332 333 333 330 330 331 330 329 325 324 324 326 321 316 314 321 321 318 316 318 316 315 317 317
312 313 314 314 313 313 314 315 316 315 315 315 315 314 316 317 320 320 320 322 323 325 326 325 326 325 327 326 325 320 321 321 319 315 312 317 320 315 316 317 318 316 317
313 313 313 313 312 313 314 314 315 314 313 314 314 314 315 317 319 318 318 319 321 322 323 324 324 322 322 323 325 324 319 317 317 314 312 314 313 319 320 320 318 316 314

GFSSE_sfc_thetae_063.txt.gz
Theta_e
348 354 360 358 357 357 357 356 355 353 353 350 349 348 348 351 350 346 345 346 348 348 350 350 348 347 346 345 344 343 341 340 341 341 341 342 342 343 344 346 345 341 344
350 353 359 359 358 358 357 355 355 353 353 351 347 350 352 349 347 345 344 345 347 345 348 349 347 347 346 345 344 344 345 344 340 339 341 343 344 347 348 345 348 343 345
349 352 355 359 359 359 357 355 355 353 352 350 346 350 349 348 348 344 342 344 345 346 348 349 347 345 344 343 342 341 341 341 341 340 341 341 342 347 348 345 345 345 344
349 353 352 359 359 358 357 355 354 352 350 348 346 348 351 349 348 343 341 342 342 343 345 345 344 343 343 343 341 341 339 339 341 343 342 341 344 347 347 348 343 345 344
348 350 355 359 359 358 357 355 353 351 349 347 345 346 351 350 348 343 341 341 341 341 342 343 343 343 343 342 342 341 338 338 341 343 342 344 343 344 345 344 344 344 344
346 349 354 357 358 358 357 356 352 349 347 345 343 347 350 351 347 343 341 342 341 341 342 342 342 342 341 342 342 340 337 338 339 338 339 342 339 341 341 341 340 340 340
345 351 351 357 358 357 356 354 352 348 345 343 346 348 348 351 347 344 341 342 341 341 342 342 342 342 340 339 342 339 336 337 332 334 335 337 337 338 338 338 338 337 336
345 349 350 355 356 355 354 353 351 348 343 344 348 351 350 350 347 345 342 341 342 341 340 340 340 340 339 338 341 338 335 336 331 330 331 334 340 337 337 336 336 333 332
346 347 348 351 352 352 352 351 351 348 344 345 350 353 352 349 348 345 343 341 340 341 340 339 338 338 337 335 340 336 334 334 331 328 326 333 340 336 335 335 335 332 331
344 347 345 349 349 350 350 348 348 347 345 347 347 345 344 344 346 345 343 342 340 341 339 338 336 336 335 333 331 331 329 332 329 327 327 326 332 338 334 334 334 332 329
342 345 347 349 346 347 347 345 345 344 343 342 342 340 339 341 341 339 339 341 341 340 338 336 335 334 333 333 329 325 326 328 326 325 325 329 329 333 338 333 332 330 327
341 344 346 347 344 346 348 345 344 343 342 341 336 336 335 336 337 337 338 338 340 341 339 336 334 333 330 329 329 327 328 327 325 324 326 331 331 334 338 335 332 329 326
341 344 344 345 345 346 346 345 345 343 344 343 342 339 335 332 333 331 335 335 337 337 337 336 335 333 330 327 325 324 324 324 323 324 325 329 330 336 341 336 334 330 326
339 342 345 345 345 344 344 346 345 342 342 343 342 341 338 336 336 333 331 333 335 336 334 336 335 334 334 332 327 324 324 324 324 325 325 328 328 333 341 339 336 332 329
337 339 340 344 343 343 342 344 343 342 341 341 343 342 341 339 338 337 333 330 331 332 332 333 333 333 333 332 331 330 328 328 327 327 326 327 327 329 337 342 339 336 332
338 338 340 340 341 340 342 343 343 342 341 341 341 342 342 340 339 337 336 334 330 331 332 332 334 336 335 335 334 333 332 333 332 331 328 328 326 329 332 340 341 338 337
339 341 340 341 342 341 343 342 342 341 340 340 340 341 341 340 338 337 336 336 336 334 333 334 335 336 335 335 335 335 335 335 334 333 332 330 330 326 330 332 338 338 337
339 340 342 342 341 341 342 343 341 340 339 340 340 341 342 341 339 339 337 337 338 338 337 336 335 335 335 334 334 334 335 335 335 335 335 334 333 330 329 331 334 337 337
338 339 340 341 340 340 340 340 341 341 340 340 341 341 341 341 340 339 339 339 339 339 338 337 336 336 334 334 332 335 335 335 335 335 334 335 335 333 330 330 330 332 335
337 339 340 341 340 340 341 341 342 341 341 341 340 340 341 340 340 339 339 339 339 338 336 336 335 336 335 334 332 332 335 335 335 335 334 332 333 334 333 330 330 327 328
328 337 339 339 340 340 339 338 339 338 340 340 341 341 341 340 340 340 340 339 338 336 336 336 335 333 332 336 332 331 332 333 333 332 332 330 330 331 329 328 328 327 327
316 327 336 338 339 340 340 340 340 340 341 341 343 342 341 341 340 339 339 338 338 337 336 335 334 332 333 335 328 328 322 325 326 329 329 327 327 328 326 325 325 324 325
315 316 326 335 337 339 340 341 340 339 339 338 339 339 340 340 340 339 339 337 338 337 335 335 334 332 328 329 330 325 319 316 321 324 325 325 324 323 324 322 322 322 322
314 317 317 321 330 336 338 337 333 331 332 335 335 335 331 323 323 325 328 333 335 334 331 331 331 331 329 326 326 326 327 322 316 314 322 323 323 319 321 321 318 318 317
315 317 317 317 318 320 323 329 331 331 330 323 319 317 316 317 319 320 320 321 322 323 325 326 326 325 325 324 325 323 323 323 322 316 313 316 323 321 319 319 319 318 317
316 317 317 315 314 316 316 317 319 319 316 315 316 315 316 316 319 319 318 319 320 321 322 324 324 324 321 320 321 321 321 319 315 313 312 314 316 317 317 320 317 316 314

GFSSE_sfc_thetae_066.txt.gz
Theta_e
346 353 359 359 357 357 357 355 355 354 350 350 349 348 352 348 345 345 347 348 350 351 350 348 347 347 347 346 344 342 341 342 342 341 343 345 348 348 349 347 348 342 346
348 353 358 359 358 358 357 355 354 354 354 349 351 352 349 347 344 344 346 348 346 350 349 347 347 347 345 344 344 345 343 341 341 341 344 345 347 349 346 348 348 344 343
347 351 355 358 358 357 357 355 355 353 352 349 352 350 349 347 343 343 346 345 344 350 349 347 345 344 343 342 341 340 341 342 342 342 343 339 342 349 347 345 346 345 346
349 350 352 358 358 357 357 355 354 351 349 347 351 349 350 346 342 343 343 344 344 346 347 343 344 344 343 342 341 338 340 342 344 344 341 341 340 345 347 346 346 347 346
347 348 354 358 358 357 356 355 352 350 348 346 350 352 350 347 342 342 342 342 342 344 342 344 344 343 343 343 340 339 340 341 341 342 338 336 337 340 343 343 342 342 343
345 351 355 357 357 356 356 355 351 349 347 345 349 352 350 347 343 342 342 341 342 343 343 343 343 341 343 342 340 338 339 341 339 332 336 338 334 340 340 340 338 337 337
347 351 354 357 357 356 355 354 351 347 345 344 348 351 351 347 344 342 342 342 342 342 343 342 342 341 340 342 340 338 338 338 328 327 329 331 332 338 338 337 334 333 334
346 348 352 355 355 355 354 352 350 348 345 348 351 351 351 347 345 342 342 342 341 341 342 341 341 340 338 341 341 338 337 335 328 322 329 332 339 338 338 337 335 332 332
345 346 348 350 352 352 351 350 349 347 347 351 352 352 351 348 346 344 341 342 342 341 340 339 339 339 337 338 339 336 336 334 325 322 331 333 341 337 336 336 335 332 331
342 343 345 347 348 348 346 347 346 344 347 348 347 346 344 344 345 345 343 342 341 341 339 338 337 337 336 333 332 333 331 330 321 321 321 325 336 338 335 335 335 331 330
343 342 346 346 346 346 344 344 343 342 342 343 341 340 339 338 339 337 339 340 341 341 338 337 335 334 335 334 332 330 328 320 317 318 319 331 329 333 338 334 333 330 329
339 340 344 343 342 345 344 342 338 337 334 332 337 335 335 333 333 338 335 338 341 341 339 337 336 335 332 324 324 328 320 320 317 316 322 333 331 333 338 338 333 330 328
340 341 344 342 343 345 342 340 339 337 338 336 330 329 328 328 329 331 331 332 333 335 334 334 332 329 324 320 319 317 317 315 315 315 325 332 329 333 338 339 334 330 327
339 340 343 342 342 343 345 342 339 337 339 338 336 334 328 327 325 323 328 328 329 331 330 330 329 328 327 325 321 317 316 316 316 317 321 329 331 330 339 339 338 333 330
336 340 341 342 342 342 342 344 341 336 336 339 338 336 333 332 330 329 325 324 325 326 325 326 327 325 325 325 325 323 321 320 319 319 318 326 328 330 333 341 341 338 334
336 336 339 341 340 340 339 341 340 337 339 334 336 336 336 334 332 331 328 325 322 323 324 324 325 328 328 328 328 327 325 325 325 325 322 320 327 328 331 333 341 342 339
336 337 336 338 339 338 339 339 339 339 337 334 335 336 335 334 332 330 329 328 328 325 325 325 327 328 328 330 328 329 329 327 327 327 325 323 323 326 329 331 333 337 338
335 336 337 341 339 338 339 340 339 339 333 333 334 335 336 335 333 331 330 329 331 330 329 328 328 327 327 327 327 327 327 328 328 328 329 327 325 324 326 331 333 335 336
333 336 336 338 336 337 339 340 338 334 333 333 333 334 336 336 335 333 333 332 332 332 331 331 330 329 327 327 329 329 330 330 329 331 328 329 329 329 326 328 328 330 334
333 335 336 337 336 336 335 336 335 336 334 334 334 335 336 336 335 333 333 333 333 334 332 332 331 331 330 330 331 329 330 329 329 329 329 329 326 326 328 324 323 323 328
329 333 335 335 335 335 334 332 332 332 334 334 335 336 336 335 335 334 333 335 334 333 332 332 330 329 329 330 329 325 326 328 327 328 327 325 323 323 322 322 321 320 321
313 329 333 335 335 335 335 335 335 334 335 336 337 337 337 337 336 335 334 334 334 334 333 332 332 329 329 330 325 323 318 319 322 323 323 321 319 318 319 318 317 316 316
310 314 328 333 335 335 336 335 335 333 334 333 334 334 336 336 336 337 336 335 335 335 333 333 331 329 327 328 328 323 316 312 314 317 318 318 317 316 314 314 314 314 315
309 311 312 320 331 334 335 334 331 328 327 330 331 331 326 320 319 319 321 327 333 332 330 327 328 327 327 324 325 326 324 322 316 312 315 316 316 313 313 311 311 313 313
311 311 311 313 316 323 329 332 329 327 327 317 314 314 313 313 315 317 316 316 316 317 318 319 319 320 320 318 319 319 317 320 320 316 311 311 316 316 314 313 312 310 310
311 312 311 311 312 313 315 318 322 323 312 310 310 310 310 311 315 315 316 315 315 316 316 317 318 318 317 315 316 317 316 316 314 313 311 310 309 314 316 313 309 309 309

GFSSE_sfc_thetae_069.txt.gz
Theta_e
345 353 359 358 356 357 356 355 354 352 351 348 351 351 347 345 346 348 350 351 352 349 349 348 347 346 345 344 342 344 344 342 343 346 348 349 349 349 348 347 346 340 344
348 353 358 358 357 357 356 354 354 354 352 352 352 349 345 344 345 348 348 351 351 349 348 346 345 344 343 344 345 344 344 343 342 345 345 346 348 346 346 346 347 344 349
349 353 355 358 357 356 355 353 354 352 351 353 350 348 344 343 346 345 346 350 350 348 347 345 344 343 342 341 341 343 344 344 343 342 342 338 341 345 348 347 348 347 348
349 351 354 357 357 356 356 354 353 350 350 352 352 348 343 343 344 345 344 345 347 346 344 344 344 343 342 340 341 342 342 342 345 344 338 337 338 343 346 345 345 346 345
348 351 355 356 356 356 355 353 350 349 348 353 353 351 344 343 342 343 343 344 345 343 342 343 343 343 342 340 340 340 341 346 343 338 333 332 332 339 343 341 339 340 342
345 351 355 355 355 355 355 353 349 348 347 351 353 350 345 343 343 342 342 343 344 344 343 343 342 343 342 340 339 340 340 340 337 331 331 334 331 339 338 335 335 335 335
348 351 353 356 356 355 354 352 350 347 346 351 352 349 346 343 343 342 342 342 343 343 343 343 341 341 343 340 339 339 338 337 325 327 329 329 330 339 339 336 333 333 333
348 351 352 353 354 353 353 351 349 347 348 350 353 350 347 344 342 343 342 342 342 342 342 342 341 339 341 341 338 337 337 335 323 327 330 330 339 338 339 337 333 332 332
349 349 350 351 351 350 350 349 347 348 350 351 352 350 348 346 343 342 343 342 341 341 340 340 340 338 338 340 337 336 335 332 320 327 333 332 340 338 338 337 334 332 331
345 347 345 348 349 346 345 345 344 347 348 350 349 347 344 343 344 343 342 343 341 340 339 338 338 337 336 333 332 333 330 328 318 319 322 329 340 338 336 336 334 331 330
342 343 345 345 345 343 342 340 341 344 343 342 342 340 339 339 339 338 337 340 342 340 338 337 336 335 335 333 332 330 329 319 316 317 317 332 333 336 338 336 334 330 329
337 342 344 344 344 342 342 337 334 335 337 337 336 336 335 334 334 337 335 337 341 340 339 337 336 335 331 323 322 328 319 318 314 315 319 333 332 333 337 338 334 330 329
338 341 342 343 344 340 339 337 333 331 329 330 334 333 331 330 333 332 331 333 332 334 332 334 331 328 322 320 321 319 318 313 313 313 323 333 332 331 336 341 336 331 329
337 340 341 341 343 341 338 338 336 334 334 331 328 327 323 323 325 327 328 328 328 331 329 328 326 326 324 321 318 316 314 313 314 314 317 330 333 330 335 340 338 335 331
336 339 340 341 343 343 339 338 337 334 334 335 332 330 326 326 324 324 324 326 326 328 326 326 326 325 324 324 323 321 319 318 317 316 315 326 329 332 332 338 341 339 336
335 337 340 341 341 343 342 341 339 334 333 333 336 334 331 330 328 329 325 320 320 322 322 322 323 323 324 325 325 324 323 321 321 322 320 318 329 330 332 331 336 340 340
335 336 339 340 341 340 339 342 340 338 336 332 334 335 333 332 330 330 327 324 324 321 321 321 323 325 325 327 326 327 327 326 324 324 324 321 321 326 330 332 333 335 338
333 335 338 340 339 338 338 339 337 339 336 335 335 333 334 333 331 329 328 327 327 326 323 324 325 324 324 325 325 326 326 327 329 328 326 325 323 322 326 332 335 335 335
332 334 336 338 337 338 339 338 338 338 334 332 333 333 333 334 333 330 330 329 330 329 328 327 327 326 325 326 328 329 329 329 330 330 328 327 327 328 325 327 329 330 333
332 333 334 336 337 336 335 337 337 336 334 332 331 332 334 334 333 331 331 331 330 332 332 331 330 330 329 330 330 330 329 329 328 327 327 328 326 324 326 323 322 323 327
330 331 333 333 334 334 332 330 331 329 330 330 332 334 334 334 334 331 331 331 333 331 331 331 330 329 328 328 327 323 324 326 326 326 327 325 323 322 321 320 319 319 320
328 330 331 334 332 333 333 332 333 332 332 333 334 335 336 335 335 333 332 332 333 332 332 331 331 330 329 329 325 323 317 318 321 321 320 321 319 317 318 316 314 314 313
313 327 332 333 334 333 334 333 333 332 332 332 332 333 334 335 335 336 335 335 334 334 332 333 331 330 326 325 326 321 314 311 314 318 317 317 317 316 313 313 312 313 312
307 311 326 331 333 335 334 332 329 328 326 328 329 331 323 324 321 319 321 326 330 330 327 325 326 324 322 321 320 323 322 319 315 311 314 315 314 312 311 310 311 310 310
309 309 310 320 330 333 333 333 330 326 327 323 320 318 316 314 316 316 316 316 316 316 316 317 317 317 318 317 315 313 314 315 315 311 307 310 313 313 312 311 309 307 306
309 309 308 309 313 321 324 327 327 325 319 312 311 311 311 313 314 315 315 313 314 314 315 315 315 315 315 315 314 312 311 310 310 310 310 309 309 313 314 311 307 306 304

GFSSE_sfc_thetae_072.txt.gz
Theta_e
344 352 358 357 355 355 354 352 351 350 348 351 350 346 345 349 351 352 351 352 352 349 348 347 346 343 345 347 347 345 345 347 348 348 348 349 348 347 347 344 344 343 344
349 353 357 357 356 355 355 353 351 352 351 352 347 345 344 347 349 351 351 350 349 347 346 344 344 345 347 347 346 345 344 344 344 345 345 346 346 348 347 347 349 346 347
350 353 353 356 356 355 354 352 350 351 351 350 346 343 344 345 347 351 351 350 348 346 345 344 343 343 343 344 345 345 344 343 341 342 343 339 342 347 347 347 346 346 345
350 352 352 356 356 354 353 352 350 351 352 350 345 343 344 344 344 347 350 348 346 345 344 343 342 341 342 343 342 343 345 347 346 341 333 333 335 342 344 343 343 344 343
349 352 353 355 355 354 353 351 349 351 352 351 346 343 343 345 344 344 344 344 344 342 343 343 343 341 341 341 342 344 346 343 340 335 330 330 332 338 338 337 336 338 340
346 349 353 354 354 354 354 351 348 351 350 350 346 343 342 343 343 344 344 345 344 343 342 343 342 341 341 340 341 340 341 340 335 329 329 333 329 337 335 334 334 334 335
347 350 351 354 354 353 352 350 349 349 352 350 347 343 343 342 342 343 343 342 342 343 342 341 342 341 340 340 339 339 337 335 327 327 327 327 331 339 337 334 333 334 334
348 350 350 351 353 352 351 350 349 349 352 351 348 344 343 343 342 342 342 343 343 343 342 341 340 341 341 339 338 337 336 330 328 328 328 329 339 340 339 335 333 332 333
349 348 348 349 349 349 349 348 347 347 350 352 350 347 345 343 342 342 342 342 342 342 341 341 339 339 340 338 336 334 333 331 320 328 331 330 340 338 338 336 333 332 331
347 347 345 346 347 344 343 345 346 348 349 350 348 345 343 341 342 343 343 342 341 340 340 339 338 337 335 333 334 333 329 326 317 326 328 329 340 338 337 336 333 331 330
345 345 346 345 342 340 339 339 344 345 345 345 344 341 339 337 337 337 337 340 341 340 338 337 337 336 335 333 333 332 329 318 314 316 316 333 337 338 338 336 333 330 329
338 342 344 344 341 338 339 333 335 339 338 339 339 337 335 334 334 336 334 337 340 340 339 337 336 335 330 321 321 326 318 316 313 315 316 332 332 333 338 338 334 330 328
336 340 343 343 341 338 336 332 329 331 333 334 335 334 332 333 331 332 331 332 331 333 330 333 330 327 321 318 318 319 316 315 310 312 321 332 333 331 334 339 337 332 329
336 339 341 343 341 338 336 333 331 328 327 328 331 331 327 327 329 328 328 328 327 329 326 326 324 324 323 321 315 316 313 312 312 313 314 330 334 331 331 339 339 335 332
335 338 340 341 341 338 335 334 333 332 330 329 327 327 323 324 326 325 325 325 325 326 326 325 324 324 324 324 321 319 317 316 315 315 314 324 330 333 332 335 340 340 337
336 338 339 339 341 339 336 336 335 334 333 332 331 327 324 325 323 323 320 324 323 324 326 323 324 323 321 322 322 322 321 320 319 319 319 317 328 331 334 332 334 338 340
335 339 339 340 339 340 338 339 338 336 333 331 332 333 328 328 327 327 325 319 319 319 322 319 319 322 324 325 324 325 325 325 324 322 322 320 320 327 331 333 334 334 336
334 335 338 341 340 340 340 340 340 338 333 333 332 332 332 331 330 328 327 325 324 322 320 320 322 322 322 323 323 325 325 327 328 327 327 326 322 321 325 332 336 337 336
333 335 335 338 337 337 338 340 339 337 337 334 335 335 334 332 331 329 327 327 327 326 325 324 324 324 323 325 327 328 328 328 329 330 329 328 327 325 323 325 329 331 333
333 334 335 336 336 337 337 338 337 336 334 333 333 334 333 332 331 329 329 329 328 328 328 329 329 329 329 328 329 329 329 326 326 326 326 327 326 326 324 323 322 322 327
330 332 332 333 334 335 333 333 332 330 332 332 331 331 332 332 332 330 329 330 330 331 331 330 329 328 328 328 326 324 323 324 324 325 325 324 324 323 321 322 319 318 318
330 331 331 333 332 334 333 332 331 330 329 330 332 332 333 335 335 331 330 330 330 331 331 330 330 328 327 328 323 320 314 316 318 319 319 320 318 318 319 318 316 314 314
323 329 332 333 334 334 333 332 331 331 331 330 330 330 334 335 335 334 332 333 333 334 332 332 331 329 326 325 325 320 314 309 312 316 316 316 315 314 314 314 313 312 312
312 325 330 332 332 334 332 331 331 329 327 330 329 330 328 330 331 332 332 333 332 330 328 326 326 323 321 318 319 320 318 317 314 311 313 314 314 311 310 311 309 310 308
307 311 321 328 332 333 333 331 330 326 327 326 326 325 321 322 321 319 318 316 317 319 318 317 316 316 317 317 316 313 311 312 313 311 310 309 311 312 311 310 308 306 306
307 307 307 315 322 325 327 329 329 328 325 319 319 319 316 316 318 319 318 317 315 314 314 315 314 313 313 313 313 312 310 308 307 307 306 306 307 309 311 309 307 304 304

GFSSE_sfc_thetae_075.txt.gz
Theta_e
344 350 356 356 355 353 352 350 349 348 351 348 346 350 352 353 353 352 351 350 349 348 346 343 346 347 347 347 347 348 348 348 348 347 347 347 346 346 347 348 347 340 340
347 351 355 356 355 353 352 351 349 350 351 347 345 347 351 352 352 351 350 349 347 346 345 345 347 347 347 347 346 346 346 345 345 345 345 345 347 348 348 347 348 341 343
348 351 351 355 355 354 352 350 348 350 350 346 344 345 349 351 351 351 350 348 346 344 343 345 346 346 346 346 345 345 344 343 343 342 342 338 340 346 346 345 345 345 344
349 350 350 354 354 352 351 350 351 350 347 344 343 344 347 350 351 351 349 346 345 343 343 343 344 345 343 343 344 347 345 344 341 337 331 332 335 341 340 340 340 342 341
348 350 350 353 353 352 351 349 351 350 347 343 343 347 346 346 350 349 347 344 343 343 342 342 343 342 342 343 348 346 345 341 338 333 329 330 331 334 336 336 335 338 339
345 348 351 353 352 352 352 350 350 349 347 343 342 344 345 344 345 344 344 342 342 343 343 342 342 341 341 343 344 344 342 339 333 328 329 331 328 336 335 334 334 335 336
345 348 349 353 352 351 350 350 351 352 348 344 342 342 343 344 344 343 342 341 342 342 342 341 341 340 340 341 339 341 339 334 326 325 326 328 332 338 337 335 334 334 334
347 348 348 350 351 350 349 349 349 351 350 345 343 342 342 342 343 342 341 341 342 342 341 341 341 340 339 339 338 336 334 333 328 326 326 328 339 340 338 335 333 333 333
346 345 346 347 348 349 348 348 348 350 351 348 346 344 343 343 342 342 340 341 342 342 341 339 340 340 339 337 336 334 332 329 324 326 329 328 340 339 338 335 333 332 332
342 343 343 345 345 342 342 345 345 347 349 348 346 343 341 341 342 343 342 343 342 341 340 339 337 336 336 334 333 331 329 326 319 325 327 328 338 337 337 335 333 331 330
339 340 343 345 341 339 337 340 344 345 345 345 343 339 337 334 336 337 337 340 341 340 339 338 337 336 336 333 332 331 326 317 312 318 316 328 339 337 337 335 332 330 329
338 342 344 344 340 337 338 336 337 339 340 342 339 336 334 333 332 334 333 337 340 340 339 337 337 335 331 320 319 323 317 315 312 313 314 326 332 332 337 338 334 330 328
334 340 344 342 339 336 333 331 333 334 335 337 336 334 332 332 330 330 329 331 330 332 329 332 328 325 320 318 317 317 316 314 310 311 317 328 332 331 333 338 338 333 330
335 335 337 339 339 336 333 330 330 332 332 332 333 332 330 328 327 328 327 327 326 327 323 323 323 322 321 319 318 315 314 311 310 311 313 326 333 332 332 335 340 337 333
330 331 336 339 337 336 333 330 328 329 330 331 331 331 328 326 327 327 326 325 324 324 324 322 322 322 322 322 321 318 317 314 314 313 313 321 330 334 333 333 339 339 338
328 329 337 339 340 338 334 332 331 329 328 328 327 328 326 325 327 326 325 324 323 323 325 323 323 323 323 321 322 321 320 319 319 317 318 318 325 331 334 333 335 338 340
333 335 337 338 340 338 334 334 334 334 333 331 330 327 324 324 324 324 321 319 323 322 323 323 319 320 320 323 323 324 324 324 324 323 321 321 320 326 331 333 335 335 336
335 337 338 339 339 339 337 336 336 335 332 333 332 332 327 325 325 325 325 321 319 319 318 318 318 319 321 322 322 324 324 325 325 326 327 326 324 323 325 330 334 338 338
333 335 337 338 337 338 339 339 337 336 334 332 332 332 331 329 329 328 326 325 324 322 320 319 321 322 322 323 325 326 327 328 329 329 328 327 327 326 324 325 328 331 334
332 334 336 337 338 337 338 339 336 336 335 335 333 334 334 333 330 328 327 326 326 325 325 324 324 326 326 328 327 328 327 325 324 324 325 325 324 325 325 324 322 323 328
329 330 333 334 335 335 334 333 332 333 331 331 331 334 334 334 331 328 328 327 327 326 327 327 329 327 327 328 326 324 321 322 322 323 322 322 322 323 322 321 319 321 321
327 329 330 332 333 334 335 334 333 330 329 330 331 332 334 333 332 330 328 328 328 328 329 329 329 328 328 328 323 317 313 315 317 316 316 317 317 316 318 318 317 318 317
323 327 330 332 334 334 332 331 330 330 329 328 330 330 331 333 332 332 331 329 329 331 330 330 330 328 325 323 325 321 314 308 312 317 315 316 314 313 312 312 312 313 313
310 324 327 330 331 332 331 330 330 329 327 328 328 328 329 331 331 333 331 332 332 331 330 329 328 327 323 318 316 319 317 318 315 309 312 313 313 311 310 310 309 311 309
308 315 326 327 329 330 329 329 327 325 327 327 326 327 325 325 325 325 325 324 324 323 322 322 321 320 317 316 314 312 310 309 311 312 307 308 310 311 310 308 307 305 307
304 307 313 320 324 327 329 328 328 327 324 323 323 323 320 319 321 321 320 319 318 317 317 317 316 313 311 311 311 310 309 307 305 304 304 304 305 307 307 305 303 303 306

GFSSE_sfc_thetae_078.txt.gz
Theta_e
343 348 355 355 354 351 350 349 348 349 350 350 352 354 354 354 353 352 351 350 348 345 346 346 346 347 348 348 348 348 347 347 347 347 347 347 348 349 349 346 343 337 341
346 349 355 356 354 352 349 350 349 351 349 348 351 353 354 354 353 352 350 348 347 345 346 346 347 347 346 347 347 346 346 345 344 345 345 344 347 347 347 346 345 340 344
347 349 350 355 354 354 351 349 348 350 348 347 349 351 352 352 352 351 349 346 345 345 346 347 347 346 346 346 345 345 344 344 343 341 338 333 338 342 342 341 342 344 345
348 348 349 353 354 352 350 347 350 348 345 345 347 350 351 352 352 349 348 345 344 345 346 345 346 344 344 344 345 345 345 342 339 337 331 332 333 338 339 340 341 341 339
346 348 349 353 353 351 349 349 350 347 344 344 347 349 350 351 351 349 346 344 343 343 344 345 344 343 346 348 347 346 342 339 337 332 329 327 326 334 336 336 336 338 338
344 346 349 352 352 352 350 350 349 346 343 343 347 347 349 350 350 347 344 343 343 343 344 344 342 343 344 348 345 343 341 337 333 327 327 332 328 337 336 336 335 336 336
343 345 347 351 351 351 350 350 350 347 343 342 344 344 344 346 345 343 343 342 343 342 343 342 341 341 341 343 344 342 337 333 325 324 326 329 332 338 337 335 335 335 335
343 344 346 348 351 351 349 349 349 348 344 342 342 344 344 345 343 342 342 342 342 342 342 341 340 340 340 339 339 338 335 332 327 324 325 328 340 340 338 336 334 334 334
342 343 342 344 347 348 348 348 349 349 347 344 344 344 344 344 342 341 341 342 342 341 341 341 341 340 338 337 336 334 331 331 323 324 328 327 338 339 338 336 334 333 333
338 339 341 341 344 342 341 345 346 347 346 345 344 342 341 340 341 342 341 343 342 341 340 339 338 338 337 335 333 331 329 327 322 324 325 326 338 337 337 335 334 332 332
335 337 340 342 340 339 338 340 343 345 345 343 341 339 337 333 335 336 336 340 342 340 339 338 337 335 333 330 331 331 324 315 312 320 317 326 337 336 337 335 332 331 330
329 335 339 341 339 337 338 337 337 340 343 342 336 333 331 331 332 334 333 337 340 339 339 336 335 335 327 318 318 321 315 314 312 312 314 324 331 332 334 338 334 331 329
325 337 341 342 338 335 334 334 334 335 337 341 334 332 331 330 329 328 328 330 329 331 327 329 326 324 318 317 315 315 315 313 310 310 314 325 331 332 332 333 338 334 331
329 332 335 339 336 334 331 333 332 333 334 337 336 332 329 327 326 326 325 326 325 326 322 321 321 320 319 319 317 314 314 311 310 311 312 322 329 332 332 332 337 339 335
326 327 328 330 335 335 330 329 332 332 334 334 334 332 329 327 326 326 326 325 324 323 323 320 320 321 320 321 321 319 318 317 314 314 313 321 324 332 332 333 337 340 339
327 326 327 326 336 336 333 329 329 331 332 332 332 332 329 327 326 326 325 324 322 322 323 322 322 322 322 320 320 321 320 320 319 319 318 318 325 328 333 333 334 337 340
323 326 328 328 336 336 334 332 331 329 329 329 330 329 329 326 325 327 325 323 323 322 323 322 320 319 320 321 321 323 323 323 323 324 323 321 321 325 329 332 334 335 337
326 328 332 332 337 337 335 334 334 334 332 329 329 327 326 325 324 324 323 321 320 322 321 320 320 317 318 320 321 322 323 324 325 325 326 326 323 323 326 330 333 335 337
330 332 335 336 336 337 336 336 335 335 333 332 331 331 328 325 324 324 324 324 321 319 317 317 317 319 319 320 322 324 324 326 326 327 325 325 325 325 324 326 328 329 333
333 334 334 336 335 336 337 336 335 335 335 333 332 331 332 329 326 325 326 325 324 321 321 320 319 321 323 324 326 326 327 324 324 323 323 324 323 324 324 324 323 323 327
330 330 333 333 334 334 333 332 333 333 334 333 333 333 332 332 331 329 327 326 325 324 325 324 323 324 326 328 326 323 319 320 320 321 319 319 320 322 321 321 319 319 322
327 328 330 332 333 333 333 332 332 331 332 333 332 332 332 333 333 331 329 328 326 326 325 326 327 326 327 327 324 317 312 315 315 316 315 316 314 315 317 317 317 316 316
322 326 329 331 332 333 334 333 329 329 328 328 329 329 330 332 332 332 330 328 327 328 328 328 328 327 325 324 323 318 310 307 309 315 314 314 313 311 311 312 313 314 312
309 322 328 329 330 331 331 331 330 328 326 327 328 328 328 329 329 330 330 329 329 331 330 328 327 327 326 322 318 318 319 318 313 307 312 313 313 310 308 308 309 309 309
308 310 322 326 327 329 329 330 329 327 327 327 326 325 323 324 324 325 327 327 326 325 324 323 321 320 319 318 316 312 309 308 311 311 304 305 308 309 308 307 306 304 306
304 307 316 321 323 325 326 326 326 327 325 324 322 322 323 323 323 323 323 324 324 322 320 320 318 317 316 314 312 310 309 306 303 303 305 304 303 306 305 305 304 303 304

GFSSE_sfc_thetae_081.txt.gz
Theta_e
345 350 355 355 354 351 350 349 349 351 352 350 353 354 355 355 354 353 351 349 351 347 346 346 349 351 350 349 348 349 348 347 348 348 348 349 350 348 346 344 345 339 344
348 350 354 355 353 353 350 349 351 352 352 353 353 354 354 355 353 352 350 347 347 347 346 346 350 350 350 347 347 346 345 347 345 344 344 345 347 346 344 344 347 344 346
348 350 351 354 354 352 350 349 351 347 349 351 354 355 354 354 353 351 348 347 346 346 347 347 346 347 347 346 346 345 345 344 342 341 341 341 340 342 342 342 344 345 344
349 350 350 353 354 353 350 349 350 347 345 350 352 353 353 353 352 349 347 346 346 348 347 345 345 345 345 346 346 345 342 341 340 339 336 334 333 338 339 340 340 339 340
348 350 350 352 353 352 348 350 349 346 344 348 351 352 353 353 350 348 345 345 348 347 346 345 344 346 348 348 346 343 340 338 337 335 334 335 335 336 337 337 338 338 338
348 350 350 351 352 351 350 350 347 344 343 344 349 350 352 352 350 346 344 346 346 346 345 344 345 348 348 347 344 342 338 337 335 336 337 337 337 338 338 337 337 336 337
348 350 349 351 352 351 352 350 348 344 343 343 346 349 350 351 349 345 344 343 344 345 344 343 343 343 346 346 343 339 336 333 335 337 338 339 339 339 338 336 336 336 336
346 348 348 348 351 351 351 350 349 345 343 344 346 347 349 348 345 343 343 343 343 344 344 342 342 341 341 343 342 337 335 332 332 335 338 340 342 340 339 337 335 335 335
346 347 347 347 348 348 349 348 348 346 344 344 344 345 346 345 344 342 343 342 343 343 342 342 341 340 339 337 335 333 334 331 331 333 334 338 338 339 338 336 335 334 334
342 345 345 346 347 346 347 346 347 346 344 344 343 342 341 338 341 343 342 343 342 341 341 341 341 339 337 335 333 331 331 330 332 332 334 336 338 337 337 335 334 333 333
335 339 342 344 345 343 343 344 345 345 343 342 340 338 338 339 339 339 338 340 342 342 340 339 338 335 333 331 332 329 325 325 325 330 328 325 335 336 337 335 333 332 330
325 333 339 341 342 341 340 343 345 345 344 341 340 339 339 340 340 339 336 337 340 340 339 338 336 333 327 327 328 324 326 325 323 323 324 324 329 332 333 338 335 332 329
325 330 337 339 339 339 338 340 341 344 344 342 339 338 338 338 339 339 339 339 339 334 336 336 334 331 327 327 326 326 326 324 323 322 322 323 329 332 332 333 339 336 332
324 331 332 330 336 337 337 338 339 342 343 340 338 337 336 335 336 335 335 336 336 336 333 333 331 330 328 327 327 326 324 324 323 322 322 322 326 333 333 333 336 340 337
325 329 329 331 331 335 335 337 338 338 342 341 339 338 336 334 333 333 332 333 333 333 332 330 329 328 328 329 330 329 328 328 327 326 327 322 324 329 333 334 334 339 340
323 327 328 328 330 336 333 335 337 338 339 341 340 337 337 336 334 333 334 333 332 332 331 330 328 330 331 331 329 329 330 330 330 329 330 330 325 328 332 334 334 336 338
326 327 326 326 328 337 335 332 334 336 336 338 338 340 337 336 335 334 334 333 332 331 330 330 329 329 329 329 328 329 332 332 332 332 333 333 332 326 328 333 335 336 336
326 324 325 325 328 333 336 334 334 333 332 336 337 338 338 336 334 334 333 333 332 330 329 330 330 327 326 326 329 331 331 332 333 333 333 333 333 332 330 330 333 336 337
326 325 325 327 328 336 336 334 334 334 335 335 334 334 336 335 333 332 331 332 330 327 328 328 326 326 325 326 328 330 332 332 332 332 333 332 332 333 334 330 328 330 333
329 327 327 328 331 337 337 336 337 336 336 336 334 334 333 332 331 330 329 330 329 326 325 324 323 324 327 329 328 330 332 333 333 332 331 330 331 331 332 333 333 332 326
330 330 330 333 333 333 332 330 333 332 335 335 337 335 335 335 332 329 329 328 329 328 326 325 325 325 327 329 329 330 329 329 329 329 329 327 327 327 329 330 330 331 330
327 329 330 331 330 333 331 331 330 331 334 337 337 335 334 335 334 333 331 328 329 330 329 328 329 329 329 330 328 323 321 323 325 325 325 324 323 324 325 324 326 326 328
326 327 328 331 331 332 332 332 331 331 331 330 332 334 332 333 334 333 333 333 331 331 330 331 331 330 327 327 328 325 317 316 319 324 323 323 322 322 321 320 320 321 320
317 326 328 330 331 332 332 332 329 327 325 328 330 331 332 333 331 331 331 331 331 330 330 330 332 331 330 328 326 326 327 325 318 315 319 320 320 318 318 317 318 316 314
311 313 323 327 328 330 332 332 329 325 324 328 329 329 328 327 329 330 330 330 328 326 326 325 328 325 326 325 325 322 321 320 319 314 309 313 317 318 317 315 315 314 313
308 310 318 324 326 327 328 328 328 326 325 325 327 327 326 325 326 328 329 328 326 325 324 322 321 320 321 320 319 317 316 314 312 312 310 311 310 314 314 314 312 312 311

GFSSE_sfc_thetae_084.txt.gz
Theta_e
345 351 355 355 353 352 351 349 349 351 352 355 355 355 354 355 355 354 352 351 352 348 347 350 352 352 352 351 350 349 348 348 349 349 349 350 347 345 344 344 347 344 347
347 351 355 355 353 352 350 350 353 352 352 355 354 355 355 355 354 352 350 349 347 346 348 350 351 350 347 348 347 348 347 346 345 344 346 345 345 345 345 345 349 347 347
347 350 353 354 354 353 352 349 351 351 352 354 354 355 355 355 353 350 349 349 349 348 348 349 350 349 346 346 346 346 344 343 342 342 344 336 340 342 342 343 344 343 344
347 349 350 353 353 353 351 350 348 348 351 354 353 355 354 354 353 349 348 348 350 349 348 346 346 346 346 346 344 343 342 341 339 340 332 331 331 338 340 340 340 339 340
347 349 350 352 353 353 350 351 347 346 349 352 353 353 353 354 349 348 347 349 349 349 347 345 345 346 346 346 343 340 339 339 337 335 335 336 336 337 338 337 338 338 339
347 349 350 352 352 352 351 351 348 345 347 350 351 352 352 353 349 346 348 348 348 348 344 346 348 348 349 345 342 338 338 336 338 337 337 338 338 338 338 337 336 336 337
346 348 350 351 352 351 352 350 348 345 345 347 349 351 351 351 347 345 345 346 346 346 345 346 348 346 345 344 340 337 336 333 335 337 339 339 340 339 337 337 336 336 336
345 347 348 348 351 351 352 349 348 346 345 347 348 350 350 350 346 343 343 345 346 344 344 344 343 345 345 343 339 336 334 335 332 335 338 339 340 339 338 336 336 335 335
346 346 346 348 347 348 349 348 346 346 346 347 347 348 348 346 344 341 342 344 345 344 343 342 341 340 340 340 337 336 334 330 332 333 333 337 340 339 337 336 335 334 334
339 346 346 346 346 345 347 346 345 344 344 345 345 344 342 341 342 343 340 341 344 344 342 341 340 339 338 335 332 332 333 332 331 331 332 334 338 337 336 335 334 333 333
330 331 344 345 345 343 345 345 344 343 342 341 340 338 337 341 340 339 339 339 342 342 341 341 340 337 335 333 332 328 327 329 330 331 330 328 334 337 338 335 333 332 331
323 325 334 343 344 341 342 346 346 342 339 337 339 339 339 337 338 337 337 339 342 341 341 338 337 333 329 330 330 327 330 329 328 328 328 324 328 333 333 338 336 332 330
323 329 330 337 342 339 336 345 346 345 341 338 336 337 338 338 339 338 339 339 338 335 335 335 334 331 329 329 329 328 329 328 328 327 326 324 329 332 333 335 339 337 333
325 328 333 336 339 339 338 338 345 345 343 341 337 335 335 336 337 336 336 336 335 334 333 333 331 330 329 329 329 327 327 328 329 330 330 324 326 331 334 334 335 341 339
326 327 331 332 333 339 338 335 340 345 344 343 340 336 334 334 335 334 333 334 333 333 331 330 330 328 328 330 332 332 331 332 333 333 334 324 324 328 333 335 335 337 341
326 328 330 329 331 334 337 336 335 341 345 344 341 339 336 336 334 332 330 332 332 333 331 329 328 329 330 333 333 334 334 335 335 335 336 336 327 328 332 335 336 336 338
325 327 328 329 330 329 338 338 335 336 341 343 343 342 339 339 336 335 334 336 336 335 332 330 328 333 334 333 333 333 335 336 335 336 336 337 336 326 329 334 336 337 337
325 327 329 330 329 329 338 338 337 338 338 338 342 343 342 340 338 337 337 337 337 335 333 332 332 332 331 331 330 333 334 335 335 335 335 335 335 335 333 332 334 336 337
327 328 328 329 328 332 338 337 336 338 340 340 340 340 341 341 339 337 336 336 337 334 333 332 332 331 329 329 330 332 334 334 334 334 333 334 335 335 335 333 330 330 332
327 328 328 327 328 333 336 338 337 335 335 337 337 339 340 340 341 338 334 335 336 333 331 332 330 330 329 330 330 331 334 334 334 334 333 333 333 333 333 333 335 334 328
327 327 328 327 329 335 336 335 334 335 336 336 337 336 337 336 335 336 334 335 335 333 332 332 330 328 329 333 332 329 330 332 332 331 331 330 330 329 331 332 334 334 333
324 328 328 330 331 330 331 333 334 334 336 336 339 339 339 338 337 336 335 334 334 332 335 332 330 330 331 334 328 329 321 325 328 328 329 328 328 329 329 328 329 330 332
323 325 327 329 329 330 331 332 331 331 333 332 334 335 337 337 336 337 337 335 334 333 335 334 334 333 331 332 332 327 320 316 322 326 326 327 325 326 327 326 326 326 328
321 325 325 328 328 329 330 329 328 327 324 328 328 333 334 335 336 335 334 333 331 331 329 330 331 331 332 328 330 331 331 327 318 315 322 323 324 320 323 325 324 323 322
320 326 326 327 329 329 330 330 328 326 327 327 326 329 331 330 333 331 331 330 330 330 329 327 327 325 325 324 323 324 328 328 326 321 310 313 318 320 321 321 321 322 320
310 313 316 322 327 330 330 329 328 326 326 322 323 324 326 328 329 329 330 330 329 327 325 324 323 321 323 322 323 323 323 318 316 314 313 312 313 316 318 319 319 319 319

GFSSE_sfc_thetae_087.txt.gz
Theta_e
346 350 356 355 353 352 350 350 349 351 356 356 355 354 354 354 355 354 352 350 351 349 349 351 353 352 352 351 349 349 350 349 350 349 349 348 346 346 346 348 350 345 349
347 350 355 356 352 351 350 349 351 352 355 356 355 354 354 355 355 353 351 349 348 348 351 353 351 351 350 347 349 347 348 346 346 347 345 344 345 346 345 346 348 345 348
346 350 352 355 353 353 351 350 351 352 353 355 355 355 355 355 354 352 350 348 347 350 352 350 349 347 346 346 346 346 345 344 342 342 343 335 339 343 343 343 345 345 345
346 349 350 354 354 353 351 351 351 350 351 354 354 355 355 355 352 351 349 348 350 351 351 350 348 345 345 345 344 343 342 339 337 339 331 329 331 340 341 340 340 341 342
346 349 350 353 353 352 351 350 349 350 352 353 353 353 354 354 351 349 349 351 350 350 348 347 346 346 346 343 341 340 340 335 337 337 335 336 335 337 338 339 338 339 340
344 346 351 352 353 352 352 350 347 348 351 352 352 352 352 353 350 349 350 349 348 346 345 345 346 347 346 342 338 339 337 334 339 336 336 338 336 338 338 338 337 337 336
344 346 350 352 352 352 352 351 349 347 349 350 351 351 351 352 348 347 349 348 347 346 346 348 348 347 344 341 338 337 335 334 335 337 337 338 338 339 338 338 337 336 336
343 345 348 348 350 350 352 350 348 347 347 349 350 351 350 350 346 346 347 347 346 345 346 348 346 345 344 340 337 335 333 335 333 336 337 338 340 339 338 337 336 336 336
338 343 345 347 347 348 348 347 347 347 347 347 348 349 348 346 345 343 346 347 346 343 344 344 344 345 344 339 337 335 332 333 332 332 334 337 341 338 337 336 335 335 334
333 330 329 345 345 340 346 345 345 345 346 346 346 345 343 342 342 344 342 345 346 344 343 342 341 340 339 336 334 335 334 333 330 331 331 335 338 338 336 335 334 333 333
334 332 330 329 343 340 344 344 343 343 343 342 342 339 338 340 338 338 339 342 344 344 343 341 340 339 337 335 333 332 332 329 329 329 329 335 337 338 337 335 333 332 332
330 331 330 332 329 339 342 344 341 338 338 336 340 339 339 340 338 336 336 339 342 342 342 340 339 336 332 330 329 328 327 328 327 328 327 330 329 335 335 339 336 333 331
332 329 330 329 330 331 342 344 343 338 335 335 333 338 339 338 336 338 338 337 338 336 335 336 334 330 328 329 329 327 328 327 326 327 325 330 329 332 334 335 338 337 334
329 329 328 329 330 333 337 344 343 341 335 333 334 335 338 336 337 335 335 336 335 334 332 332 331 329 328 328 327 327 327 326 327 328 326 327 329 331 334 335 335 340 340
325 328 327 330 330 332 336 336 341 342 340 335 333 334 335 335 336 335 334 334 334 332 332 331 330 328 327 327 327 328 327 329 331 331 333 326 328 330 332 335 336 337 339
325 326 329 331 330 329 333 336 336 341 343 340 336 333 332 334 335 334 333 333 332 331 331 329 328 327 326 327 329 331 331 333 333 334 335 331 329 331 333 335 337 338 338
325 327 328 330 330 329 329 336 334 338 341 343 339 335 332 332 331 330 330 330 331 331 330 329 327 327 328 329 330 331 332 333 334 334 335 336 333 328 332 335 337 338 339
326 327 329 329 329 330 329 333 337 334 337 339 342 339 336 336 335 333 332 333 335 334 333 329 327 326 330 330 329 330 332 334 333 334 335 334 335 334 332 335 336 336 338
326 327 328 329 329 328 329 333 338 335 334 336 341 342 340 338 338 336 336 337 336 334 332 331 330 329 328 329 329 330 332 333 333 333 332 332 334 335 335 333 332 332 333
327 327 328 329 329 327 328 334 336 336 336 338 338 338 340 340 340 339 336 334 335 334 332 331 329 331 329 328 326 328 333 334 334 332 331 331 332 333 332 332 334 332 329
327 327 328 329 327 327 327 331 332 331 333 335 338 339 339 340 339 340 337 333 334 334 333 332 330 329 328 330 329 328 331 332 331 331 331 330 329 329 328 331 332 333 331
320 323 326 326 327 328 329 330 332 335 337 337 338 338 337 337 336 336 336 334 334 334 334 333 332 329 329 331 329 327 323 324 327 328 328 328 327 328 328 328 328 329 331
317 323 326 327 327 328 329 329 329 330 333 332 335 336 337 338 337 337 337 336 335 334 333 335 332 330 328 333 333 328 320 317 321 325 327 326 325 324 326 327 325 326 327
318 321 325 324 327 328 328 327 326 325 325 328 331 333 336 336 335 336 335 336 335 333 330 329 330 332 331 328 331 330 328 327 319 316 323 322 323 320 321 323 323 323 323
320 320 322 323 325 328 327 327 326 324 326 327 326 328 329 332 331 333 334 333 331 331 329 329 328 327 326 323 322 321 320 322 322 319 313 315 319 320 321 320 320 321 321
313 314 315 319 322 325 326 327 325 325 324 323 325 325 325 327 329 329 330 330 330 329 328 326 324 323 322 323 322 320 318 315 316 316 313 312 313 316 319 319 319 318 319

GFSSE_sfc_thetae_090.txt.gz
Theta_e
344 349 356 354 353 352 351 350 351 356 358 357 355 355 355 355 355 354 351 349 351 350 351 353 352 352 352 351 350 350 350 350 349 347 347 348 347 348 349 348 349 346 348
347 350 356 355 353 351 351 350 352 354 357 356 356 354 355 355 355 354 351 350 350 351 353 353 352 351 349 347 348 348 347 347 346 346 344 344 346 345 345 347 348 345 348
346 348 352 355 354 353 353 351 352 352 356 355 355 355 355 355 354 353 350 350 352 353 352 350 349 345 348 347 347 346 345 343 344 346 343 335 338 344 343 343 345 345 345
347 348 349 354 354 353 352 351 351 350 352 355 355 356 357 355 354 352 350 350 353 354 352 348 346 345 345 345 345 344 341 337 339 338 327 328 333 340 340 340 342 343 342
346 347 349 353 354 353 351 351 351 350 351 354 353 354 354 354 354 351 350 351 352 352 351 347 344 344 344 342 342 340 336 336 337 335 331 329 330 338 340 340 338 339 339
345 346 351 353 352 353 352 351 350 350 350 352 353 353 354 353 352 352 351 349 348 348 348 347 346 346 343 340 339 338 335 337 338 330 331 336 332 339 339 339 337 337 337
343 347 349 352 351 353 352 350 350 349 352 352 352 352 352 352 350 350 349 346 344 347 346 346 347 345 341 338 337 336 334 337 332 331 332 333 333 339 339 338 337 337 337
342 346 346 350 351 351 351 350 348 349 350 352 351 351 351 351 350 349 347 342 342 346 347 349 347 344 341 338 336 334 335 334 331 331 333 333 340 339 338 337 337 336 336
339 338 335 343 347 347 349 348 347 347 348 350 350 349 348 348 348 345 343 346 347 346 348 348 346 344 341 338 336 334 334 332 324 328 335 334 341 339 338 337 336 335 335
333 335 335 335 341 341 345 345 345 345 346 346 347 345 343 342 341 341 344 344 344 346 345 345 345 344 341 338 337 336 333 332 322 325 332 335 340 338 337 336 335 335 334
334 333 334 333 332 329 340 342 343 343 343 343 342 340 338 337 336 336 339 341 343 344 344 343 341 340 338 334 334 334 332 324 322 323 327 340 340 339 337 335 334 333 332
331 331 332 333 333 332 333 337 336 339 337 339 340 339 338 335 335 336 337 340 342 342 342 342 340 339 333 325 324 328 320 320 319 321 323 336 336 337 338 338 335 333 331
329 329 331 333 335 332 331 330 335 334 333 333 337 338 338 336 333 334 333 336 337 334 334 336 333 328 324 323 323 321 321 319 317 319 325 332 332 334 335 336 339 338 335
328 328 328 330 328 330 330 332 335 332 329 328 333 336 336 333 331 333 332 331 332 331 328 329 327 325 323 322 320 320 320 319 318 319 322 330 333 332 335 336 336 339 340
326 328 327 328 329 332 333 333 337 335 329 329 329 331 334 331 329 330 330 331 331 329 328 327 326 323 321 320 321 320 319 319 321 323 318 327 330 333 333 335 336 337 338
324 324 326 329 329 332 331 331 331 335 335 328 328 328 332 331 330 329 329 328 327 327 325 325 323 321 320 320 321 323 323 324 326 325 325 322 330 332 335 336 337 338 338
323 324 326 329 329 328 329 331 331 333 335 333 329 328 329 330 329 328 326 326 325 324 324 322 322 321 321 322 322 324 325 325 327 328 327 327 327 329 334 338 339 339 339
324 325 327 330 328 328 328 331 332 333 334 334 333 329 327 328 327 326 324 324 325 326 325 323 322 319 321 324 323 324 323 327 327 327 330 329 329 330 330 335 338 339 338
325 325 325 328 328 329 329 329 331 333 331 335 335 335 329 331 330 328 327 328 329 328 326 325 322 321 321 323 323 323 324 326 327 329 326 326 326 327 327 331 332 333 335
325 325 326 328 328 328 328 329 331 332 330 333 334 334 336 334 334 332 331 330 330 329 326 326 324 325 324 323 324 322 324 326 327 326 325 327 326 324 323 324 325 326 329
324 325 326 326 327 327 325 325 326 327 330 332 334 335 336 336 338 337 334 329 327 330 328 326 325 324 324 323 320 321 324 327 328 326 324 322 321 321 321 323 324 324 327
319 323 325 326 327 326 325 326 328 329 331 330 333 335 336 334 335 335 333 331 328 330 329 329 326 324 324 324 321 322 317 319 322 323 321 321 318 319 321 322 320 322 322
316 318 323 326 326 326 326 328 327 328 329 330 331 331 331 334 334 333 332 332 330 330 329 329 329 327 324 324 325 321 315 312 315 320 318 318 317 315 317 319 320 320 320
316 318 322 323 326 327 327 326 324 323 322 325 327 328 331 333 332 332 332 332 331 329 327 326 327 326 326 324 326 327 323 320 313 311 316 315 316 314 312 315 316 317 317
317 316 319 323 323 325 326 325 324 322 324 325 325 324 325 328 329 330 330 330 329 329 327 327 327 327 326 323 323 320 319 318 318 314 309 309 313 313 315 313 313 313 315
312 312 314 315 319 322 324 325 325 323 322 323 323 322 324 325 326 327 329 329 330 329 327 327 326 325 324 323 322 321 317 315 314 313 312 312 310 311 312 312 312 312 312

GFSSE_sfc_thetae_093.txt.gz
Theta_e
343 349 356 353 352 352 351 354 358 358 358 358 356 356 356 355 356 353 350 349 351 352 353 352 353 352 352 352 351 351 348 348 347 347 347 348 349 349 349 349 349 345 348
346 350 355 355 352 351 352 353 355 357 357 357 356 355 355 355 355 352 350 349 351 352 353 353 352 352 351 350 349 348 347 346 345 345 343 344 346 346 347 347 348 345 348
346 350 352 355 354 354 352 351 353 356 355 355 357 355 356 355 354 352 351 351 353 353 353 352 351 348 347 347 347 346 346 345 344 345 342 335 338 344 343 344 345 344 345
348 350 350 355 355 353 352 350 351 352 355 355 354 357 357 355 354 353 350 352 354 353 351 350 348 346 345 345 345 343 341 338 339 336 328 331 334 340 341 343 343 342 343
346 348 350 354 354 353 351 350 349 349 353 355 355 355 355 355 353 351 352 354 352 351 349 347 346 345 344 344 343 339 337 340 340 334 329 329 331 339 340 339 338 338 338
344 346 351 353 354 353 353 351 350 349 350 353 354 353 355 354 354 353 352 352 350 348 347 345 344 343 342 341 340 338 337 339 335 330 331 334 331 340 339 339 338 338 337
343 347 349 354 354 353 352 351 351 350 351 352 353 352 354 353 352 352 350 350 348 349 348 346 345 343 339 339 338 337 336 336 329 330 330 330 332 339 339 339 338 338 337
344 347 348 351 351 352 351 350 350 350 353 352 352 352 352 352 351 350 349 346 342 344 346 346 345 341 338 338 337 335 335 333 332 331 331 331 340 339 339 338 337 337 336
342 342 344 347 348 349 349 348 347 349 349 351 350 349 349 349 349 348 346 342 345 347 349 348 345 341 339 336 335 334 333 332 324 331 333 332 341 339 338 337 337 337 336
335 335 335 338 338 338 344 346 344 344 345 347 347 346 343 344 344 341 343 342 341 349 348 347 346 342 340 338 336 335 333 331 321 330 332 333 340 338 337 336 336 335 335
332 332 335 333 332 333 337 341 342 342 342 342 343 340 339 338 338 337 339 340 344 345 345 346 345 344 339 336 335 333 332 322 320 327 331 340 340 338 337 335 334 334 333
329 331 331 331 331 332 334 331 335 338 338 338 339 338 338 336 336 335 336 337 342 343 342 343 341 339 333 324 324 328 321 318 317 322 327 341 340 340 339 337 335 333 332
331 330 331 331 331 330 331 330 331 334 332 336 336 338 338 335 334 334 338 337 337 335 335 337 335 330 324 321 321 319 318 317 316 319 327 336 338 338 336 339 339 337 335
326 329 329 330 328 328 331 331 330 330 332 329 336 339 336 334 332 333 334 336 335 331 329 329 327 325 322 321 321 320 318 317 316 317 322 331 336 335 336 336 337 339 339
325 327 327 326 325 328 329 329 328 331 334 331 334 337 337 333 332 333 331 331 330 330 327 326 325 323 321 321 318 319 317 317 317 318 318 328 332 336 336 337 337 338 338
326 324 326 326 327 328 328 328 328 330 334 330 332 334 335 333 332 332 330 330 330 329 327 326 324 322 320 319 318 319 320 318 318 321 317 321 330 333 337 337 338 339 339
325 326 326 325 327 329 329 328 328 329 335 332 328 330 331 331 331 329 329 329 329 327 324 323 322 320 318 318 317 320 322 322 325 325 324 320 324 329 334 338 339 339 340
323 325 328 329 326 326 327 328 327 329 333 333 333 327 329 332 329 326 325 326 326 324 322 320 319 317 317 319 320 322 323 323 324 325 326 326 324 327 329 335 339 341 340
321 324 326 326 325 325 326 327 330 329 332 333 333 332 326 329 329 326 323 323 323 323 323 322 319 318 317 321 323 323 322 324 325 327 325 327 326 327 326 329 332 333 335
321 322 322 326 326 326 328 328 329 329 331 333 332 332 330 328 328 326 325 324 326 325 324 324 321 321 320 321 324 322 321 324 324 325 324 325 326 326 323 325 325 325 328
319 321 322 323 325 326 325 324 325 325 328 329 332 333 332 332 330 329 329 328 328 328 326 325 323 322 322 323 320 319 320 324 324 326 324 322 323 321 321 322 322 323 326
319 320 322 323 324 326 326 325 326 326 327 329 331 332 333 332 333 334 331 329 326 328 326 325 323 322 322 322 319 319 315 319 321 323 324 321 318 318 321 320 320 320 322
314 317 321 324 324 326 326 326 326 326 325 325 327 330 332 334 333 333 332 331 329 328 327 326 328 324 321 322 322 321 315 313 316 317 318 317 316 314 316 318 318 318 318
312 314 319 322 325 326 326 324 323 321 320 324 326 327 328 331 331 330 330 329 329 329 327 327 327 326 325 322 325 326 323 320 314 311 317 317 314 312 312 314 315 315 316
315 313 319 321 322 325 326 325 323 322 323 324 325 325 325 326 328 331 330 329 327 328 327 327 325 325 324 323 322 320 319 318 317 313 310 310 313 313 312 312 312 314 313
312 310 313 315 317 321 322 323 324 323 322 322 322 322 323 324 325 325 327 327 328 327 326 325 325 325 326 324 322 320 317 316 315 313 310 312 311 314 313 312 310 311 311

GFSSE_sfc_thetae_096.txt.gz
Theta_e
342 349 356 354 353 355 357 358 358 358 358 356 356 356 356 356 354 349 349 351 352 351 348 349 351 352 352 352 349 347 347 347 347 347 347 348 349 348 349 349 348 344 348
345 350 355 354 353 353 356 358 358 358 358 357 355 355 353 356 354 350 350 351 352 352 352 352 352 353 352 351 347 346 346 345 344 344 344 344 346 347 347 346 348 346 349
346 350 350 354 354 354 354 354 357 357 356 357 357 355 354 355 354 351 349 352 353 353 353 352 351 351 349 348 347 345 345 343 342 343 341 334 338 344 345 344 344 345 346
347 349 349 354 354 353 352 351 355 356 356 356 356 357 356 355 353 351 350 352 353 352 352 351 348 346 347 346 345 343 341 340 341 337 329 331 334 341 343 342 342 342 342
346 348 350 354 354 353 351 350 350 354 355 355 355 355 355 354 353 351 352 354 352 351 350 349 344 346 345 345 342 339 340 340 338 332 328 329 332 337 339 338 337 338 338
345 347 352 354 354 353 352 350 348 350 353 355 355 354 354 353 353 353 353 352 350 349 348 346 344 344 344 343 339 339 340 339 335 330 330 334 331 339 339 338 338 338 337
343 346 350 354 354 353 352 352 351 349 351 352 354 352 352 353 352 352 352 351 348 348 346 344 344 342 341 340 339 339 338 338 329 328 328 329 332 340 339 339 338 338 337
343 347 349 352 352 352 352 351 351 350 351 352 352 353 353 353 351 351 350 350 349 348 345 345 343 340 339 339 339 337 336 336 331 329 329 330 339 339 339 338 338 337 337
344 344 346 348 349 349 350 349 349 349 351 352 351 351 350 350 348 350 349 348 346 343 347 346 342 338 338 338 337 335 334 333 329 330 332 331 341 339 339 338 337 337 336
334 337 340 342 344 345 343 345 344 344 346 348 347 346 344 344 344 347 344 343 344 346 347 347 343 339 338 337 335 333 331 330 327 330 331 331 340 339 338 337 336 336 335
333 334 333 333 334 338 341 341 342 342 342 342 342 340 339 341 341 339 337 339 341 347 348 346 344 342 339 336 335 332 329 320 323 329 330 340 340 338 337 336 335 335 334
331 333 333 330 330 332 337 333 335 338 337 337 338 338 336 337 337 336 335 337 342 344 345 346 345 342 334 324 323 328 319 317 317 325 329 341 340 339 337 336 335 334 333
329 332 332 332 332 330 330 328 329 330 333 336 336 334 334 335 334 335 335 335 338 335 336 337 336 329 322 319 319 317 317 316 316 322 327 340 341 340 340 339 338 336 335
326 329 331 331 331 331 331 328 327 327 330 333 336 337 333 334 333 333 335 334 335 335 331 330 328 325 322 320 319 318 316 317 314 318 320 334 340 339 338 338 340 340 339
322 325 329 329 330 328 328 327 326 328 330 330 334 335 335 335 332 333 332 334 333 334 331 327 326 323 320 319 319 319 318 316 315 316 317 328 333 338 339 338 338 338 340
322 324 324 325 326 327 327 326 325 327 330 333 332 334 335 335 333 332 331 331 330 333 330 327 324 322 319 319 318 317 318 316 315 317 316 320 330 333 338 338 339 339 339
321 324 324 325 327 327 328 327 325 326 329 330 331 334 333 333 333 333 331 331 331 331 330 324 323 322 320 319 316 316 318 318 319 321 318 317 322 328 333 338 340 339 340
320 322 325 327 327 327 326 325 326 326 328 331 331 329 330 331 331 332 331 330 331 330 327 323 322 318 317 316 315 316 319 321 322 323 324 320 321 323 328 335 339 341 341
320 322 324 326 326 327 327 326 325 326 327 330 331 331 327 330 331 331 330 329 328 326 324 322 318 318 315 317 319 320 321 321 322 325 324 324 324 323 324 328 331 333 336
319 321 323 325 325 324 325 325 326 326 327 330 330 331 329 329 331 329 328 327 325 324 323 321 318 318 316 317 322 322 322 322 323 324 324 325 325 325 325 325 325 325 327
318 320 322 323 324 323 324 323 324 325 326 327 330 331 332 327 329 328 327 324 325 324 323 323 320 318 319 319 318 318 319 320 323 324 325 323 323 323 321 322 321 322 325
317 320 320 322 323 324 324 322 323 326 326 328 329 330 331 330 328 328 327 324 325 324 324 323 323 320 320 321 317 317 314 318 321 323 322 321 321 320 320 320 320 321 321
314 316 319 320 321 322 323 322 322 324 325 324 326 327 329 331 331 329 328 328 326 327 325 324 323 322 320 321 322 319 314 312 316 317 318 318 317 318 318 318 319 320 318
310 314 320 320 322 322 322 322 321 320 320 322 323 326 328 330 330 330 330 330 328 328 327 326 326 325 323 320 322 323 321 318 312 310 315 315 315 314 316 316 316 316 315
315 314 316 317 320 323 325 324 323 321 322 324 324 325 326 326 328 329 330 328 326 325 325 325 324 324 324 323 321 320 319 319 317 314 310 312 315 314 314 314 315 315 314
312 312 314 316 316 320 322 322 323 321 321 322 323 322 323 324 325 327 328 328 327 326 326 325 324 323 324 322 324 323 320 318 316 313 311 311 313 315 316 313 313 313 313

GFSSE_sfc_thetae_099.txt.gz
Theta_e
340 347 356 355 357 358 359 357 357 357 357 356 354 354 355 354 351 349 349 348 347 347 347 349 352 351 350 349 348 346 347 347 347 347 348 349 348 347 349 348 347 344 348
344 350 355 355 356 357 359 358 358 358 357 357 354 353 353 354 350 349 351 351 348 349 348 351 352 351 350 347 346 345 345 345 345 344 344 345 347 347 347 348 348 345 349
346 349 351 355 356 357 358 359 358 358 357 357 356 353 354 354 351 350 352 352 352 352 352 352 352 351 347 346 345 344 343 344 343 341 340 335 338 345 344 343 344 343 344
347 349 348 354 355 354 355 356 357 356 356 356 356 355 355 354 352 350 351 353 353 352 352 352 351 348 346 346 345 343 342 341 338 336 330 331 335 342 342 342 342 342 341
345 347 348 354 354 353 352 354 355 355 355 356 356 356 355 354 353 350 351 354 352 352 351 350 346 346 345 344 340 339 339 338 336 332 329 329 330 336 338 338 337 338 338
343 345 351 353 354 353 352 351 353 353 354 354 355 353 353 354 353 352 354 351 351 350 349 348 347 345 344 343 341 340 339 338 333 328 329 333 330 339 339 338 338 338 338
343 346 350 354 354 353 352 351 350 353 353 353 353 352 352 353 353 352 352 350 349 349 348 345 344 345 343 342 341 340 340 337 328 326 327 329 331 339 340 338 338 338 338
343 346 349 351 352 352 352 351 350 350 351 353 354 353 353 352 352 350 350 349 349 346 345 344 344 342 340 340 339 339 339 335 330 327 327 328 339 339 339 338 338 337 337
340 343 345 348 348 349 350 350 350 351 350 352 352 352 351 349 349 350 349 349 348 346 345 344 342 339 339 340 337 337 339 335 327 328 330 330 341 339 339 337 337 337 336
337 337 338 341 343 343 343 347 346 346 348 350 349 347 345 344 345 346 346 347 347 347 347 344 341 338 339 340 337 335 335 334 326 328 329 330 340 339 338 337 336 336 335
334 337 336 337 339 340 340 340 342 343 342 342 343 341 340 340 341 341 341 341 343 344 346 344 341 340 338 335 334 332 328 323 323 327 328 336 340 338 337 336 336 335 334
329 333 332 331 333 338 340 335 335 337 334 336 337 337 337 339 339 339 334 337 341 342 345 345 343 341 335 324 324 328 318 317 322 326 327 339 340 339 337 336 335 334 333
326 331 332 329 331 332 332 331 331 332 332 334 333 333 334 336 335 335 334 334 335 337 341 341 339 331 323 319 318 317 316 314 315 321 328 338 340 340 339 337 336 335 334
324 329 332 330 330 332 333 331 329 330 330 332 333 334 333 331 333 334 333 333 335 336 335 333 329 326 322 318 316 315 315 314 315 316 322 333 341 341 341 341 340 339 338
321 325 329 332 329 330 330 329 328 326 326 328 332 334 334 333 332 333 333 331 333 334 333 330 327 323 320 319 318 318 317 315 314 314 317 326 335 341 341 339 339 340 340
317 322 326 330 329 329 329 328 328 329 328 327 328 333 333 334 333 333 333 332 331 333 332 331 328 324 320 318 317 317 317 317 315 314 315 318 330 334 339 339 340 340 340
309 321 323 326 328 328 328 327 327 327 327 328 328 330 334 333 333 333 332 332 331 331 330 329 327 324 320 318 316 317 316 316 315 315 316 316 320 328 333 338 340 340 340
310 319 323 327 325 325 326 326 326 327 326 327 326 329 332 333 333 332 331 332 332 330 330 328 325 323 319 317 316 315 315 317 318 319 320 317 317 321 327 334 338 341 341
307 319 321 323 323 323 323 324 324 324 324 325 327 327 328 331 333 330 330 331 331 330 329 328 324 322 317 316 315 315 316 318 320 322 322 321 320 321 321 326 331 333 336
308 318 321 323 323 323 324 327 324 324 324 325 326 328 328 329 331 331 329 329 330 328 327 324 324 319 317 318 318 318 318 320 321 321 323 325 323 323 322 323 323 326 329
309 317 321 322 322 322 321 323 325 323 323 323 327 329 328 329 329 330 330 329 329 327 325 324 322 318 318 316 317 317 318 319 320 321 323 323 322 323 323 324 324 322 325
314 316 320 322 323 322 322 322 323 324 325 324 325 328 330 330 328 329 328 327 327 325 324 323 322 318 318 319 315 315 313 316 319 321 322 322 321 321 321 322 321 321 320
315 316 317 320 321 322 322 322 321 321 321 322 324 326 328 329 330 327 328 327 325 325 323 323 322 321 319 319 320 317 312 311 314 317 318 319 318 318 319 319 319 320 319
314 318 320 322 321 321 322 322 320 319 319 320 323 325 327 328 329 330 328 327 325 324 323 323 324 322 322 319 318 322 320 318 313 311 314 314 314 314 317 317 317 318 317
311 311 314 316 320 322 324 321 322 321 321 320 320 321 324 326 327 329 328 327 326 324 324 324 323 323 323 320 320 319 317 317 316 313 310 311 314 314 315 316 316 316 316
311 309 313 313 314 316 318 319 322 323 321 321 322 322 322 324 325 326 327 327 326 324 322 322 322 322 323 321 321 319 318 316 316 313 312 312 312 314 315 313 315 315 315

GFSSE_sfc_thetae_102.txt.gz
Theta_e
335 346 357 357 357 358 357 356 357 357 358 358 356 355 355 354 352 349 347 347 347 347 351 353 351 349 348 349 347 347 345 348 348 348 348 349 349 348 348 348 348 344 349
342 349 356 356 357 359 358 357 357 357 357 356 356 354 353 353 350 349 348 348 347 348 350 352 352 350 348 347 346 345 346 346 345 345 344 345 347 347 347 347 348 345 347
345 349 351 355 357 358 357 357 357 357 357 356 353 351 352 352 350 350 350 349 348 349 352 352 351 348 346 345 344 344 345 344 343 342 341 336 339 344 343 344 345 342 341
347 348 348 355 356 357 357 356 356 355 357 356 355 354 356 352 351 351 352 351 354 353 352 352 350 347 345 344 343 342 343 341 339 337 330 332 336 342 342 341 341 340 341
344 346 348 354 355 356 355 356 356 355 354 355 355 354 354 353 351 351 352 354 352 352 352 352 349 346 345 344 343 342 340 338 337 332 328 328 330 337 339 339 338 338 338
342 344 350 353 354 354 355 356 356 354 354 355 354 354 353 353 353 351 354 353 352 350 351 349 346 345 344 343 341 341 340 337 333 326 328 333 329 339 339 338 338 338 338
340 344 348 354 354 353 352 354 355 355 354 353 353 352 352 353 353 353 352 352 351 350 349 347 346 344 342 343 340 340 339 336 327 326 326 328 331 340 340 339 338 338 337
341 345 348 351 353 352 352 351 351 354 354 354 353 353 353 352 353 352 350 351 350 349 348 345 345 343 341 341 340 341 338 334 328 325 326 327 339 340 339 338 338 337 337
340 343 344 347 348 349 349 350 349 350 351 353 353 352 351 349 350 351 350 350 349 349 347 346 344 342 340 340 339 343 338 334 325 326 329 329 341 339 339 338 337 336 335
337 338 340 342 343 344 344 346 347 348 348 349 350 348 345 344 345 348 347 346 348 347 347 345 342 340 341 340 337 340 337 334 324 326 328 329 340 339 338 338 337 336 335
333 334 335 337 339 340 341 342 344 343 345 345 344 342 341 340 342 341 341 343 345 346 346 344 341 341 340 337 335 334 335 326 324 326 326 334 340 339 338 337 336 335 334
325 331 334 333 335 337 341 337 335 337 335 336 337 337 337 338 338 340 337 340 343 344 344 344 341 340 335 325 325 329 319 321 321 325 326 335 340 339 338 337 336 335 334
318 327 332 332 332 336 335 332 332 332 332 333 334 334 335 336 334 334 333 338 336 334 338 341 337 330 323 320 319 319 317 316 317 324 328 335 340 340 339 337 337 336 335
309 322 329 332 331 333 334 332 330 331 330 330 332 333 332 331 330 331 332 333 334 337 338 337 333 329 322 318 315 315 315 314 314 315 322 332 339 341 341 339 338 338 337
304 316 327 330 331 331 332 332 331 330 330 331 331 332 331 330 329 333 333 333 334 334 333 333 332 326 322 318 316 314 314 313 313 314 316 324 333 340 342 341 341 341 341
303 310 322 330 330 330 331 330 330 329 329 329 331 331 331 332 329 329 330 332 332 334 332 332 330 326 323 318 317 316 316 316 314 314 314 317 327 335 339 340 340 341 341
301 306 315 327 330 329 327 328 329 329 330 328 327 329 331 331 330 330 330 329 329 333 332 330 329 325 321 319 316 316 316 315 315 314 314 314 317 328 332 337 340 340 341
300 302 315 325 328 327 326 326 326 327 326 326 329 329 330 331 330 329 329 330 331 331 331 329 328 325 321 320 317 315 315 315 315 314 314 315 315 318 325 333 337 341 342
302 302 312 321 322 325 325 325 325 324 325 325 326 326 328 331 331 330 330 329 331 331 331 329 327 326 321 320 316 316 315 315 316 319 317 318 317 317 319 325 329 332 336
302 305 311 321 321 322 323 322 323 322 322 322 323 325 326 330 332 330 327 328 328 325 327 328 327 323 323 322 320 318 316 316 317 318 319 322 322 319 319 320 321 324 329
301 305 312 319 320 321 322 322 322 321 320 320 323 325 326 326 328 330 329 326 328 324 324 326 326 324 319 318 315 315 317 318 318 320 321 322 322 323 322 321 321 322 324
300 306 313 319 321 321 321 320 321 321 322 322 323 326 327 327 327 327 329 329 328 327 326 325 325 322 322 319 315 314 311 314 318 320 321 322 322 322 322 322 322 322 323
308 312 315 319 321 321 320 321 320 320 322 321 323 323 324 327 328 328 328 328 327 327 325 325 324 323 319 318 320 315 310 309 312 317 318 321 320 319 320 321 321 320 320
313 317 318 318 320 320 323 322 320 318 318 319 320 322 324 326 327 328 327 327 327 326 325 325 324 323 321 317 316 318 317 316 312 310 314 314 316 317 318 318 319 319 318
312 313 316 320 319 321 323 322 321 320 321 321 320 319 320 322 325 326 328 327 326 325 325 325 323 322 322 321 318 316 316 316 315 312 310 311 313 313 315 316 317 319 318
311 311 310 313 313 314 319 318 317 317 319 320 320 320 322 321 323 325 326 327 327 327 325 324 324 323 322 322 320 319 318 317 316 313 310 311 311 312 313 315 316 317 317

GFSSE_sfc_thetae_105.txt.gz
Theta_e
344 353 359 358 357 357 357 356 358 358 358 358 357 356 355 354 352 350 348 348 348 352 353 350 348 350 350 349 348 346 349 348 349 349 349 350 349 348 349 349 349 347 348
346 353 358 358 359 359 358 358 358 358 358 357 357 356 355 353 351 348 349 348 348 352 354 351 349 349 348 348 346 347 348 347 346 346 346 346 347 348 347 347 349 347 346
347 353 353 358 359 359 357 357 357 357 357 357 357 356 354 352 351 349 348 348 348 351 353 353 351 349 347 344 345 346 346 345 344 343 343 344 344 344 343 345 345 343 342
349 353 351 356 359 358 357 356 356 357 356 355 353 352 354 351 351 350 349 349 351 354 353 353 350 347 345 344 344 345 344 342 340 338 340 340 339 342 342 341 341 341 340
350 351 351 356 358 357 357 357 356 356 356 356 355 352 354 352 351 352 352 353 353 352 351 351 349 347 346 344 343 343 341 339 338 337 339 340 339 339 340 340 338 339 338
349 350 351 354 356 357 356 357 356 355 355 355 355 354 352 353 351 353 354 352 350 351 351 349 349 347 347 346 343 341 339 338 336 337 337 337 337 339 339 339 339 339 338
347 349 351 354 353 355 355 355 355 355 354 354 354 353 352 352 352 353 353 352 351 350 351 348 346 344 342 343 342 341 339 336 335 336 337 338 339 340 340 339 339 339 338
345 348 350 351 353 352 353 353 353 353 352 353 354 353 352 352 352 351 351 352 351 350 349 347 345 343 342 342 341 340 338 334 333 336 337 339 341 340 339 339 338 338 337
343 346 348 350 349 349 350 350 350 352 351 352 352 352 352 351 351 350 350 350 350 349 349 348 345 343 342 342 344 341 337 334 334 335 336 338 341 340 339 338 337 337 336
336 340 346 348 349 348 348 347 347 347 348 350 350 349 346 345 346 348 347 347 348 347 347 347 346 343 343 342 342 341 336 333 333 335 336 337 339 340 339 338 337 336 336
324 334 338 342 346 346 347 345 345 345 345 345 346 343 343 349 348 346 342 343 345 346 347 346 345 343 342 338 339 339 335 335 333 334 335 335 340 340 339 338 337 336 335
313 320 333 337 341 344 345 346 346 344 346 347 347 347 347 348 347 345 340 340 344 344 345 345 343 341 339 337 333 335 336 335 333 333 334 335 341 340 339 338 337 336 335
310 317 324 335 335 340 343 343 340 339 341 342 342 344 345 345 345 344 344 344 344 339 343 342 340 337 335 334 331 330 329 333 333 332 333 334 340 341 340 338 337 336 336
308 311 320 334 333 334 340 339 338 335 338 339 341 341 342 343 342 343 342 343 342 342 341 342 339 336 331 330 328 328 326 327 327 329 332 332 337 341 341 340 339 338 337
305 308 312 327 333 332 334 336 334 334 334 336 339 339 340 341 339 339 338 340 341 341 340 340 339 335 332 327 325 323 324 324 324 324 325 324 331 338 341 342 341 341 340
305 307 310 316 331 332 332 332 336 332 332 332 335 338 338 339 335 338 338 336 337 338 338 339 338 336 332 330 326 323 323 323 323 323 324 324 327 333 338 342 342 342 342
303 306 306 310 323 332 330 332 335 332 331 330 331 335 336 338 337 336 336 337 337 338 336 335 337 334 333 330 327 325 324 324 324 324 324 323 324 325 332 337 340 341 341
302 303 306 309 322 330 330 330 333 331 332 331 330 331 331 335 336 336 336 336 337 337 337 336 331 331 328 330 327 325 324 324 324 324 324 324 323 323 326 332 336 340 342
302 304 305 310 318 326 329 329 331 331 331 330 331 330 331 332 334 335 335 336 336 336 335 335 331 329 327 325 327 326 327 325 323 323 324 323 323 323 324 325 329 331 336
302 305 306 308 316 326 326 327 327 328 329 329 330 329 330 331 333 334 333 333 335 333 332 333 331 327 326 326 324 323 325 326 325 325 325 324 325 325 325 325 325 326 328
303 303 306 310 317 324 324 325 324 323 325 327 328 328 329 329 331 333 332 331 332 330 329 330 331 327 324 323 322 321 322 323 323 324 324 324 325 327 328 326 325 327 328
302 303 305 310 321 324 326 324 326 326 327 327 328 328 329 329 330 331 332 330 330 330 328 327 327 325 325 321 319 317 315 319 321 323 325 324 324 327 327 328 327 327 329
302 306 307 311 320 322 325 325 324 325 326 325 326 327 328 329 331 330 330 332 332 330 330 327 325 323 321 322 322 318 313 313 318 322 323 325 325 326 326 327 327 328 328
310 313 317 318 322 323 324 324 322 320 319 323 325 327 327 329 329 331 331 330 331 330 329 326 326 324 323 318 318 321 322 320 315 314 319 320 323 324 325 326 327 326 327
311 314 319 321 322 323 323 323 322 319 321 323 323 323 324 326 328 329 330 330 330 330 330 329 325 324 324 322 320 318 318 319 322 319 317 319 318 320 324 324 323 325 326
306 310 311 314 314 316 317 317 316 316 316 320 322 321 323 325 326 326 327 329 330 329 328 327 326 326 324 323 322 320 318 317 318 319 316 318 317 321 319 321 322 324 326

GFSSE_sfc_thetae_108.txt.gz
Theta_e
348 353 358 359 357 356 356 357 358 359 358 359 358 356 355 354 353 350 348 347 349 350 346 346 346 350 351 349 349 349 349 349 350 349 350 350 349 348 348 348 348 346 346
350 353 358 359 358 357 358 358 359 358 358 358 357 356 355 353 352 349 349 347 349 351 351 349 350 351 350 347 348 348 348 348 347 347 347 347 348 349 348 347 350 345 343
348 352 352 358 359 358 359 359 358 358 358 358 358 355 354 353 351 349 349 348 351 354 352 350 350 349 348 345 347 347 346 346 345 344 345 344 345 345 343 343 345 343 342
349 353 351 358 358 358 358 357 357 357 358 357 357 357 355 353 351 349 349 348 350 353 353 354 352 350 347 345 346 346 345 343 341 341 340 339 339 342 342 342 342 341 340
350 353 351 356 355 357 357 357 356 357 357 356 355 355 356 352 351 350 349 351 352 351 352 352 350 348 346 345 345 345 342 340 338 337 336 337 338 340 340 339 339 338 338
349 351 352 355 355 354 354 355 355 356 356 356 355 354 355 352 352 352 353 352 352 350 350 348 346 346 346 344 344 341 340 339 337 334 334 335 336 338 338 339 340 339 338
348 350 350 353 353 354 354 354 353 354 352 353 353 353 352 352 353 352 351 351 350 350 349 348 346 345 345 345 342 341 339 337 334 334 335 337 339 340 340 339 339 338 337
343 349 349 349 351 351 352 352 352 353 352 353 352 353 352 351 352 351 352 352 350 350 350 348 346 344 342 342 343 341 338 335 331 334 336 338 341 340 339 339 338 338 337
342 348 348 348 348 348 350 350 352 353 352 352 351 351 351 350 350 351 351 352 351 351 349 349 346 343 343 342 343 341 337 335 333 334 334 338 341 340 339 338 337 337 336
327 340 346 348 346 346 346 347 347 348 349 351 350 348 346 347 348 349 348 349 349 349 349 347 347 344 344 344 344 341 337 333 332 334 335 337 340 340 339 338 337 336 336
318 319 328 343 347 346 345 344 345 345 345 345 346 344 345 348 347 347 343 344 345 346 346 347 346 345 343 340 341 339 335 336 333 332 334 338 341 341 339 338 338 336 335
315 316 318 325 341 346 345 346 345 344 344 342 342 344 346 345 345 343 340 340 344 344 344 346 346 343 340 337 336 338 337 336 335 334 334 338 341 341 340 339 338 337 336
312 315 317 318 336 338 346 347 346 345 345 344 343 345 344 343 345 345 345 345 348 339 344 344 344 340 336 335 334 335 336 336 335 334 334 335 339 342 341 339 338 338 337
308 311 316 317 322 336 338 344 347 344 342 342 342 343 342 341 344 342 342 345 346 345 344 343 341 337 336 335 333 332 332 333 333 333 333 333 336 341 342 341 339 339 338
306 309 312 315 317 328 335 338 343 343 339 337 340 343 342 342 343 343 344 345 346 346 344 344 340 338 333 329 330 331 331 330 330 330 330 329 333 337 341 342 341 340 340
307 308 310 312 315 322 331 335 337 342 340 335 334 337 340 343 344 344 343 343 343 345 342 340 340 338 333 328 326 327 328 328 329 329 329 329 327 331 336 341 343 343 342
307 308 308 309 312 316 326 334 334 339 341 338 333 334 336 339 342 341 342 341 342 344 339 339 339 337 337 331 327 324 325 325 325 326 327 328 328 325 331 336 338 342 342
307 307 308 308 309 314 322 333 334 339 336 333 334 332 334 336 338 339 338 339 341 340 340 339 338 335 335 333 331 329 326 327 326 326 327 328 329 328 327 331 336 339 342
307 307 308 309 309 312 320 331 333 335 335 334 336 332 331 332 333 336 336 337 337 337 338 338 338 337 332 333 329 329 329 328 327 326 326 328 329 329 328 328 329 332 336
307 307 307 308 309 312 321 329 331 331 333 336 335 334 332 332 333 334 335 335 335 334 335 337 335 335 334 334 328 328 331 332 330 327 326 326 329 329 329 329 329 327 328
306 307 307 308 309 310 318 322 324 324 329 330 332 334 332 329 331 332 333 333 332 331 332 332 331 331 329 332 325 324 324 326 326 327 328 325 327 328 329 329 329 330 330
306 307 308 309 310 311 321 324 328 328 328 331 334 333 333 331 333 332 331 332 333 331 330 329 330 328 328 331 326 324 318 320 322 324 325 324 325 327 327 329 330 331 331
311 309 308 309 311 312 320 326 327 329 331 329 330 331 331 332 332 332 332 332 332 332 329 330 331 330 326 328 328 322 315 313 318 321 322 324 325 326 327 328 329 331 331
312 315 317 314 316 315 323 325 323 326 324 326 328 331 331 332 332 332 332 331 331 331 331 332 333 330 328 322 325 324 321 321 315 313 320 324 325 325 327 329 329 330 331
307 312 319 319 319 322 322 321 324 322 324 324 324 323 327 329 330 331 331 330 330 331 331 331 331 330 329 322 320 320 320 319 318 316 312 318 322 324 326 327 329 329 330
306 308 312 314 315 317 316 316 317 317 319 318 318 321 323 325 328 328 328 328 330 330 330 331 330 328 328 325 323 321 319 315 315 314 313 317 317 324 327 327 327 328 329

GFSSE_sfc_thetae_111.txt.gz
Theta_e
347 352 358 358 355 355 356 357 359 359 358 358 356 356 354 353 353 350 348 345 348 348 345 345 346 349 350 349 349 349 348 350 350 349 351 350 349 349 347 346 350 343 345
348 352 357 359 356 355 355 357 359 359 358 358 357 356 354 353 352 348 347 346 346 347 346 345 349 351 350 349 349 348 349 348 347 349 347 347 348 348 348 347 349 342 343
347 351 350 358 359 358 358 357 358 358 357 358 357 355 355 353 351 349 348 347 349 350 350 348 351 351 349 347 348 347 347 346 345 345 348 344 343 345 344 344 345 342 342
349 352 351 357 357 356 357 357 358 358 357 357 356 355 354 353 351 349 348 347 350 352 353 352 352 351 349 346 346 345 345 344 342 343 340 337 338 342 343 342 341 340 340
349 349 352 356 356 355 355 355 353 355 357 356 356 356 354 353 352 350 349 349 351 352 351 351 351 349 346 345 345 344 343 340 339 338 335 337 338 340 340 339 339 339 340
347 349 352 355 355 355 355 356 355 354 355 353 353 354 355 352 352 351 352 351 352 350 351 351 348 346 346 345 344 343 340 338 338 334 334 334 336 339 338 340 339 339 339
344 348 350 354 352 354 353 353 353 352 353 353 353 352 352 352 352 352 351 353 352 349 350 348 346 345 344 344 342 340 339 339 335 332 333 335 338 340 339 339 339 338 338
342 347 348 350 352 352 353 353 352 353 352 352 352 351 350 351 351 351 351 352 351 349 349 348 346 345 344 344 343 341 339 336 331 332 334 337 341 340 340 339 338 337 337
336 344 348 347 347 349 350 350 351 352 352 353 352 352 351 350 350 350 350 351 351 351 350 349 348 346 344 343 345 343 339 335 332 332 333 337 342 341 340 339 337 337 336
324 325 333 346 347 345 345 347 348 349 350 351 350 349 347 347 347 348 347 347 350 350 349 348 347 345 344 345 344 342 337 335 332 333 333 337 342 340 340 339 338 337 336
322 321 322 326 343 345 344 343 345 345 345 345 346 344 344 346 344 345 343 343 347 348 347 347 346 345 344 342 343 340 335 333 331 331 332 340 341 340 339 338 338 337 336
315 319 320 321 325 341 344 345 345 342 341 340 339 341 343 342 341 340 339 340 345 346 345 346 345 344 340 337 336 338 334 334 333 332 332 341 341 341 340 339 338 337 336
312 314 317 319 321 332 340 345 345 344 346 343 341 340 340 339 342 341 342 344 346 339 346 343 343 341 337 333 333 334 335 334 333 333 334 339 340 342 341 340 339 338 337
308 312 316 317 320 322 337 340 344 343 345 342 341 341 340 340 342 339 340 343 345 345 344 346 344 341 338 334 332 331 332 334 333 333 333 335 338 341 342 342 340 339 338
307 310 312 315 318 320 324 337 341 342 343 343 341 340 339 340 341 340 340 343 343 345 344 344 344 340 337 334 332 331 329 330 330 331 331 331 335 337 340 342 342 341 340
310 310 311 311 314 318 320 328 337 341 342 341 339 338 338 339 339 341 343 344 344 346 345 343 341 342 337 334 331 329 328 329 329 329 329 330 332 335 336 339 342 342 342
308 309 310 311 311 312 317 321 330 338 340 339 338 336 336 334 336 337 340 342 343 345 344 344 342 341 338 335 329 324 324 326 327 326 327 329 329 328 333 336 338 341 343
309 308 309 309 311 310 310 317 324 335 338 341 339 338 335 335 335 335 336 339 340 340 341 339 337 334 336 333 331 327 322 322 323 324 325 326 327 328 327 332 336 338 340
308 309 309 310 310 311 310 312 320 334 336 339 338 334 333 334 334 333 332 333 336 337 337 337 338 337 334 335 334 333 330 327 325 323 322 325 327 328 329 329 329 332 336
309 309 309 309 309 310 311 314 321 332 335 336 334 333 332 332 332 332 333 332 331 334 335 335 335 336 334 333 331 331 334 332 328 328 325 324 325 328 329 329 329 327 328
313 309 308 308 309 310 311 311 319 325 328 333 336 334 333 333 333 333 331 331 332 331 331 332 332 331 330 332 329 328 330 331 329 328 328 327 325 324 328 328 328 329 328
311 314 311 309 309 310 312 313 321 324 326 328 331 333 333 333 333 332 331 331 333 332 330 330 330 328 329 330 324 323 318 322 324 327 328 328 325 324 326 327 326 327 328
308 311 312 314 310 311 312 316 323 326 326 326 329 332 332 333 333 333 332 332 330 332 330 330 329 327 324 328 328 324 317 314 319 325 324 325 325 324 324 324 325 326 328
306 310 313 316 315 313 316 314 320 321 323 328 328 329 331 331 330 331 333 332 331 331 329 329 331 330 328 325 327 328 327 323 315 314 321 323 324 323 323 324 326 326 328
304 307 310 316 317 317 317 319 321 320 322 322 325 326 327 327 329 328 330 330 330 330 329 330 329 330 330 327 325 325 324 324 321 315 312 317 324 324 324 324 326 327 328
302 305 307 310 311 316 317 316 315 314 312 312 315 319 318 317 315 315 318 321 327 327 326 327 328 328 328 327 327 325 321 318 316 315 312 313 314 319 323 324 324 326 329

GFSSE_sfc_thetae_114.txt.gz
Theta_e
342 350 359 358 355 355 356 357 358 359 359 358 354 354 354 353 352 349 347 347 348 348 345 345 347 349 349 349 350 349 351 350 349 350 350 350 350 348 348 348 348 342 344
346 350 357 359 356 355 356 358 358 359 358 357 357 356 353 352 352 348 346 346 348 346 344 345 347 349 351 349 350 349 349 348 349 349 347 346 347 348 348 347 347 341 343
345 351 352 359 358 357 357 358 356 357 357 357 355 355 354 354 351 348 346 345 346 348 348 346 350 351 349 348 348 345 347 346 347 348 347 340 340 345 345 344 344 342 341
347 352 348 357 357 357 357 357 357 356 357 355 354 353 354 353 352 349 348 346 349 351 352 352 352 352 348 347 346 344 345 343 344 344 340 339 339 343 343 341 340 340 340
344 349 351 355 356 356 355 355 355 356 355 355 354 354 354 352 352 350 349 349 351 352 351 352 352 349 347 347 344 343 342 340 341 338 330 332 333 340 340 339 340 340 340
343 347 348 353 355 355 355 355 354 354 355 354 354 354 353 352 352 351 352 351 351 351 351 351 349 347 347 347 344 343 341 339 339 330 328 335 333 340 341 341 339 339 339
341 346 349 352 353 352 353 353 354 354 353 353 353 353 353 352 351 351 352 352 351 352 349 349 348 346 345 346 344 343 340 339 332 327 325 331 334 340 340 340 339 339 339
334 343 348 349 352 352 352 352 352 353 353 353 353 352 353 352 351 350 350 351 352 352 348 349 348 345 344 344 343 341 340 336 330 326 328 333 341 340 340 339 339 338 338
324 325 334 346 347 348 349 350 351 351 352 352 353 352 351 350 350 350 351 350 350 351 349 350 348 347 344 345 345 343 339 335 327 326 330 334 342 341 339 338 338 338 337
320 321 321 324 343 344 345 347 347 348 349 349 350 348 346 345 346 349 348 347 349 350 350 348 347 347 346 345 345 342 338 334 326 326 327 335 343 341 340 339 337 337 336
317 318 317 319 320 335 342 344 345 345 345 345 345 343 342 343 342 343 342 342 346 348 349 349 347 345 343 342 342 340 335 328 323 324 327 341 343 342 341 339 338 337 336
307 312 315 316 317 319 338 341 342 343 339 339 340 341 342 341 340 340 339 339 344 346 346 347 346 344 341 336 336 338 330 328 328 324 331 342 343 342 341 340 339 338 337
304 308 311 313 316 316 322 336 340 342 341 340 337 335 335 337 336 335 336 339 340 338 342 342 340 339 335 332 331 334 332 329 328 326 334 341 342 342 342 341 339 339 338
303 305 308 310 311 315 317 332 335 338 341 339 338 338 337 334 335 336 335 339 339 339 339 338 338 337 335 332 327 330 331 329 327 326 331 336 341 341 342 342 341 339 339
304 306 307 308 308 312 314 318 332 336 338 340 338 336 336 336 333 334 333 336 340 339 338 338 338 338 336 333 331 326 324 327 326 325 327 331 337 341 341 343 343 341 340
304 304 306 308 308 309 310 313 321 334 337 337 337 336 335 335 334 334 336 337 337 339 339 338 337 337 334 335 330 329 325 324 322 323 323 328 333 336 340 340 342 344 343
304 305 304 305 306 306 306 308 312 325 335 335 334 332 332 332 334 333 335 336 337 338 338 337 336 336 334 332 327 327 325 324 321 322 321 324 329 330 335 338 339 341 343
306 303 306 308 306 305 304 304 308 313 330 334 336 332 331 332 331 331 334 332 336 336 336 336 335 333 333 331 331 328 327 324 320 320 321 321 323 326 329 335 338 340 341
309 307 304 305 306 305 306 306 304 307 326 331 334 333 331 330 331 330 331 329 330 330 332 333 332 332 329 329 330 330 328 324 321 321 318 318 319 322 324 327 330 332 336
308 309 309 306 305 306 306 306 306 309 324 329 332 329 328 329 330 328 328 328 329 327 327 330 330 330 329 329 330 329 328 328 323 322 322 322 320 323 322 324 325 325 329
307 307 308 310 308 305 304 303 303 305 321 324 327 331 329 330 330 328 328 329 326 326 326 329 328 327 327 329 325 325 327 330 328 326 325 325 324 323 323 325 325 323 324
305 306 307 309 310 310 305 306 306 312 318 321 325 328 329 330 331 329 329 326 326 327 326 327 326 325 326 328 322 322 317 321 327 328 328 326 324 323 320 321 324 324 325
302 303 306 308 311 314 307 307 309 313 317 318 321 325 327 329 329 330 327 326 326 326 325 325 326 326 323 324 326 321 315 313 316 321 324 325 325 324 325 323 323 322 324
301 304 307 309 313 315 311 307 306 309 311 315 318 324 327 329 329 329 329 327 325 325 324 324 327 326 324 322 325 326 324 321 313 309 315 320 323 323 323 323 323 323 323
301 303 306 307 310 310 313 311 310 308 310 314 313 317 320 319 320 321 322 325 325 324 322 323 325 323 325 322 321 320 321 322 319 315 312 313 315 320 320 321 321 321 323
300 301 304 304 305 308 309 309 308 309 310 310 309 310 312 312 312 314 317 317 318 317 317 319 322 322 322 323 322 321 320 317 317 316 315 315 314 318 320 320 322 322 323

GFSSE_sfc_thetae_117.txt.gz
Theta_e
339 347 358 358 357 357 356 357 358 357 357 357 353 354 354 353 351 349 346 347 348 347 345 346 348 349 348 349 349 351 349 348 349 350 350 350 348 349 348 346 345 340 346
344 349 356 358 356 356 356 357 357 358 357 357 356 355 354 353 351 347 345 347 347 346 344 346 348 350 349 350 350 349 349 349 348 349 347 346 347 348 347 345 345 340 342
344 350 353 358 357 357 357 357 356 357 356 355 354 354 353 353 351 347 345 345 348 346 345 346 349 350 349 349 348 347 347 347 347 346 344 339 341 346 345 343 343 341 341
345 350 350 357 356 357 357 357 356 356 355 356 355 354 353 351 352 349 347 345 347 348 350 350 351 352 348 347 345 345 344 344 344 344 338 338 339 344 342 340 340 340 340
343 348 349 354 354 354 353 355 356 356 356 355 355 354 353 352 351 350 349 348 350 351 352 352 350 349 348 347 344 343 342 340 342 336 329 332 334 338 339 340 341 340 339
342 345 350 352 353 353 353 354 354 354 353 354 354 353 353 351 351 351 351 351 349 350 351 352 349 348 348 347 345 343 342 340 340 326 329 336 333 340 342 340 339 339 339
333 343 348 352 353 353 351 352 352 353 353 352 353 353 352 351 351 351 352 351 350 351 351 350 349 347 346 346 344 344 341 339 329 325 325 330 332 340 340 339 339 339 338
320 328 341 348 351 352 352 352 352 352 352 353 352 352 352 352 352 351 351 351 352 351 351 349 349 347 345 345 345 343 341 337 329 324 326 331 341 341 341 340 339 338 338
321 321 322 328 346 346 348 349 350 351 351 351 352 352 350 350 350 350 351 351 351 352 351 349 349 348 345 345 345 343 339 335 326 324 332 333 343 342 341 340 339 338 338
317 317 316 318 322 328 344 346 346 348 348 349 349 347 345 344 345 348 348 348 350 350 350 349 349 347 346 345 345 343 338 335 325 324 326 333 344 342 341 339 339 338 337
310 314 313 315 315 316 323 343 343 344 344 345 344 342 341 342 342 342 342 342 346 348 349 349 349 346 344 342 342 341 337 328 323 322 326 340 343 342 341 339 338 338 338
301 305 309 312 313 315 317 329 338 341 342 341 342 341 341 341 341 341 338 338 343 345 345 349 348 345 341 337 337 337 331 327 324 324 324 341 344 343 342 340 339 338 337
301 303 305 305 308 310 313 316 333 337 338 339 336 337 338 341 339 339 334 336 339 338 340 343 343 340 336 334 333 333 330 327 326 325 329 341 345 343 342 341 340 339 338
302 304 305 306 307 307 312 312 323 331 336 337 339 338 334 334 332 334 332 335 337 339 338 337 337 336 335 334 329 331 331 329 328 326 328 337 343 344 342 342 341 340 339
300 302 304 305 305 306 306 310 313 326 332 336 338 337 335 333 335 335 332 334 337 338 337 336 336 336 335 333 331 326 329 329 327 325 326 332 338 342 344 343 343 342 340
304 303 303 304 304 305 305 305 308 316 329 333 335 336 336 331 333 332 332 333 334 337 337 338 336 336 335 334 331 329 324 327 328 326 326 330 334 338 342 344 343 343 343
306 306 304 305 306 304 303 303 304 307 318 331 333 333 330 332 330 331 331 331 334 336 336 335 334 335 334 332 331 331 328 324 323 323 321 326 330 331 337 342 343 344 345
306 306 308 310 307 304 303 303 303 304 307 320 331 332 330 329 330 328 330 332 333 334 334 333 335 333 333 332 331 329 326 325 323 321 322 324 327 329 331 336 339 341 343
306 306 307 309 309 308 305 303 303 303 303 314 327 331 330 329 327 327 329 329 329 329 330 330 330 330 329 331 331 331 331 328 325 325 320 319 320 323 324 329 332 334 337
305 306 306 307 309 310 310 305 303 304 306 311 321 328 329 329 328 325 326 327 327 325 325 326 327 327 328 328 330 330 330 330 328 324 322 321 318 318 321 321 324 327 330
303 304 304 305 307 309 309 307 301 301 304 309 321 325 326 326 325 326 326 325 325 323 323 324 325 322 322 327 325 324 326 328 328 327 325 322 321 321 319 321 323 324 325
300 301 303 305 307 310 312 313 305 303 308 315 319 320 322 325 326 327 327 325 324 321 322 324 326 325 325 327 322 321 317 320 325 328 328 328 325 325 321 319 320 321 322
299 300 303 305 307 309 310 312 308 307 310 313 313 315 318 322 324 326 327 327 324 323 323 323 324 324 320 321 325 320 314 312 317 323 325 326 326 326 325 324 321 321 322
298 300 301 304 307 308 309 308 307 304 305 308 310 312 317 316 316 317 324 326 325 325 321 322 322 321 319 317 320 324 323 319 312 310 317 321 324 324 324 323 324 323 320
298 298 300 302 304 306 307 307 307 308 308 309 309 311 312 311 311 310 313 321 325 324 323 322 321 321 321 322 321 317 320 321 321 317 314 315 315 319 322 322 323 323 324
298 299 297 298 299 303 305 304 303 304 304 303 304 304 307 305 305 305 307 311 312 315 315 317 319 317 317 321 321 319 319 317 316 316 315 316 316 318 319 318 318 320 322